<?xml version='1.0' encoding='UTF-8'?><gpx version="1.1" creator="JPX - https://github.com/jenetics/jpx" xmlns="http://www.topografix.com/GPX/1/1"><trk><trkseg><trkpt lat="43.6450848" lon="11.2986757"><ele>276.0</ele><time>2026-05-03T11:40:22.121Z</time></trkpt><trkpt lat="43.6450951" lon="11.2985616"><ele>276.0</ele><time>2026-05-03T11:40:38.117Z</time></trkpt><trkpt lat="43.6450982" lon="11.2984713"><ele>276.0</ele><time>2026-05-03T11:40:39.114Z</time></trkpt><trkpt lat="43.6451157" lon="11.2983743"><ele>276.0</ele><time>2026-05-03T11:40:40.113Z</time></trkpt><trkpt lat="43.6451263" lon="11.2982801"><ele>276.0</ele><time>2026-05-03T11:40:41.114Z</time></trkpt><trkpt lat="43.6451367" lon="11.2981662"><ele>276.0</ele><time>2026-05-03T11:40:42.114Z</time></trkpt><trkpt lat="43.645146" lon="11.29801"><ele>277.0</ele><time>2026-05-03T11:40:44.115Z</time></trkpt><trkpt lat="43.6451669" lon="11.2978806"><ele>278.0</ele><time>2026-05-03T11:40:46.121Z</time></trkpt><trkpt lat="43.6451924" lon="11.2977844"><ele>279.0</ele><time>2026-05-03T11:40:47.116Z</time></trkpt><trkpt lat="43.6451662" lon="11.2977016"><ele>280.0</ele><time>2026-05-03T11:40:48.118Z</time></trkpt><trkpt lat="43.6451558" lon="11.2976061"><ele>281.0</ele><time>2026-05-03T11:40:49.115Z</time></trkpt><trkpt lat="43.645136" lon="11.2974457"><ele>282.0</ele><time>2026-05-03T11:40:51.114Z</time></trkpt><trkpt lat="43.6451489" lon="11.2973214"><ele>282.6</ele><time>2026-05-03T11:40:52.117Z</time></trkpt><trkpt lat="43.6451421" lon="11.2972162"><ele>283.2</ele><time>2026-05-03T11:40:53.112Z</time></trkpt><trkpt lat="43.6451482" lon="11.2971133"><ele>283.8</ele><time>2026-05-03T11:40:54.113Z</time></trkpt><trkpt lat="43.6451649" lon="11.2969565"><ele>284.4</ele><time>2026-05-03T11:40:56.118Z</time></trkpt><trkpt lat="43.6451769" lon="11.2967718"><ele>285.0</ele><time>2026-05-03T11:40:58.119Z</time></trkpt><trkpt lat="43.645187" lon="11.2966572"><ele>285.0</ele><time>2026-05-03T11:40:59.109Z</time></trkpt><trkpt lat="43.6451867" lon="11.2965395"><ele>285.0</ele><time>2026-05-03T11:41:00.113Z</time></trkpt><trkpt lat="43.6451903" lon="11.296429"><ele>285.0</ele><time>2026-05-03T11:41:01.113Z</time></trkpt><trkpt lat="43.6451929" lon="11.2962492"><ele>285.0</ele><time>2026-05-03T11:41:03.112Z</time></trkpt><trkpt lat="43.6451887" lon="11.2961606"><ele>285.0</ele><time>2026-05-03T11:41:04.114Z</time></trkpt><trkpt lat="43.6451419" lon="11.2960258"><ele>285.2</ele><time>2026-05-03T11:41:06.12Z</time></trkpt><trkpt lat="43.6451185" lon="11.2958797"><ele>285.4</ele><time>2026-05-03T11:41:08.114Z</time></trkpt><trkpt lat="43.6451336" lon="11.2957153"><ele>285.6</ele><time>2026-05-03T11:41:10.117Z</time></trkpt><trkpt lat="43.6450827" lon="11.2955877"><ele>285.8</ele><time>2026-05-03T11:41:12.113Z</time></trkpt><trkpt lat="43.6450109" lon="11.2954685"><ele>286.0</ele><time>2026-05-03T11:41:14.112Z</time></trkpt><trkpt lat="43.6449915" lon="11.2953624"><ele>286.0</ele><time>2026-05-03T11:41:16.119Z</time></trkpt><trkpt lat="43.6449384" lon="11.2953002"><ele>286.0</ele><time>2026-05-03T11:41:18.114Z</time></trkpt><trkpt lat="43.6448698" lon="11.2952385"><ele>286.0</ele><time>2026-05-03T11:41:20.115Z</time></trkpt><trkpt lat="43.644817" lon="11.2951727"><ele>286.0</ele><time>2026-05-03T11:41:21.118Z</time></trkpt><trkpt lat="43.6447726" lon="11.2950315"><ele>286.0</ele><time>2026-05-03T11:41:23.111Z</time></trkpt><trkpt lat="43.6447153" lon="11.2949084"><ele>286.0</ele><time>2026-05-03T11:41:25.114Z</time></trkpt><trkpt lat="43.6446548" lon="11.2948355"><ele>286.0</ele><time>2026-05-03T11:41:27.117Z</time></trkpt><trkpt lat="43.6445925" lon="11.2947839"><ele>286.0</ele><time>2026-05-03T11:41:29.116Z</time></trkpt><trkpt lat="43.644535" lon="11.2947182"><ele>286.0</ele><time>2026-05-03T11:41:32.121Z</time></trkpt><trkpt lat="43.6444664" lon="11.2946517"><ele>286.0</ele><time>2026-05-03T11:41:58.113Z</time></trkpt><trkpt lat="43.6443568" lon="11.2945647"><ele>286.0</ele><time>2026-05-03T11:42:00.119Z</time></trkpt><trkpt lat="43.6442928" lon="11.2945152"><ele>286.0</ele><time>2026-05-03T11:42:01.114Z</time></trkpt><trkpt lat="43.6442247" lon="11.2944596"><ele>286.5</ele><time>2026-05-03T11:42:02.111Z</time></trkpt><trkpt lat="43.6441536" lon="11.2943899"><ele>287.0</ele><time>2026-05-03T11:42:03.11Z</time></trkpt><trkpt lat="43.6440778" lon="11.2943221"><ele>287.5</ele><time>2026-05-03T11:42:04.114Z</time></trkpt><trkpt lat="43.6440084" lon="11.2942633"><ele>288.0</ele><time>2026-05-03T11:42:05.115Z</time></trkpt><trkpt lat="43.6439406" lon="11.2942014"><ele>288.5</ele><time>2026-05-03T11:42:06.116Z</time></trkpt><trkpt lat="43.6438715" lon="11.2941461"><ele>289.0</ele><time>2026-05-03T11:42:07.114Z</time></trkpt><trkpt lat="43.6437967" lon="11.2940773"><ele>289.0</ele><time>2026-05-03T11:42:08.114Z</time></trkpt><trkpt lat="43.6437289" lon="11.2940096"><ele>289.0</ele><time>2026-05-03T11:42:09.114Z</time></trkpt><trkpt lat="43.6436582" lon="11.2939481"><ele>289.0</ele><time>2026-05-03T11:42:10.116Z</time></trkpt><trkpt lat="43.6435894" lon="11.2938734"><ele>289.0</ele><time>2026-05-03T11:42:11.111Z</time></trkpt><trkpt lat="43.643517" lon="11.2937996"><ele>289.0</ele><time>2026-05-03T11:42:12.109Z</time></trkpt><trkpt lat="43.6434373" lon="11.2937194"><ele>289.0</ele><time>2026-05-03T11:42:13.117Z</time></trkpt><trkpt lat="43.6433645" lon="11.2936485"><ele>288.42857142857144</ele><time>2026-05-03T11:42:14.111Z</time></trkpt><trkpt lat="43.6432946" lon="11.2935705"><ele>287.85714285714283</ele><time>2026-05-03T11:42:15.116Z</time></trkpt><trkpt lat="43.6432341" lon="11.2935051"><ele>287.2857142857143</ele><time>2026-05-03T11:42:16.117Z</time></trkpt><trkpt lat="43.6431762" lon="11.2934481"><ele>286.7142857142857</ele><time>2026-05-03T11:42:17.115Z</time></trkpt><trkpt lat="43.6431283" lon="11.2933813"><ele>286.14285714285717</ele><time>2026-05-03T11:42:18.115Z</time></trkpt><trkpt lat="43.6430869" lon="11.2933071"><ele>285.57142857142856</ele><time>2026-05-03T11:42:19.113Z</time></trkpt><trkpt lat="43.6430586" lon="11.2932285"><ele>285.0</ele><time>2026-05-03T11:42:20.116Z</time></trkpt><trkpt lat="43.643041" lon="11.2931326"><ele>284.3333333333333</ele><time>2026-05-03T11:42:21.123Z</time></trkpt><trkpt lat="43.6430256" lon="11.293037"><ele>283.6666666666667</ele><time>2026-05-03T11:42:22.111Z</time></trkpt><trkpt lat="43.643018" lon="11.2929315"><ele>283.0</ele><time>2026-05-03T11:42:23.111Z</time></trkpt><trkpt lat="43.6430052" lon="11.2928314"><ele>282.33333333333337</ele><time>2026-05-03T11:42:24.116Z</time></trkpt><trkpt lat="43.64299" lon="11.2927091"><ele>281.6666666666667</ele><time>2026-05-03T11:42:25.112Z</time></trkpt><trkpt lat="43.6429659" lon="11.2925326"><ele>281.0</ele><time>2026-05-03T11:42:27.111Z</time></trkpt><trkpt lat="43.6429381" lon="11.292432"><ele>281.0</ele><time>2026-05-03T11:42:28.11Z</time></trkpt><trkpt lat="43.6429261" lon="11.2923433"><ele>281.0</ele><time>2026-05-03T11:42:29.11Z</time></trkpt><trkpt lat="43.6429045" lon="11.2922481"><ele>281.0</ele><time>2026-05-03T11:42:30.11Z</time></trkpt><trkpt lat="43.6428868" lon="11.2920738"><ele>281.0</ele><time>2026-05-03T11:42:32.111Z</time></trkpt><trkpt lat="43.6428814" lon="11.291984"><ele>281.0</ele><time>2026-05-03T11:42:33.113Z</time></trkpt><trkpt lat="43.6428682" lon="11.291881"><ele>281.0</ele><time>2026-05-03T11:42:34.113Z</time></trkpt><trkpt lat="43.6428578" lon="11.29179"><ele>279.7142857142857</ele><time>2026-05-03T11:42:35.109Z</time></trkpt><trkpt lat="43.6428469" lon="11.291699"><ele>278.42857142857144</ele><time>2026-05-03T11:42:36.115Z</time></trkpt><trkpt lat="43.6428259" lon="11.2916016"><ele>277.1428571428571</ele><time>2026-05-03T11:42:37.109Z</time></trkpt><trkpt lat="43.6428147" lon="11.291501"><ele>275.8571428571429</ele><time>2026-05-03T11:42:38.112Z</time></trkpt><trkpt lat="43.6427967" lon="11.2914064"><ele>274.57142857142856</ele><time>2026-05-03T11:42:39.115Z</time></trkpt><trkpt lat="43.642779" lon="11.2913186"><ele>273.2857142857143</ele><time>2026-05-03T11:42:40.109Z</time></trkpt><trkpt lat="43.642764" lon="11.2912323"><ele>272.0</ele><time>2026-05-03T11:42:41.113Z</time></trkpt><trkpt lat="43.6427479" lon="11.2911366"><ele>271.83333333333337</ele><time>2026-05-03T11:42:42.113Z</time></trkpt><trkpt lat="43.6427335" lon="11.2910325"><ele>271.6666666666667</ele><time>2026-05-03T11:42:43.116Z</time></trkpt><trkpt lat="43.6427134" lon="11.2909246"><ele>271.5</ele><time>2026-05-03T11:42:44.111Z</time></trkpt><trkpt lat="43.642707" lon="11.2908205"><ele>271.3333333333333</ele><time>2026-05-03T11:42:45.117Z</time></trkpt><trkpt lat="43.6426927" lon="11.2907323"><ele>271.16666666666663</ele><time>2026-05-03T11:42:46.11Z</time></trkpt><trkpt lat="43.6426788" lon="11.2905874"><ele>271.0</ele><time>2026-05-03T11:42:48.114Z</time></trkpt><trkpt lat="43.6426598" lon="11.2904703"><ele>270.2</ele><time>2026-05-03T11:42:50.117Z</time></trkpt><trkpt lat="43.6426394" lon="11.2903391"><ele>269.40000000000003</ele><time>2026-05-03T11:42:52.112Z</time></trkpt><trkpt lat="43.6426267" lon="11.2901816"><ele>268.6</ele><time>2026-05-03T11:42:54.108Z</time></trkpt><trkpt lat="43.6426157" lon="11.2900934"><ele>267.8</ele><time>2026-05-03T11:42:55.117Z</time></trkpt><trkpt lat="43.6426014" lon="11.2899945"><ele>267.0</ele><time>2026-05-03T11:42:56.115Z</time></trkpt><trkpt lat="43.6425761" lon="11.2898115"><ele>266.5</ele><time>2026-05-03T11:42:58.115Z</time></trkpt><trkpt lat="43.6425607" lon="11.2897102"><ele>266.0</ele><time>2026-05-03T11:42:59.118Z</time></trkpt><trkpt lat="43.6425468" lon="11.2895974"><ele>265.5</ele><time>2026-05-03T11:43:00.113Z</time></trkpt><trkpt lat="43.6425307" lon="11.2894748"><ele>265.0</ele><time>2026-05-03T11:43:01.114Z</time></trkpt><trkpt lat="43.6425154" lon="11.2893572"><ele>264.5</ele><time>2026-05-03T11:43:02.127Z</time></trkpt><trkpt lat="43.6424845" lon="11.2892333"><ele>264.0</ele><time>2026-05-03T11:43:03.111Z</time></trkpt><trkpt lat="43.6424746" lon="11.289102"><ele>264.0</ele><time>2026-05-03T11:43:04.124Z</time></trkpt><trkpt lat="43.6424527" lon="11.2889698"><ele>264.0</ele><time>2026-05-03T11:43:05.112Z</time></trkpt><trkpt lat="43.6424296" lon="11.2888387"><ele>264.0</ele><time>2026-05-03T11:43:06.113Z</time></trkpt><trkpt lat="43.6424138" lon="11.2887072"><ele>264.0</ele><time>2026-05-03T11:43:07.115Z</time></trkpt><trkpt lat="43.6423994" lon="11.2885746"><ele>264.0</ele><time>2026-05-03T11:43:08.111Z</time></trkpt><trkpt lat="43.6423943" lon="11.2884514"><ele>263.2</ele><time>2026-05-03T11:43:09.112Z</time></trkpt><trkpt lat="43.6423834" lon="11.2883205"><ele>262.4</ele><time>2026-05-03T11:43:10.117Z</time></trkpt><trkpt lat="43.642385" lon="11.2881814"><ele>261.6</ele><time>2026-05-03T11:43:11.115Z</time></trkpt><trkpt lat="43.6423774" lon="11.2880422"><ele>260.8</ele><time>2026-05-03T11:43:12.113Z</time></trkpt><trkpt lat="43.6423483" lon="11.2878921"><ele>260.0</ele><time>2026-05-03T11:43:13.112Z</time></trkpt><trkpt lat="43.6423205" lon="11.2877351"><ele>259.0</ele><time>2026-05-03T11:43:14.109Z</time></trkpt><trkpt lat="43.6422853" lon="11.2875965"><ele>258.0</ele><time>2026-05-03T11:43:15.116Z</time></trkpt><trkpt lat="43.6422623" lon="11.28746"><ele>257.0</ele><time>2026-05-03T11:43:16.116Z</time></trkpt><trkpt lat="43.6422369" lon="11.2873276"><ele>256.0</ele><time>2026-05-03T11:43:17.116Z</time></trkpt><trkpt lat="43.6422161" lon="11.2871986"><ele>255.0</ele><time>2026-05-03T11:43:18.115Z</time></trkpt><trkpt lat="43.642208" lon="11.2870831"><ele>254.66666666666666</ele><time>2026-05-03T11:43:19.113Z</time></trkpt><trkpt lat="43.6421924" lon="11.2869677"><ele>254.33333333333331</ele><time>2026-05-03T11:43:20.116Z</time></trkpt><trkpt lat="43.6421774" lon="11.2868537"><ele>254.0</ele><time>2026-05-03T11:43:21.113Z</time></trkpt><trkpt lat="43.6421629" lon="11.2867524"><ele>253.66666666666666</ele><time>2026-05-03T11:43:22.111Z</time></trkpt><trkpt lat="43.6421481" lon="11.2866527"><ele>253.33333333333331</ele><time>2026-05-03T11:43:23.111Z</time></trkpt><trkpt lat="43.6421286" lon="11.2865385"><ele>253.0</ele><time>2026-05-03T11:43:24.118Z</time></trkpt><trkpt lat="43.6421222" lon="11.2864313"><ele>252.49999999999997</ele><time>2026-05-03T11:43:25.116Z</time></trkpt><trkpt lat="43.642101" lon="11.2863247"><ele>252.0</ele><time>2026-05-03T11:43:26.112Z</time></trkpt><trkpt lat="43.6420906" lon="11.286219"><ele>251.5</ele><time>2026-05-03T11:43:27.109Z</time></trkpt><trkpt lat="43.6420755" lon="11.2861005"><ele>251.0</ele><time>2026-05-03T11:43:28.11Z</time></trkpt><trkpt lat="43.642061" lon="11.2859774"><ele>250.49999999999997</ele><time>2026-05-03T11:43:29.113Z</time></trkpt><trkpt lat="43.6420484" lon="11.285859"><ele>250.0</ele><time>2026-05-03T11:43:30.116Z</time></trkpt><trkpt lat="43.6420356" lon="11.2857442"><ele>249.99999999999997</ele><time>2026-05-03T11:43:31.113Z</time></trkpt><trkpt lat="43.6420169" lon="11.2856242"><ele>250.0</ele><time>2026-05-03T11:43:32.112Z</time></trkpt><trkpt lat="43.6419982" lon="11.2855091"><ele>250.0</ele><time>2026-05-03T11:43:33.116Z</time></trkpt><trkpt lat="43.6419892" lon="11.2853949"><ele>250.0</ele><time>2026-05-03T11:43:34.115Z</time></trkpt><trkpt lat="43.6419792" lon="11.2852774"><ele>249.99999999999997</ele><time>2026-05-03T11:43:35.114Z</time></trkpt><trkpt lat="43.641975" lon="11.2851758"><ele>250.0</ele><time>2026-05-03T11:43:36.115Z</time></trkpt><trkpt lat="43.6419786" lon="11.2850776"><ele>249.49999999999997</ele><time>2026-05-03T11:43:37.111Z</time></trkpt><trkpt lat="43.6419854" lon="11.284972"><ele>249.0</ele><time>2026-05-03T11:43:38.11Z</time></trkpt><trkpt lat="43.6419971" lon="11.2848573"><ele>248.5</ele><time>2026-05-03T11:43:39.114Z</time></trkpt><trkpt lat="43.6420066" lon="11.284752"><ele>248.0</ele><time>2026-05-03T11:43:40.111Z</time></trkpt><trkpt lat="43.6420233" lon="11.2846371"><ele>247.49999999999997</ele><time>2026-05-03T11:43:41.112Z</time></trkpt><trkpt lat="43.6420381" lon="11.2845139"><ele>247.0</ele><time>2026-05-03T11:43:42.113Z</time></trkpt><trkpt lat="43.6420467" lon="11.2843863"><ele>246.99999999999997</ele><time>2026-05-03T11:43:43.111Z</time></trkpt><trkpt lat="43.6420601" lon="11.2842609"><ele>247.0</ele><time>2026-05-03T11:43:44.11Z</time></trkpt><trkpt lat="43.6420698" lon="11.2841401"><ele>247.0</ele><time>2026-05-03T11:43:45.111Z</time></trkpt><trkpt lat="43.6420763" lon="11.2840132"><ele>247.0</ele><time>2026-05-03T11:43:46.113Z</time></trkpt><trkpt lat="43.6420786" lon="11.2839074"><ele>246.99999999999997</ele><time>2026-05-03T11:43:47.115Z</time></trkpt><trkpt lat="43.6420837" lon="11.2838092"><ele>247.0</ele><time>2026-05-03T11:43:48.116Z</time></trkpt><trkpt lat="43.6420724" lon="11.2837178"><ele>247.66666666666666</ele><time>2026-05-03T11:43:49.109Z</time></trkpt><trkpt lat="43.6420764" lon="11.2835565"><ele>248.33333333333331</ele><time>2026-05-03T11:43:51.112Z</time></trkpt><trkpt lat="43.6420733" lon="11.2834412"><ele>249.0</ele><time>2026-05-03T11:43:53.11Z</time></trkpt><trkpt lat="43.6420704" lon="11.283351"><ele>249.66666666666669</ele><time>2026-05-03T11:43:55.11Z</time></trkpt><trkpt lat="43.642042" lon="11.2832527"><ele>250.33333333333334</ele><time>2026-05-03T11:43:58.117Z</time></trkpt><trkpt lat="43.6420132" lon="11.2831308"><ele>251.0</ele><time>2026-05-03T11:44:01.111Z</time></trkpt><trkpt lat="43.6420338" lon="11.2830474"><ele>251.0</ele><time>2026-05-03T11:44:05.026Z</time></trkpt><trkpt lat="43.6420557" lon="11.2829321"><ele>251.00000000000003</ele><time>2026-05-03T11:44:08.113Z</time></trkpt><trkpt lat="43.6421616" lon="11.2828659"><ele>251.00000000000003</ele><time>2026-05-03T11:44:10.114Z</time></trkpt><trkpt lat="43.6422437" lon="11.2827726"><ele>251.0</ele><time>2026-05-03T11:44:12.114Z</time></trkpt><trkpt lat="43.6423061" lon="11.2826859"><ele>251.0</ele><time>2026-05-03T11:44:14.128Z</time></trkpt><trkpt lat="43.6423592" lon="11.282575"><ele>251.00000000000003</ele><time>2026-05-03T11:44:16.111Z</time></trkpt><trkpt lat="43.6424285" lon="11.2824737"><ele>251.0</ele><time>2026-05-03T11:44:18.126Z</time></trkpt><trkpt lat="43.642479" lon="11.282421"><ele>251.0</ele><time>2026-05-03T11:44:19.12Z</time></trkpt><trkpt lat="43.6425322" lon="11.2823499"><ele>251.0</ele><time>2026-05-03T11:44:20.111Z</time></trkpt><trkpt lat="43.6425856" lon="11.282267"><ele>251.00000000000003</ele><time>2026-05-03T11:44:21.116Z</time></trkpt><trkpt lat="43.6426267" lon="11.2821903"><ele>251.0</ele><time>2026-05-03T11:44:22.113Z</time></trkpt><trkpt lat="43.6426443" lon="11.2820165"><ele>250.16666666666669</ele><time>2026-05-03T11:44:24.112Z</time></trkpt><trkpt lat="43.6426473" lon="11.2819182"><ele>249.33333333333334</ele><time>2026-05-03T11:44:25.112Z</time></trkpt><trkpt lat="43.6426474" lon="11.2818006"><ele>248.5</ele><time>2026-05-03T11:44:26.112Z</time></trkpt><trkpt lat="43.6426467" lon="11.2816975"><ele>247.66666666666669</ele><time>2026-05-03T11:44:27.113Z</time></trkpt><trkpt lat="43.6426406" lon="11.2815933"><ele>246.83333333333334</ele><time>2026-05-03T11:44:28.112Z</time></trkpt><trkpt lat="43.6426167" lon="11.2814718"><ele>246.0</ele><time>2026-05-03T11:44:29.109Z</time></trkpt><trkpt lat="43.6425778" lon="11.2813611"><ele>244.83333333333334</ele><time>2026-05-03T11:44:30.114Z</time></trkpt><trkpt lat="43.6425603" lon="11.2812591"><ele>243.66666666666669</ele><time>2026-05-03T11:44:31.112Z</time></trkpt><trkpt lat="43.642541" lon="11.2811396"><ele>242.5</ele><time>2026-05-03T11:44:32.11Z</time></trkpt><trkpt lat="43.6425183" lon="11.2810093"><ele>241.33333333333334</ele><time>2026-05-03T11:44:33.111Z</time></trkpt><trkpt lat="43.642495" lon="11.280886"><ele>240.16666666666669</ele><time>2026-05-03T11:44:34.115Z</time></trkpt><trkpt lat="43.6424725" lon="11.2807808"><ele>239.0</ele><time>2026-05-03T11:44:35.114Z</time></trkpt><trkpt lat="43.6424447" lon="11.2806775"><ele>238.16666666666669</ele><time>2026-05-03T11:44:36.113Z</time></trkpt><trkpt lat="43.6424167" lon="11.2805675"><ele>237.33333333333334</ele><time>2026-05-03T11:44:37.112Z</time></trkpt><trkpt lat="43.6423948" lon="11.2804483"><ele>236.5</ele><time>2026-05-03T11:44:38.118Z</time></trkpt><trkpt lat="43.6423718" lon="11.280325"><ele>235.66666666666669</ele><time>2026-05-03T11:44:39.116Z</time></trkpt><trkpt lat="43.6423754" lon="11.2802032"><ele>234.83333333333334</ele><time>2026-05-03T11:44:40.111Z</time></trkpt><trkpt lat="43.642359" lon="11.2800919"><ele>234.0</ele><time>2026-05-03T11:44:41.118Z</time></trkpt><trkpt lat="43.6423384" lon="11.2799816"><ele>234.0</ele><time>2026-05-03T11:44:42.113Z</time></trkpt><trkpt lat="43.6423179" lon="11.2798705"><ele>234.0</ele><time>2026-05-03T11:44:43.115Z</time></trkpt><trkpt lat="43.642294" lon="11.279764"><ele>234.0</ele><time>2026-05-03T11:44:44.115Z</time></trkpt><trkpt lat="43.6422659" lon="11.2796546"><ele>234.0</ele><time>2026-05-03T11:44:45.115Z</time></trkpt><trkpt lat="43.6422448" lon="11.2795523"><ele>234.0</ele><time>2026-05-03T11:44:46.111Z</time></trkpt><trkpt lat="43.64222" lon="11.2794488"><ele>234.0</ele><time>2026-05-03T11:44:47.113Z</time></trkpt><trkpt lat="43.6421994" lon="11.2793509"><ele>234.33333333333334</ele><time>2026-05-03T11:44:48.117Z</time></trkpt><trkpt lat="43.6421785" lon="11.2792569"><ele>234.66666666666669</ele><time>2026-05-03T11:44:49.117Z</time></trkpt><trkpt lat="43.6421673" lon="11.2791664"><ele>235.0</ele><time>2026-05-03T11:44:50.11Z</time></trkpt><trkpt lat="43.6421392" lon="11.2790138"><ele>235.33333333333334</ele><time>2026-05-03T11:44:52.113Z</time></trkpt><trkpt lat="43.6421022" lon="11.2789012"><ele>235.66666666666669</ele><time>2026-05-03T11:44:54.115Z</time></trkpt><trkpt lat="43.6420977" lon="11.2787665"><ele>236.0</ele><time>2026-05-03T11:44:56.116Z</time></trkpt><trkpt lat="43.6421301" lon="11.278681"><ele>236.0</ele><time>2026-05-03T11:45:02.109Z</time></trkpt><trkpt lat="43.6421798" lon="11.2785493"><ele>236.00000000000003</ele><time>2026-05-03T11:45:05.112Z</time></trkpt><trkpt lat="43.6422305" lon="11.2784026"><ele>236.00000000000003</ele><time>2026-05-03T11:45:07.112Z</time></trkpt><trkpt lat="43.642287" lon="11.2782723"><ele>236.0</ele><time>2026-05-03T11:45:09.112Z</time></trkpt><trkpt lat="43.6423241" lon="11.2781767"><ele>236.0</ele><time>2026-05-03T11:45:12.11Z</time></trkpt><trkpt lat="43.642328" lon="11.2780734"><ele>237.8</ele><time>2026-05-03T11:45:15.108Z</time></trkpt><trkpt lat="43.6423084" lon="11.2779495"><ele>239.60000000000002</ele><time>2026-05-03T11:45:18.11Z</time></trkpt><trkpt lat="43.6423278" lon="11.2778046"><ele>241.4</ele><time>2026-05-03T11:45:20.109Z</time></trkpt><trkpt lat="43.6423966" lon="11.2776642"><ele>243.2</ele><time>2026-05-03T11:45:22.114Z</time></trkpt><trkpt lat="43.6424437" lon="11.2775613"><ele>245.0</ele><time>2026-05-03T11:45:23.112Z</time></trkpt><trkpt lat="43.642478" lon="11.2774688"><ele>245.0</ele><time>2026-05-03T11:45:24.108Z</time></trkpt><trkpt lat="43.6425187" lon="11.2773246"><ele>245.0</ele><time>2026-05-03T11:45:26.112Z</time></trkpt><trkpt lat="43.6425491" lon="11.2772407"><ele>245.0</ele><time>2026-05-03T11:45:27.112Z</time></trkpt><trkpt lat="43.6425936" lon="11.2771008"><ele>245.0</ele><time>2026-05-03T11:45:29.108Z</time></trkpt><trkpt lat="43.6426464" lon="11.2769733"><ele>245.0</ele><time>2026-05-03T11:45:31.113Z</time></trkpt><trkpt lat="43.6426839" lon="11.2768987"><ele>244.66666666666669</ele><time>2026-05-03T11:45:33.111Z</time></trkpt><trkpt lat="43.6427013" lon="11.2767828"><ele>244.33333333333334</ele><time>2026-05-03T11:45:39.109Z</time></trkpt><trkpt lat="43.6427563" lon="11.2767001"><ele>244.0</ele><time>2026-05-03T11:45:42.112Z</time></trkpt><trkpt lat="43.642808" lon="11.2766449"><ele>243.66666666666669</ele><time>2026-05-03T11:45:50.118Z</time></trkpt><trkpt lat="43.642824" lon="11.2765607"><ele>243.33333333333334</ele><time>2026-05-03T11:47:35.118Z</time></trkpt><trkpt lat="43.6429246" lon="11.2765601"><ele>243.0</ele><time>2026-05-03T11:48:52.112Z</time></trkpt><trkpt lat="43.6429907" lon="11.276496"><ele>242.0</ele><time>2026-05-03T11:48:54.117Z</time></trkpt><trkpt lat="43.6430586" lon="11.2763984"><ele>241.0</ele><time>2026-05-03T11:48:57.113Z</time></trkpt><trkpt lat="43.6430997" lon="11.2763071"><ele>240.0</ele><time>2026-05-03T11:48:59.111Z</time></trkpt><trkpt lat="43.6431599" lon="11.2762018"><ele>239.0</ele><time>2026-05-03T11:49:01.108Z</time></trkpt><trkpt lat="43.6432096" lon="11.2761262"><ele>238.0</ele><time>2026-05-03T11:49:03.108Z</time></trkpt><trkpt lat="43.6432495" lon="11.2760427"><ele>237.0</ele><time>2026-05-03T11:49:05.11Z</time></trkpt><trkpt lat="43.6432767" lon="11.275964"><ele>237.0</ele><time>2026-05-03T11:49:08.109Z</time></trkpt><trkpt lat="43.6433271" lon="11.2758839"><ele>237.0</ele><time>2026-05-03T11:49:11.109Z</time></trkpt><trkpt lat="43.6433911" lon="11.275778"><ele>237.0</ele><time>2026-05-03T11:49:13.109Z</time></trkpt><trkpt lat="43.6434518" lon="11.2756904"><ele>237.0</ele><time>2026-05-03T11:49:14.108Z</time></trkpt><trkpt lat="43.6435099" lon="11.2756202"><ele>237.0</ele><time>2026-05-03T11:49:15.114Z</time></trkpt><trkpt lat="43.6435593" lon="11.2755584"><ele>237.0</ele><time>2026-05-03T11:49:16.11Z</time></trkpt><trkpt lat="43.6436135" lon="11.2754967"><ele>236.83333333333334</ele><time>2026-05-03T11:49:17.113Z</time></trkpt><trkpt lat="43.6436641" lon="11.2754243"><ele>236.66666666666669</ele><time>2026-05-03T11:49:18.109Z</time></trkpt><trkpt lat="43.6437132" lon="11.2753497"><ele>236.5</ele><time>2026-05-03T11:49:19.117Z</time></trkpt><trkpt lat="43.6437622" lon="11.2752761"><ele>236.33333333333334</ele><time>2026-05-03T11:49:20.114Z</time></trkpt><trkpt lat="43.6438057" lon="11.2751883"><ele>236.16666666666669</ele><time>2026-05-03T11:49:21.112Z</time></trkpt><trkpt lat="43.6438664" lon="11.2750212"><ele>236.0</ele><time>2026-05-03T11:49:23.112Z</time></trkpt><trkpt lat="43.6438982" lon="11.2749095"><ele>236.0</ele><time>2026-05-03T11:49:24.109Z</time></trkpt><trkpt lat="43.6439368" lon="11.2747995"><ele>236.00000000000003</ele><time>2026-05-03T11:49:25.113Z</time></trkpt><trkpt lat="43.6440185" lon="11.2746431"><ele>236.00000000000003</ele><time>2026-05-03T11:49:27.108Z</time></trkpt><trkpt lat="43.6440609" lon="11.2745546"><ele>236.0</ele><time>2026-05-03T11:49:28.117Z</time></trkpt><trkpt lat="43.64411" lon="11.2744093"><ele>236.0</ele><time>2026-05-03T11:49:30.11Z</time></trkpt><trkpt lat="43.6441448" lon="11.2743017"><ele>236.20000000000002</ele><time>2026-05-03T11:49:32.109Z</time></trkpt><trkpt lat="43.6441694" lon="11.2742065"><ele>236.40000000000003</ele><time>2026-05-03T11:50:14.111Z</time></trkpt><trkpt lat="43.644175" lon="11.2740462"><ele>236.6</ele><time>2026-05-03T11:50:16.118Z</time></trkpt><trkpt lat="43.6441849" lon="11.2739598"><ele>236.8</ele><time>2026-05-03T11:50:17.108Z</time></trkpt><trkpt lat="43.6441909" lon="11.2737936"><ele>237.0</ele><time>2026-05-03T11:50:19.121Z</time></trkpt><trkpt lat="43.6442405" lon="11.273698"><ele>235.33333333333334</ele><time>2026-05-03T11:50:21.108Z</time></trkpt><trkpt lat="43.6442858" lon="11.2736346"><ele>233.66666666666669</ele><time>2026-05-03T11:50:23.113Z</time></trkpt><trkpt lat="43.6443186" lon="11.2735537"><ele>232.0</ele><time>2026-05-03T11:50:25.116Z</time></trkpt><trkpt lat="43.6443142" lon="11.2734599"><ele>230.33333333333334</ele><time>2026-05-03T11:50:27.109Z</time></trkpt><trkpt lat="43.6443019" lon="11.2733349"><ele>228.66666666666669</ele><time>2026-05-03T11:50:30.109Z</time></trkpt><trkpt lat="43.6443593" lon="11.2732598"><ele>227.0</ele><time>2026-05-03T11:50:32.114Z</time></trkpt><trkpt lat="43.6444317" lon="11.2731957"><ele>225.0</ele><time>2026-05-03T11:50:34.118Z</time></trkpt><trkpt lat="43.6444944" lon="11.2731051"><ele>223.0</ele><time>2026-05-03T11:50:36.108Z</time></trkpt><trkpt lat="43.6445502" lon="11.2729722"><ele>221.0</ele><time>2026-05-03T11:50:38.111Z</time></trkpt><trkpt lat="43.6446075" lon="11.2728136"><ele>219.0</ele><time>2026-05-03T11:50:40.113Z</time></trkpt><trkpt lat="43.6446404" lon="11.2727333"><ele>217.0</ele><time>2026-05-03T11:50:41.114Z</time></trkpt><trkpt lat="43.6446662" lon="11.2726439"><ele>217.0</ele><time>2026-05-03T11:50:42.112Z</time></trkpt><trkpt lat="43.6446924" lon="11.2725577"><ele>217.0</ele><time>2026-05-03T11:50:43.113Z</time></trkpt><trkpt lat="43.6447187" lon="11.2724676"><ele>217.0</ele><time>2026-05-03T11:50:44.117Z</time></trkpt><trkpt lat="43.644744" lon="11.2723739"><ele>217.0</ele><time>2026-05-03T11:50:45.113Z</time></trkpt><trkpt lat="43.6447695" lon="11.2722809"><ele>217.0</ele><time>2026-05-03T11:50:46.111Z</time></trkpt><trkpt lat="43.644797" lon="11.2721808"><ele>217.0</ele><time>2026-05-03T11:50:47.139Z</time></trkpt><trkpt lat="43.6448318" lon="11.2720773"><ele>217.0</ele><time>2026-05-03T11:50:48.113Z</time></trkpt><trkpt lat="43.6448762" lon="11.2719694"><ele>215.49999999999997</ele><time>2026-05-03T11:50:49.113Z</time></trkpt><trkpt lat="43.6449196" lon="11.2718545"><ele>214.0</ele><time>2026-05-03T11:50:50.109Z</time></trkpt><trkpt lat="43.6449655" lon="11.271739"><ele>212.5</ele><time>2026-05-03T11:50:51.12Z</time></trkpt><trkpt lat="43.6449979" lon="11.2716268"><ele>211.0</ele><time>2026-05-03T11:50:52.117Z</time></trkpt><trkpt lat="43.6450171" lon="11.271513"><ele>209.49999999999997</ele><time>2026-05-03T11:50:53.109Z</time></trkpt><trkpt lat="43.6450362" lon="11.271399"><ele>208.0</ele><time>2026-05-03T11:50:54.108Z</time></trkpt><trkpt lat="43.645052" lon="11.2712713"><ele>206.8</ele><time>2026-05-03T11:50:55.107Z</time></trkpt><trkpt lat="43.6450738" lon="11.2711749"><ele>205.60000000000002</ele><time>2026-05-03T11:50:56.107Z</time></trkpt><trkpt lat="43.645094" lon="11.2710068"><ele>204.39999999999998</ele><time>2026-05-03T11:50:58.107Z</time></trkpt><trkpt lat="43.645118" lon="11.2708441"><ele>203.2</ele><time>2026-05-03T11:51:00.111Z</time></trkpt><trkpt lat="43.6451517" lon="11.2706885"><ele>202.0</ele><time>2026-05-03T11:51:02.112Z</time></trkpt><trkpt lat="43.6452106" lon="11.2705378"><ele>201.14285714285714</ele><time>2026-05-03T11:51:04.108Z</time></trkpt><trkpt lat="43.6452431" lon="11.2704586"><ele>200.28571428571428</ele><time>2026-05-03T11:51:05.112Z</time></trkpt><trkpt lat="43.6452917" lon="11.2703637"><ele>199.42857142857144</ele><time>2026-05-03T11:51:06.121Z</time></trkpt><trkpt lat="43.6453278" lon="11.2702848"><ele>198.57142857142856</ele><time>2026-05-03T11:51:07.111Z</time></trkpt><trkpt lat="43.6453443" lon="11.2701888"><ele>197.71428571428572</ele><time>2026-05-03T11:51:08.112Z</time></trkpt><trkpt lat="43.6453682" lon="11.270095"><ele>196.85714285714286</ele><time>2026-05-03T11:51:09.11Z</time></trkpt><trkpt lat="43.6453816" lon="11.269995"><ele>196.0</ele><time>2026-05-03T11:51:10.117Z</time></trkpt><trkpt lat="43.6454017" lon="11.2699094"><ele>195.99999999999997</ele><time>2026-05-03T11:51:11.108Z</time></trkpt><trkpt lat="43.6454315" lon="11.2698246"><ele>196.0</ele><time>2026-05-03T11:51:12.11Z</time></trkpt><trkpt lat="43.6454628" lon="11.2697469"><ele>196.0</ele><time>2026-05-03T11:51:13.113Z</time></trkpt><trkpt lat="43.6455187" lon="11.2696387"><ele>196.0</ele><time>2026-05-03T11:51:15.113Z</time></trkpt><trkpt lat="43.6455831" lon="11.2695672"><ele>195.99999999999997</ele><time>2026-05-03T11:51:17.11Z</time></trkpt><trkpt lat="43.6456517" lon="11.269483"><ele>196.0</ele><time>2026-05-03T11:51:19.109Z</time></trkpt><trkpt lat="43.6457243" lon="11.2694179"><ele>194.49999999999997</ele><time>2026-05-03T11:51:21.113Z</time></trkpt><trkpt lat="43.6457905" lon="11.2693897"><ele>193.0</ele><time>2026-05-03T11:51:22.113Z</time></trkpt><trkpt lat="43.6458598" lon="11.2693693"><ele>191.5</ele><time>2026-05-03T11:51:23.107Z</time></trkpt><trkpt lat="43.6459447" lon="11.2693312"><ele>190.0</ele><time>2026-05-03T11:51:25.107Z</time></trkpt><trkpt lat="43.6460087" lon="11.269294"><ele>188.5</ele><time>2026-05-03T11:51:26.11Z</time></trkpt><trkpt lat="43.6461168" lon="11.2692044"><ele>187.0</ele><time>2026-05-03T11:51:28.111Z</time></trkpt><trkpt lat="43.6461654" lon="11.2691393"><ele>186.16666666666669</ele><time>2026-05-03T11:51:29.113Z</time></trkpt><trkpt lat="43.6462152" lon="11.2690779"><ele>185.33333333333334</ele><time>2026-05-03T11:51:30.112Z</time></trkpt><trkpt lat="43.6462564" lon="11.2690063"><ele>184.5</ele><time>2026-05-03T11:51:31.106Z</time></trkpt><trkpt lat="43.6463066" lon="11.2689334"><ele>183.66666666666666</ele><time>2026-05-03T11:51:32.115Z</time></trkpt><trkpt lat="43.6463503" lon="11.2688521"><ele>182.83333333333331</ele><time>2026-05-03T11:51:33.112Z</time></trkpt><trkpt lat="43.6464348" lon="11.2687088"><ele>182.0</ele><time>2026-05-03T11:51:35.117Z</time></trkpt><trkpt lat="43.646491" lon="11.2686444"><ele>181.39999999999998</ele><time>2026-05-03T11:51:36.11Z</time></trkpt><trkpt lat="43.6465489" lon="11.2686043"><ele>180.79999999999998</ele><time>2026-05-03T11:51:37.107Z</time></trkpt><trkpt lat="43.6466337" lon="11.2685089"><ele>180.2</ele><time>2026-05-03T11:51:39.111Z</time></trkpt><trkpt lat="43.6466782" lon="11.2683521"><ele>179.6</ele><time>2026-05-03T11:51:41.12Z</time></trkpt><trkpt lat="43.6467179" lon="11.2682234"><ele>179.0</ele><time>2026-05-03T11:51:43.111Z</time></trkpt><trkpt lat="43.6467364" lon="11.2681297"><ele>178.66666666666666</ele><time>2026-05-03T11:51:45.12Z</time></trkpt><trkpt lat="43.6467951" lon="11.2680353"><ele>178.33333333333331</ele><time>2026-05-03T11:52:37.113Z</time></trkpt><trkpt lat="43.6468369" lon="11.2679464"><ele>178.0</ele><time>2026-05-03T11:52:38.115Z</time></trkpt><trkpt lat="43.6468881" lon="11.2678425"><ele>177.66666666666666</ele><time>2026-05-03T11:52:39.11Z</time></trkpt><trkpt lat="43.6469374" lon="11.2677297"><ele>177.33333333333334</ele><time>2026-05-03T11:52:40.112Z</time></trkpt><trkpt lat="43.6469702" lon="11.2676353"><ele>177.0</ele><time>2026-05-03T11:52:41.11Z</time></trkpt><trkpt lat="43.6470061" lon="11.2675321"><ele>175.83333333333334</ele><time>2026-05-03T11:52:42.109Z</time></trkpt><trkpt lat="43.6470382" lon="11.2674375"><ele>174.66666666666666</ele><time>2026-05-03T11:52:43.11Z</time></trkpt><trkpt lat="43.6470685" lon="11.2673592"><ele>173.5</ele><time>2026-05-03T11:52:44.113Z</time></trkpt><trkpt lat="43.6470892" lon="11.2672695"><ele>172.33333333333331</ele><time>2026-05-03T11:52:45.108Z</time></trkpt><trkpt lat="43.6471157" lon="11.2671627"><ele>171.16666666666666</ele><time>2026-05-03T11:52:46.108Z</time></trkpt><trkpt lat="43.6471458" lon="11.2670619"><ele>170.0</ele><time>2026-05-03T11:52:47.112Z</time></trkpt><trkpt lat="43.6471838" lon="11.2669537"><ele>170.0</ele><time>2026-05-03T11:52:48.106Z</time></trkpt><trkpt lat="43.6472245" lon="11.2668611"><ele>170.0</ele><time>2026-05-03T11:52:49.108Z</time></trkpt><trkpt lat="43.6472467" lon="11.2667055"><ele>170.0</ele><time>2026-05-03T11:52:51.105Z</time></trkpt><trkpt lat="43.6472697" lon="11.2665415"><ele>170.0</ele><time>2026-05-03T11:52:53.113Z</time></trkpt><trkpt lat="43.6472542" lon="11.2664513"><ele>170.0</ele><time>2026-05-03T11:52:54.107Z</time></trkpt><trkpt lat="43.6472378" lon="11.2663643"><ele>170.0</ele><time>2026-05-03T11:52:55.115Z</time></trkpt><trkpt lat="43.6472223" lon="11.2662547"><ele>168.8</ele><time>2026-05-03T11:52:57.114Z</time></trkpt><trkpt lat="43.6472876" lon="11.2661656"><ele>167.6</ele><time>2026-05-03T11:53:26.111Z</time></trkpt><trkpt lat="43.6473553" lon="11.2660315"><ele>166.39999999999998</ele><time>2026-05-03T11:53:28.12Z</time></trkpt><trkpt lat="43.6474129" lon="11.2658809"><ele>165.2</ele><time>2026-05-03T11:53:30.115Z</time></trkpt><trkpt lat="43.647451" lon="11.2657364"><ele>164.0</ele><time>2026-05-03T11:53:32.109Z</time></trkpt><trkpt lat="43.6475069" lon="11.26561"><ele>162.66666666666666</ele><time>2026-05-03T11:53:34.108Z</time></trkpt><trkpt lat="43.6475655" lon="11.2655173"><ele>161.33333333333331</ele><time>2026-05-03T11:53:36.113Z</time></trkpt><trkpt lat="43.6476233" lon="11.2654464"><ele>160.0</ele><time>2026-05-03T11:53:38.111Z</time></trkpt><trkpt lat="43.6476667" lon="11.2653667"><ele>158.66666666666666</ele><time>2026-05-03T11:53:40.106Z</time></trkpt><trkpt lat="43.6476928" lon="11.2652756"><ele>157.33333333333334</ele><time>2026-05-03T11:53:42.109Z</time></trkpt><trkpt lat="43.6477475" lon="11.2651957"><ele>156.0</ele><time>2026-05-03T11:53:44.11Z</time></trkpt><trkpt lat="43.6478371" lon="11.26511"><ele>155.6</ele><time>2026-05-03T11:53:46.113Z</time></trkpt><trkpt lat="43.6479244" lon="11.2650412"><ele>155.2</ele><time>2026-05-03T11:53:48.109Z</time></trkpt><trkpt lat="43.6480076" lon="11.264968"><ele>154.8</ele><time>2026-05-03T11:53:50.106Z</time></trkpt><trkpt lat="43.6480626" lon="11.264878"><ele>154.4</ele><time>2026-05-03T11:53:52.107Z</time></trkpt><trkpt lat="43.6480854" lon="11.2647787"><ele>154.0</ele><time>2026-05-03T11:53:54.105Z</time></trkpt><trkpt lat="43.6480828" lon="11.2646424"><ele>153.0</ele><time>2026-05-03T11:53:57.109Z</time></trkpt><trkpt lat="43.6480543" lon="11.2645473"><ele>152.0</ele><time>2026-05-03T11:53:59.108Z</time></trkpt><trkpt lat="43.6480127" lon="11.2644775"><ele>151.0</ele><time>2026-05-03T11:54:01.11Z</time></trkpt><trkpt lat="43.6479976" lon="11.2643911"><ele>150.0</ele><time>2026-05-03T11:54:03.111Z</time></trkpt><trkpt lat="43.6480543" lon="11.2642773"><ele>149.0</ele><time>2026-05-03T11:54:06.11Z</time></trkpt><trkpt lat="43.6481294" lon="11.2642319"><ele>148.0</ele><time>2026-05-03T11:54:07.124Z</time></trkpt><trkpt lat="43.6482264" lon="11.2641073"><ele>148.0</ele><time>2026-05-03T11:54:09.114Z</time></trkpt><trkpt lat="43.6482528" lon="11.264025"><ele>148.0</ele><time>2026-05-03T11:54:10.113Z</time></trkpt><trkpt lat="43.6482851" lon="11.2639443"><ele>148.0</ele><time>2026-05-03T11:54:11.112Z</time></trkpt><trkpt lat="43.6483318" lon="11.2638492"><ele>148.0</ele><time>2026-05-03T11:54:12.109Z</time></trkpt><trkpt lat="43.6483657" lon="11.2637657"><ele>148.0</ele><time>2026-05-03T11:54:13.108Z</time></trkpt><trkpt lat="43.6483917" lon="11.2636807"><ele>148.0</ele><time>2026-05-03T11:54:14.114Z</time></trkpt><trkpt lat="43.6484248" lon="11.2635762"><ele>148.0</ele><time>2026-05-03T11:54:15.11Z</time></trkpt><trkpt lat="43.6484479" lon="11.2634781"><ele>147.16666666666669</ele><time>2026-05-03T11:54:16.108Z</time></trkpt><trkpt lat="43.6484681" lon="11.2633925"><ele>146.33333333333334</ele><time>2026-05-03T11:54:17.109Z</time></trkpt><trkpt lat="43.6484912" lon="11.2632963"><ele>145.5</ele><time>2026-05-03T11:54:18.109Z</time></trkpt><trkpt lat="43.6485032" lon="11.2632078"><ele>144.66666666666666</ele><time>2026-05-03T11:54:19.116Z</time></trkpt><trkpt lat="43.6485156" lon="11.2631059"><ele>143.83333333333331</ele><time>2026-05-03T11:54:20.11Z</time></trkpt><trkpt lat="43.6485437" lon="11.2629845"><ele>143.0</ele><time>2026-05-03T11:54:22.113Z</time></trkpt><trkpt lat="43.648519" lon="11.2628309"><ele>142.8</ele><time>2026-05-03T11:54:50.115Z</time></trkpt><trkpt lat="43.6485287" lon="11.2627426"><ele>142.60000000000002</ele><time>2026-05-03T11:54:51.107Z</time></trkpt><trkpt lat="43.6484973" lon="11.262568"><ele>142.39999999999998</ele><time>2026-05-03T11:54:52.123Z</time></trkpt><trkpt lat="43.6484795" lon="11.2624377"><ele>142.2</ele><time>2026-05-03T11:54:53.111Z</time></trkpt><trkpt lat="43.648454" lon="11.2622784"><ele>142.0</ele><time>2026-05-03T11:54:54.112Z</time></trkpt><trkpt lat="43.6484463" lon="11.2621121"><ele>142.0</ele><time>2026-05-03T11:54:55.12Z</time></trkpt><trkpt lat="43.6484419" lon="11.2619833"><ele>142.0</ele><time>2026-05-03T11:54:56.107Z</time></trkpt><trkpt lat="43.6484449" lon="11.2618695"><ele>142.0</ele><time>2026-05-03T11:54:57.115Z</time></trkpt><trkpt lat="43.6484444" lon="11.2617392"><ele>142.0</ele><time>2026-05-03T11:54:58.112Z</time></trkpt><trkpt lat="43.6484504" lon="11.2616236"><ele>142.0</ele><time>2026-05-03T11:55:00.112Z</time></trkpt><trkpt lat="43.6484095" lon="11.2615284"><ele>142.0</ele><time>2026-05-03T11:55:02.108Z</time></trkpt><trkpt lat="43.648349" lon="11.2614824"><ele>142.0</ele><time>2026-05-03T11:55:12.106Z</time></trkpt><trkpt lat="43.6483248" lon="11.2613492"><ele>142.0</ele><time>2026-05-03T11:55:14.105Z</time></trkpt><trkpt lat="43.6483118" lon="11.2612509"><ele>142.0</ele><time>2026-05-03T11:55:15.109Z</time></trkpt><trkpt lat="43.6483024" lon="11.2611308"><ele>142.0</ele><time>2026-05-03T11:55:16.112Z</time></trkpt><trkpt lat="43.6482917" lon="11.2610095"><ele>142.0</ele><time>2026-05-03T11:55:17.11Z</time></trkpt><trkpt lat="43.6482847" lon="11.2608938"><ele>142.0</ele><time>2026-05-03T11:55:18.12Z</time></trkpt><trkpt lat="43.6482727" lon="11.2607628"><ele>142.0</ele><time>2026-05-03T11:55:19.11Z</time></trkpt><trkpt lat="43.6482652" lon="11.2606481"><ele>142.0</ele><time>2026-05-03T11:55:20.114Z</time></trkpt><trkpt lat="43.6482528" lon="11.2605248"><ele>142.0</ele><time>2026-05-03T11:55:21.118Z</time></trkpt><trkpt lat="43.6482475" lon="11.2603979"><ele>142.0</ele><time>2026-05-03T11:55:22.109Z</time></trkpt><trkpt lat="43.64826" lon="11.2602819"><ele>142.0</ele><time>2026-05-03T11:55:23.11Z</time></trkpt><trkpt lat="43.648275" lon="11.2601558"><ele>142.0</ele><time>2026-05-03T11:55:24.111Z</time></trkpt><trkpt lat="43.6483056" lon="11.2600412"><ele>141.79999999999998</ele><time>2026-05-03T11:55:25.112Z</time></trkpt><trkpt lat="43.6483528" lon="11.2599282"><ele>141.6</ele><time>2026-05-03T11:55:26.112Z</time></trkpt><trkpt lat="43.6484095" lon="11.2598279"><ele>141.39999999999998</ele><time>2026-05-03T11:55:27.116Z</time></trkpt><trkpt lat="43.6484739" lon="11.2597379"><ele>141.2</ele><time>2026-05-03T11:55:28.111Z</time></trkpt><trkpt lat="43.6485207" lon="11.2596506"><ele>141.0</ele><time>2026-05-03T11:55:29.106Z</time></trkpt><trkpt lat="43.6486158" lon="11.2596213"><ele>140.6</ele><time>2026-05-03T11:55:30.108Z</time></trkpt><trkpt lat="43.6487068" lon="11.2595892"><ele>140.2</ele><time>2026-05-03T11:55:31.108Z</time></trkpt><trkpt lat="43.6488045" lon="11.2595713"><ele>139.8</ele><time>2026-05-03T11:55:32.113Z</time></trkpt><trkpt lat="43.648912" lon="11.2595653"><ele>139.4</ele><time>2026-05-03T11:55:33.118Z</time></trkpt><trkpt lat="43.6490211" lon="11.2595607"><ele>139.0</ele><time>2026-05-03T11:55:34.124Z</time></trkpt><trkpt lat="43.6491211" lon="11.2595762"><ele>139.0</ele><time>2026-05-03T11:55:35.107Z</time></trkpt><trkpt lat="43.6492133" lon="11.259577"><ele>139.0</ele><time>2026-05-03T11:55:36.109Z</time></trkpt><trkpt lat="43.6492944" lon="11.2595833"><ele>139.0</ele><time>2026-05-03T11:55:37.111Z</time></trkpt><trkpt lat="43.6493988" lon="11.2595903"><ele>139.0</ele><time>2026-05-03T11:55:38.108Z</time></trkpt><trkpt lat="43.6494738" lon="11.2596035"><ele>139.0</ele><time>2026-05-03T11:55:39.113Z</time></trkpt><trkpt lat="43.6495548" lon="11.2595959"><ele>139.0</ele><time>2026-05-03T11:55:40.111Z</time></trkpt><trkpt lat="43.6496632" lon="11.2595951"><ele>138.83333333333334</ele><time>2026-05-03T11:55:41.113Z</time></trkpt><trkpt lat="43.6497439" lon="11.2595974"><ele>138.66666666666669</ele><time>2026-05-03T11:55:42.11Z</time></trkpt><trkpt lat="43.6498288" lon="11.2596057"><ele>138.5</ele><time>2026-05-03T11:55:43.111Z</time></trkpt><trkpt lat="43.6499267" lon="11.2596288"><ele>138.33333333333334</ele><time>2026-05-03T11:55:44.116Z</time></trkpt><trkpt lat="43.6500046" lon="11.2596332"><ele>138.16666666666666</ele><time>2026-05-03T11:55:45.109Z</time></trkpt><trkpt lat="43.6500822" lon="11.2596357"><ele>138.0</ele><time>2026-05-03T11:55:46.109Z</time></trkpt><trkpt lat="43.6502223" lon="11.2595542"><ele>137.83333333333334</ele><time>2026-05-03T11:55:48.107Z</time></trkpt><trkpt lat="43.6502989" lon="11.2594582"><ele>137.66666666666666</ele><time>2026-05-03T11:55:49.108Z</time></trkpt><trkpt lat="43.650376" lon="11.2593917"><ele>137.5</ele><time>2026-05-03T11:55:50.107Z</time></trkpt><trkpt lat="43.6504356" lon="11.2593154"><ele>137.33333333333331</ele><time>2026-05-03T11:55:51.11Z</time></trkpt><trkpt lat="43.6504817" lon="11.2592445"><ele>137.16666666666666</ele><time>2026-05-03T11:55:52.106Z</time></trkpt><trkpt lat="43.6505615" lon="11.2591597"><ele>137.0</ele><time>2026-05-03T11:55:53.111Z</time></trkpt><trkpt lat="43.6506175" lon="11.2590741"><ele>137.0</ele><time>2026-05-03T11:55:54.114Z</time></trkpt><trkpt lat="43.6506683" lon="11.2589878"><ele>137.0</ele><time>2026-05-03T11:55:55.108Z</time></trkpt><trkpt lat="43.6507373" lon="11.25892"><ele>137.0</ele><time>2026-05-03T11:55:56.11Z</time></trkpt><trkpt lat="43.6508165" lon="11.2588653"><ele>137.0</ele><time>2026-05-03T11:55:57.112Z</time></trkpt><trkpt lat="43.6508866" lon="11.2588127"><ele>137.0</ele><time>2026-05-03T11:55:58.117Z</time></trkpt><trkpt lat="43.6509727" lon="11.2587564"><ele>137.0</ele><time>2026-05-03T11:55:59.11Z</time></trkpt><trkpt lat="43.651053" lon="11.2587076"><ele>136.5</ele><time>2026-05-03T11:56:00.116Z</time></trkpt><trkpt lat="43.6511438" lon="11.2586681"><ele>136.0</ele><time>2026-05-03T11:56:01.113Z</time></trkpt><trkpt lat="43.6512338" lon="11.2586447"><ele>135.5</ele><time>2026-05-03T11:56:02.113Z</time></trkpt><trkpt lat="43.6513161" lon="11.2586211"><ele>135.0</ele><time>2026-05-03T11:56:03.109Z</time></trkpt><trkpt lat="43.6514068" lon="11.2586052"><ele>134.5</ele><time>2026-05-03T11:56:04.108Z</time></trkpt><trkpt lat="43.6514883" lon="11.2585809"><ele>134.0</ele><time>2026-05-03T11:56:05.109Z</time></trkpt><trkpt lat="43.6515776" lon="11.2585916"><ele>134.0</ele><time>2026-05-03T11:56:06.106Z</time></trkpt><trkpt lat="43.6516588" lon="11.2585781"><ele>134.0</ele><time>2026-05-03T11:56:07.11Z</time></trkpt><trkpt lat="43.6517646" lon="11.2586027"><ele>134.0</ele><time>2026-05-03T11:56:08.111Z</time></trkpt><trkpt lat="43.6518508" lon="11.2586017"><ele>134.0</ele><time>2026-05-03T11:56:09.116Z</time></trkpt><trkpt lat="43.6519308" lon="11.258611"><ele>134.0</ele><time>2026-05-03T11:56:10.112Z</time></trkpt><trkpt lat="43.6520125" lon="11.2586104"><ele>134.0</ele><time>2026-05-03T11:56:11.114Z</time></trkpt><trkpt lat="43.6520976" lon="11.2586166"><ele>134.0</ele><time>2026-05-03T11:56:12.111Z</time></trkpt><trkpt lat="43.6521775" lon="11.2586195"><ele>134.0</ele><time>2026-05-03T11:56:13.111Z</time></trkpt><trkpt lat="43.6522638" lon="11.258626"><ele>134.0</ele><time>2026-05-03T11:56:14.118Z</time></trkpt><trkpt lat="43.6523569" lon="11.2586362"><ele>134.0</ele><time>2026-05-03T11:56:15.115Z</time></trkpt><trkpt lat="43.6524421" lon="11.2586439"><ele>134.0</ele><time>2026-05-03T11:56:16.111Z</time></trkpt><trkpt lat="43.6525454" lon="11.2586704"><ele>134.0</ele><time>2026-05-03T11:56:17.112Z</time></trkpt><trkpt lat="43.6526307" lon="11.258678"><ele>134.0</ele><time>2026-05-03T11:56:18.106Z</time></trkpt><trkpt lat="43.6527077" lon="11.2586939"><ele>134.0</ele><time>2026-05-03T11:56:19.113Z</time></trkpt><trkpt lat="43.6528263" lon="11.2587178"><ele>134.0</ele><time>2026-05-03T11:56:20.111Z</time></trkpt><trkpt lat="43.652929" lon="11.2587322"><ele>134.0</ele><time>2026-05-03T11:56:21.108Z</time></trkpt><trkpt lat="43.6530203" lon="11.2587402"><ele>134.16666666666666</ele><time>2026-05-03T11:56:22.118Z</time></trkpt><trkpt lat="43.653111" lon="11.2587443"><ele>134.33333333333331</ele><time>2026-05-03T11:56:23.108Z</time></trkpt><trkpt lat="43.6532127" lon="11.2587437"><ele>134.5</ele><time>2026-05-03T11:56:24.11Z</time></trkpt><trkpt lat="43.6532963" lon="11.2587308"><ele>134.66666666666666</ele><time>2026-05-03T11:56:25.119Z</time></trkpt><trkpt lat="43.6533708" lon="11.2587176"><ele>134.83333333333334</ele><time>2026-05-03T11:56:26.106Z</time></trkpt><trkpt lat="43.6534543" lon="11.258691"><ele>135.0</ele><time>2026-05-03T11:56:27.107Z</time></trkpt><trkpt lat="43.6535364" lon="11.2586394"><ele>135.6</ele><time>2026-05-03T11:56:28.108Z</time></trkpt><trkpt lat="43.6536286" lon="11.2586057"><ele>136.2</ele><time>2026-05-03T11:56:29.107Z</time></trkpt><trkpt lat="43.6537268" lon="11.2585695"><ele>136.8</ele><time>2026-05-03T11:56:30.11Z</time></trkpt><trkpt lat="43.6538176" lon="11.2585285"><ele>137.4</ele><time>2026-05-03T11:56:31.105Z</time></trkpt><trkpt lat="43.6539014" lon="11.2584826"><ele>138.0</ele><time>2026-05-03T11:56:32.112Z</time></trkpt><trkpt lat="43.6539683" lon="11.2584434"><ele>138.0</ele><time>2026-05-03T11:56:33.109Z</time></trkpt><trkpt lat="43.6540484" lon="11.2584041"><ele>138.0</ele><time>2026-05-03T11:56:34.108Z</time></trkpt><trkpt lat="43.6541358" lon="11.2583687"><ele>138.0</ele><time>2026-05-03T11:56:35.108Z</time></trkpt><trkpt lat="43.6542225" lon="11.2583397"><ele>138.0</ele><time>2026-05-03T11:56:36.107Z</time></trkpt><trkpt lat="43.6543111" lon="11.2582993"><ele>138.0</ele><time>2026-05-03T11:56:37.11Z</time></trkpt><trkpt lat="43.6543991" lon="11.258281"><ele>138.0</ele><time>2026-05-03T11:56:38.107Z</time></trkpt><trkpt lat="43.6544825" lon="11.2582651"><ele>138.0</ele><time>2026-05-03T11:56:39.106Z</time></trkpt><trkpt lat="43.6545683" lon="11.2582667"><ele>138.0</ele><time>2026-05-03T11:56:40.108Z</time></trkpt><trkpt lat="43.6546583" lon="11.2582554"><ele>138.0</ele><time>2026-05-03T11:56:41.118Z</time></trkpt><trkpt lat="43.6547502" lon="11.2582511"><ele>138.0</ele><time>2026-05-03T11:56:42.105Z</time></trkpt><trkpt lat="43.65484" lon="11.2582419"><ele>138.0</ele><time>2026-05-03T11:56:43.11Z</time></trkpt><trkpt lat="43.6549346" lon="11.2582281"><ele>138.0</ele><time>2026-05-03T11:56:44.114Z</time></trkpt><trkpt lat="43.6550159" lon="11.2581923"><ele>138.0</ele><time>2026-05-03T11:56:45.107Z</time></trkpt><trkpt lat="43.6550941" lon="11.2581388"><ele>138.0</ele><time>2026-05-03T11:56:46.105Z</time></trkpt><trkpt lat="43.6551714" lon="11.2580863"><ele>138.0</ele><time>2026-05-03T11:56:47.113Z</time></trkpt><trkpt lat="43.6552508" lon="11.258025"><ele>138.0</ele><time>2026-05-03T11:56:48.108Z</time></trkpt><trkpt lat="43.6553353" lon="11.2579785"><ele>138.0</ele><time>2026-05-03T11:56:49.112Z</time></trkpt><trkpt lat="43.6554195" lon="11.2579595"><ele>137.16666666666666</ele><time>2026-05-03T11:56:50.108Z</time></trkpt><trkpt lat="43.655505" lon="11.2579479"><ele>136.33333333333334</ele><time>2026-05-03T11:56:51.11Z</time></trkpt><trkpt lat="43.6555895" lon="11.2579366"><ele>135.5</ele><time>2026-05-03T11:56:52.11Z</time></trkpt><trkpt lat="43.6556837" lon="11.2579457"><ele>134.66666666666669</ele><time>2026-05-03T11:56:53.107Z</time></trkpt><trkpt lat="43.6557607" lon="11.25796"><ele>133.83333333333334</ele><time>2026-05-03T11:56:54.111Z</time></trkpt><trkpt lat="43.6558489" lon="11.25797"><ele>133.0</ele><time>2026-05-03T11:56:55.105Z</time></trkpt><trkpt lat="43.6559467" lon="11.2579978"><ele>133.0</ele><time>2026-05-03T11:56:56.114Z</time></trkpt><trkpt lat="43.6560545" lon="11.2580062"><ele>133.0</ele><time>2026-05-03T11:56:57.108Z</time></trkpt><trkpt lat="43.6561563" lon="11.2580182"><ele>133.0</ele><time>2026-05-03T11:56:58.109Z</time></trkpt><trkpt lat="43.6562596" lon="11.2580317"><ele>133.0</ele><time>2026-05-03T11:56:59.105Z</time></trkpt><trkpt lat="43.6563711" lon="11.2580695"><ele>133.0</ele><time>2026-05-03T11:57:00.112Z</time></trkpt><trkpt lat="43.6564798" lon="11.258099"><ele>132.6</ele><time>2026-05-03T11:57:01.104Z</time></trkpt><trkpt lat="43.6566076" lon="11.2581333"><ele>132.20000000000002</ele><time>2026-05-03T11:57:02.107Z</time></trkpt><trkpt lat="43.6567246" lon="11.2581705"><ele>131.8</ele><time>2026-05-03T11:57:03.11Z</time></trkpt><trkpt lat="43.6568158" lon="11.2582168"><ele>131.4</ele><time>2026-05-03T11:57:04.11Z</time></trkpt><trkpt lat="43.6569042" lon="11.2582636"><ele>131.0</ele><time>2026-05-03T11:57:05.104Z</time></trkpt><trkpt lat="43.6569849" lon="11.2583072"><ele>131.0</ele><time>2026-05-03T11:57:06.109Z</time></trkpt><trkpt lat="43.6571139" lon="11.2583594"><ele>131.0</ele><time>2026-05-03T11:57:08.111Z</time></trkpt><trkpt lat="43.657191" lon="11.2583638"><ele>131.0</ele><time>2026-05-03T11:57:09.107Z</time></trkpt><trkpt lat="43.6572701" lon="11.2583564"><ele>131.0</ele><time>2026-05-03T11:57:10.105Z</time></trkpt><trkpt lat="43.6573417" lon="11.2583537"><ele>131.0</ele><time>2026-05-03T11:57:11.12Z</time></trkpt><trkpt lat="43.657411" lon="11.2583457"><ele>131.0</ele><time>2026-05-03T11:57:12.108Z</time></trkpt><trkpt lat="43.6575246" lon="11.2583128"><ele>131.0</ele><time>2026-05-03T11:57:14.108Z</time></trkpt><trkpt lat="43.6576326" lon="11.2582683"><ele>131.0</ele><time>2026-05-03T11:57:16.11Z</time></trkpt><trkpt lat="43.6577009" lon="11.2582387"><ele>131.0</ele><time>2026-05-03T11:57:17.112Z</time></trkpt><trkpt lat="43.6578203" lon="11.2581892"><ele>131.0</ele><time>2026-05-03T11:57:19.112Z</time></trkpt><trkpt lat="43.6578846" lon="11.2581611"><ele>131.0</ele><time>2026-05-03T11:57:20.107Z</time></trkpt><trkpt lat="43.6579988" lon="11.2581047"><ele>131.2</ele><time>2026-05-03T11:57:22.108Z</time></trkpt><trkpt lat="43.6581026" lon="11.2580349"><ele>131.39999999999998</ele><time>2026-05-03T11:57:24.105Z</time></trkpt><trkpt lat="43.6581888" lon="11.2579487"><ele>131.6</ele><time>2026-05-03T11:57:26.108Z</time></trkpt><trkpt lat="43.6582528" lon="11.2578703"><ele>131.79999999999998</ele><time>2026-05-03T11:57:28.11Z</time></trkpt><trkpt lat="43.6583142" lon="11.2578107"><ele>132.0</ele><time>2026-05-03T11:57:30.107Z</time></trkpt><trkpt lat="43.6583889" lon="11.2575659"><ele>132.0</ele><time>2026-05-03T12:02:04.104Z</time></trkpt><trkpt lat="43.6584606" lon="11.257487"><ele>132.0</ele><time>2026-05-03T12:02:05.114Z</time></trkpt><trkpt lat="43.6585412" lon="11.257418"><ele>132.0</ele><time>2026-05-03T12:02:06.11Z</time></trkpt><trkpt lat="43.6586235" lon="11.2573121"><ele>132.0</ele><time>2026-05-03T12:02:07.108Z</time></trkpt><trkpt lat="43.6587083" lon="11.257196"><ele>132.0</ele><time>2026-05-03T12:02:08.116Z</time></trkpt><trkpt lat="43.6587922" lon="11.2570847"><ele>132.2</ele><time>2026-05-03T12:02:09.113Z</time></trkpt><trkpt lat="43.6588653" lon="11.2569701"><ele>132.39999999999998</ele><time>2026-05-03T12:02:10.107Z</time></trkpt><trkpt lat="43.6589253" lon="11.2568443"><ele>132.60000000000002</ele><time>2026-05-03T12:02:11.103Z</time></trkpt><trkpt lat="43.6589693" lon="11.2567152"><ele>132.8</ele><time>2026-05-03T12:02:12.106Z</time></trkpt><trkpt lat="43.6590112" lon="11.2565724"><ele>133.0</ele><time>2026-05-03T12:02:13.108Z</time></trkpt><trkpt lat="43.6590152" lon="11.2564211"><ele>133.6</ele><time>2026-05-03T12:02:14.106Z</time></trkpt><trkpt lat="43.6590308" lon="11.2562749"><ele>134.20000000000002</ele><time>2026-05-03T12:02:15.107Z</time></trkpt><trkpt lat="43.6590366" lon="11.2561357"><ele>134.8</ele><time>2026-05-03T12:02:16.109Z</time></trkpt><trkpt lat="43.6590334" lon="11.2559934"><ele>135.4</ele><time>2026-05-03T12:02:17.107Z</time></trkpt><trkpt lat="43.6590292" lon="11.2558516"><ele>136.0</ele><time>2026-05-03T12:02:18.108Z</time></trkpt><trkpt lat="43.6590207" lon="11.2557056"><ele>135.8</ele><time>2026-05-03T12:02:19.107Z</time></trkpt><trkpt lat="43.6590182" lon="11.255556"><ele>135.6</ele><time>2026-05-03T12:02:20.106Z</time></trkpt><trkpt lat="43.6590159" lon="11.2554003"><ele>135.4</ele><time>2026-05-03T12:02:21.108Z</time></trkpt><trkpt lat="43.6590014" lon="11.2552491"><ele>135.2</ele><time>2026-05-03T12:02:22.113Z</time></trkpt><trkpt lat="43.6590015" lon="11.2550976"><ele>135.0</ele><time>2026-05-03T12:02:23.106Z</time></trkpt><trkpt lat="43.6589935" lon="11.2549497"><ele>135.0</ele><time>2026-05-03T12:02:24.105Z</time></trkpt><trkpt lat="43.6590001" lon="11.254808"><ele>135.0</ele><time>2026-05-03T12:02:25.11Z</time></trkpt><trkpt lat="43.6589956" lon="11.2546472"><ele>135.0</ele><time>2026-05-03T12:02:26.105Z</time></trkpt><trkpt lat="43.6589919" lon="11.2544878"><ele>135.0</ele><time>2026-05-03T12:02:27.11Z</time></trkpt><trkpt lat="43.658972" lon="11.2543294"><ele>134.25</ele><time>2026-05-03T12:02:28.109Z</time></trkpt><trkpt lat="43.6589651" lon="11.254171"><ele>133.5</ele><time>2026-05-03T12:02:29.112Z</time></trkpt><trkpt lat="43.6589422" lon="11.2540122"><ele>132.75</ele><time>2026-05-03T12:02:30.109Z</time></trkpt><trkpt lat="43.6589326" lon="11.2538503"><ele>132.0</ele><time>2026-05-03T12:02:31.109Z</time></trkpt><trkpt lat="43.6589298" lon="11.2536882"><ele>132.0</ele><time>2026-05-03T12:02:32.105Z</time></trkpt><trkpt lat="43.6589119" lon="11.2535176"><ele>132.0</ele><time>2026-05-03T12:02:33.112Z</time></trkpt><trkpt lat="43.6589006" lon="11.2533656"><ele>132.0</ele><time>2026-05-03T12:02:34.113Z</time></trkpt><trkpt lat="43.6588945" lon="11.2531887"><ele>132.0</ele><time>2026-05-03T12:02:35.111Z</time></trkpt><trkpt lat="43.658882" lon="11.2529903"><ele>132.25</ele><time>2026-05-03T12:02:36.108Z</time></trkpt><trkpt lat="43.6588657" lon="11.2527927"><ele>132.5</ele><time>2026-05-03T12:02:37.119Z</time></trkpt><trkpt lat="43.6588565" lon="11.2525886"><ele>132.75</ele><time>2026-05-03T12:02:38.116Z</time></trkpt><trkpt lat="43.6588477" lon="11.2523842"><ele>133.0</ele><time>2026-05-03T12:02:39.108Z</time></trkpt><trkpt lat="43.6588363" lon="11.2521858"><ele>133.0</ele><time>2026-05-03T12:02:40.114Z</time></trkpt><trkpt lat="43.6588182" lon="11.2519822"><ele>133.0</ele><time>2026-05-03T12:02:41.11Z</time></trkpt><trkpt lat="43.6588149" lon="11.2517837"><ele>133.0</ele><time>2026-05-03T12:02:42.107Z</time></trkpt><trkpt lat="43.6587961" lon="11.2515855"><ele>133.0</ele><time>2026-05-03T12:02:43.107Z</time></trkpt><trkpt lat="43.6587841" lon="11.2513859"><ele>132.75</ele><time>2026-05-03T12:02:44.106Z</time></trkpt><trkpt lat="43.6587746" lon="11.2511917"><ele>132.5</ele><time>2026-05-03T12:02:45.114Z</time></trkpt><trkpt lat="43.6587499" lon="11.250998"><ele>132.25</ele><time>2026-05-03T12:02:46.113Z</time></trkpt><trkpt lat="43.6587316" lon="11.2508077"><ele>132.0</ele><time>2026-05-03T12:02:47.108Z</time></trkpt><trkpt lat="43.658704" lon="11.2506344"><ele>131.75</ele><time>2026-05-03T12:02:48.109Z</time></trkpt><trkpt lat="43.6586842" lon="11.2504551"><ele>131.5</ele><time>2026-05-03T12:02:49.11Z</time></trkpt><trkpt lat="43.6586819" lon="11.2503021"><ele>131.25</ele><time>2026-05-03T12:02:50.114Z</time></trkpt><trkpt lat="43.6586718" lon="11.2501396"><ele>131.0</ele><time>2026-05-03T12:02:51.105Z</time></trkpt><trkpt lat="43.6586655" lon="11.2499732"><ele>131.0</ele><time>2026-05-03T12:02:52.107Z</time></trkpt><trkpt lat="43.6586729" lon="11.2498218"><ele>131.0</ele><time>2026-05-03T12:02:53.108Z</time></trkpt><trkpt lat="43.6586816" lon="11.2496521"><ele>131.0</ele><time>2026-05-03T12:02:54.105Z</time></trkpt><trkpt lat="43.6587024" lon="11.2494855"><ele>131.0</ele><time>2026-05-03T12:02:55.104Z</time></trkpt><trkpt lat="43.6587178" lon="11.2493171"><ele>131.0</ele><time>2026-05-03T12:02:56.112Z</time></trkpt><trkpt lat="43.6587234" lon="11.2491475"><ele>131.0</ele><time>2026-05-03T12:02:57.108Z</time></trkpt><trkpt lat="43.6587393" lon="11.2489874"><ele>131.0</ele><time>2026-05-03T12:02:58.109Z</time></trkpt><trkpt lat="43.6587445" lon="11.2488165"><ele>131.0</ele><time>2026-05-03T12:02:59.106Z</time></trkpt><trkpt lat="43.6587561" lon="11.2486557"><ele>131.0</ele><time>2026-05-03T12:03:00.11Z</time></trkpt><trkpt lat="43.6587623" lon="11.2484961"><ele>131.0</ele><time>2026-05-03T12:03:01.109Z</time></trkpt><trkpt lat="43.6587741" lon="11.2483298"><ele>131.0</ele><time>2026-05-03T12:03:02.111Z</time></trkpt><trkpt lat="43.6587859" lon="11.2481593"><ele>131.0</ele><time>2026-05-03T12:03:03.106Z</time></trkpt><trkpt lat="43.658791" lon="11.2480089"><ele>131.0</ele><time>2026-05-03T12:03:04.106Z</time></trkpt><trkpt lat="43.6588053" lon="11.2478459"><ele>131.0</ele><time>2026-05-03T12:03:05.107Z</time></trkpt><trkpt lat="43.6588153" lon="11.2476635"><ele>131.0</ele><time>2026-05-03T12:03:06.108Z</time></trkpt><trkpt lat="43.6588342" lon="11.2474967"><ele>131.0</ele><time>2026-05-03T12:03:07.11Z</time></trkpt><trkpt lat="43.6588474" lon="11.2473243"><ele>131.0</ele><time>2026-05-03T12:03:08.106Z</time></trkpt><trkpt lat="43.6588528" lon="11.2471543"><ele>131.0</ele><time>2026-05-03T12:03:09.109Z</time></trkpt><trkpt lat="43.6588593" lon="11.2469732"><ele>131.0</ele><time>2026-05-03T12:03:10.107Z</time></trkpt><trkpt lat="43.6588713" lon="11.2468168"><ele>131.0</ele><time>2026-05-03T12:03:11.109Z</time></trkpt><trkpt lat="43.6588748" lon="11.2466562"><ele>131.0</ele><time>2026-05-03T12:03:12.106Z</time></trkpt><trkpt lat="43.6588876" lon="11.2464939"><ele>131.0</ele><time>2026-05-03T12:03:13.111Z</time></trkpt><trkpt lat="43.6588979" lon="11.2463338"><ele>131.0</ele><time>2026-05-03T12:03:14.108Z</time></trkpt><trkpt lat="43.658903" lon="11.2461739"><ele>131.0</ele><time>2026-05-03T12:03:15.106Z</time></trkpt><trkpt lat="43.6589141" lon="11.2460125"><ele>131.25</ele><time>2026-05-03T12:03:16.11Z</time></trkpt><trkpt lat="43.6589169" lon="11.2458468"><ele>131.5</ele><time>2026-05-03T12:03:17.106Z</time></trkpt><trkpt lat="43.6589251" lon="11.2456808"><ele>131.75</ele><time>2026-05-03T12:03:18.105Z</time></trkpt><trkpt lat="43.658933" lon="11.2455099"><ele>132.0</ele><time>2026-05-03T12:03:19.105Z</time></trkpt><trkpt lat="43.658935" lon="11.2453403"><ele>132.25</ele><time>2026-05-03T12:03:20.108Z</time></trkpt><trkpt lat="43.6589318" lon="11.2451697"><ele>132.5</ele><time>2026-05-03T12:03:21.109Z</time></trkpt><trkpt lat="43.658911" lon="11.2450102"><ele>132.75</ele><time>2026-05-03T12:03:22.105Z</time></trkpt><trkpt lat="43.6588757" lon="11.2448432"><ele>133.0</ele><time>2026-05-03T12:03:23.105Z</time></trkpt><trkpt lat="43.6588465" lon="11.2446824"><ele>133.0</ele><time>2026-05-03T12:03:24.11Z</time></trkpt><trkpt lat="43.6588131" lon="11.2445318"><ele>133.0</ele><time>2026-05-03T12:03:25.109Z</time></trkpt><trkpt lat="43.6587551" lon="11.2443878"><ele>133.0</ele><time>2026-05-03T12:03:26.104Z</time></trkpt><trkpt lat="43.6587025" lon="11.2442335"><ele>133.0</ele><time>2026-05-03T12:03:27.106Z</time></trkpt><trkpt lat="43.6586655" lon="11.2440984"><ele>131.25</ele><time>2026-05-03T12:03:28.106Z</time></trkpt><trkpt lat="43.6586071" lon="11.2439422"><ele>129.5</ele><time>2026-05-03T12:03:29.106Z</time></trkpt><trkpt lat="43.658558" lon="11.2437981"><ele>127.75</ele><time>2026-05-03T12:03:30.109Z</time></trkpt><trkpt lat="43.6585005" lon="11.243652"><ele>126.0</ele><time>2026-05-03T12:03:31.105Z</time></trkpt><trkpt lat="43.6584564" lon="11.2434933"><ele>126.0</ele><time>2026-05-03T12:03:32.108Z</time></trkpt><trkpt lat="43.6584073" lon="11.2433356"><ele>126.0</ele><time>2026-05-03T12:03:33.106Z</time></trkpt><trkpt lat="43.6583597" lon="11.2431666"><ele>126.0</ele><time>2026-05-03T12:03:34.105Z</time></trkpt><trkpt lat="43.6583219" lon="11.2429797"><ele>126.0</ele><time>2026-05-03T12:03:35.109Z</time></trkpt><trkpt lat="43.6582812" lon="11.2427743"><ele>126.33333333333334</ele><time>2026-05-03T12:03:36.107Z</time></trkpt><trkpt lat="43.6582608" lon="11.2425461"><ele>126.66666666666667</ele><time>2026-05-03T12:03:37.11Z</time></trkpt><trkpt lat="43.6582266" lon="11.2423233"><ele>127.0</ele><time>2026-05-03T12:03:38.112Z</time></trkpt><trkpt lat="43.6583128" lon="11.2421159"><ele>126.33333333333334</ele><time>2026-05-03T12:03:39.107Z</time></trkpt><trkpt lat="43.6583671" lon="11.2419103"><ele>125.66666666666666</ele><time>2026-05-03T12:03:40.107Z</time></trkpt><trkpt lat="43.6584489" lon="11.2417295"><ele>125.0</ele><time>2026-05-03T12:03:41.107Z</time></trkpt><trkpt lat="43.6585568" lon="11.2415768"><ele>124.0</ele><time>2026-05-03T12:03:42.113Z</time></trkpt><trkpt lat="43.6586796" lon="11.2414446"><ele>123.0</ele><time>2026-05-03T12:03:43.112Z</time></trkpt><trkpt lat="43.6588069" lon="11.241328"><ele>122.0</ele><time>2026-05-03T12:03:44.113Z</time></trkpt><trkpt lat="43.6589333" lon="11.2412223"><ele>122.0</ele><time>2026-05-03T12:03:45.107Z</time></trkpt><trkpt lat="43.6590571" lon="11.2411522"><ele>122.0</ele><time>2026-05-03T12:03:46.106Z</time></trkpt><trkpt lat="43.6591912" lon="11.2410839"><ele>122.0</ele><time>2026-05-03T12:03:47.106Z</time></trkpt><trkpt lat="43.6593301" lon="11.2410245"><ele>122.0</ele><time>2026-05-03T12:03:48.113Z</time></trkpt><trkpt lat="43.6594676" lon="11.2409768"><ele>122.75</ele><time>2026-05-03T12:03:49.104Z</time></trkpt><trkpt lat="43.6596108" lon="11.2409335"><ele>123.5</ele><time>2026-05-03T12:03:50.108Z</time></trkpt><trkpt lat="43.6597473" lon="11.2408945"><ele>124.25</ele><time>2026-05-03T12:03:51.107Z</time></trkpt><trkpt lat="43.6598779" lon="11.2408615"><ele>125.0</ele><time>2026-05-03T12:03:52.111Z</time></trkpt><trkpt lat="43.6600173" lon="11.2408305"><ele>125.0</ele><time>2026-05-03T12:03:53.105Z</time></trkpt><trkpt lat="43.6601477" lon="11.2408026"><ele>125.0</ele><time>2026-05-03T12:03:54.112Z</time></trkpt><trkpt lat="43.6602701" lon="11.2407697"><ele>125.0</ele><time>2026-05-03T12:03:55.105Z</time></trkpt><trkpt lat="43.6603973" lon="11.240735"><ele>125.0</ele><time>2026-05-03T12:03:56.106Z</time></trkpt><trkpt lat="43.6605223" lon="11.2407052"><ele>124.5</ele><time>2026-05-03T12:03:57.113Z</time></trkpt><trkpt lat="43.6606539" lon="11.2406783"><ele>124.0</ele><time>2026-05-03T12:03:58.108Z</time></trkpt><trkpt lat="43.6607818" lon="11.2406431"><ele>123.5</ele><time>2026-05-03T12:03:59.108Z</time></trkpt><trkpt lat="43.660918" lon="11.2406123"><ele>123.0</ele><time>2026-05-03T12:04:00.107Z</time></trkpt><trkpt lat="43.6610468" lon="11.2405918"><ele>122.75</ele><time>2026-05-03T12:04:01.113Z</time></trkpt><trkpt lat="43.6611702" lon="11.2405648"><ele>122.5</ele><time>2026-05-03T12:04:02.11Z</time></trkpt><trkpt lat="43.661298" lon="11.2405284"><ele>122.25</ele><time>2026-05-03T12:04:03.108Z</time></trkpt><trkpt lat="43.6614302" lon="11.2404943"><ele>122.0</ele><time>2026-05-03T12:04:04.11Z</time></trkpt><trkpt lat="43.6615639" lon="11.2404582"><ele>122.0</ele><time>2026-05-03T12:04:05.107Z</time></trkpt><trkpt lat="43.6616924" lon="11.2404328"><ele>122.0</ele><time>2026-05-03T12:04:06.112Z</time></trkpt><trkpt lat="43.6618211" lon="11.2403996"><ele>122.0</ele><time>2026-05-03T12:04:07.107Z</time></trkpt><trkpt lat="43.661951" lon="11.2403644"><ele>122.0</ele><time>2026-05-03T12:04:08.108Z</time></trkpt><trkpt lat="43.6620721" lon="11.240346"><ele>122.8</ele><time>2026-05-03T12:04:09.113Z</time></trkpt><trkpt lat="43.6621937" lon="11.2403162"><ele>123.6</ele><time>2026-05-03T12:04:10.107Z</time></trkpt><trkpt lat="43.6623037" lon="11.2402922"><ele>124.39999999999999</ele><time>2026-05-03T12:04:11.114Z</time></trkpt><trkpt lat="43.6624041" lon="11.240271"><ele>125.19999999999999</ele><time>2026-05-03T12:04:12.112Z</time></trkpt><trkpt lat="43.6625026" lon="11.2402419"><ele>126.0</ele><time>2026-05-03T12:04:13.11Z</time></trkpt><trkpt lat="43.662614" lon="11.2402071"><ele>126.0</ele><time>2026-05-03T12:04:14.107Z</time></trkpt><trkpt lat="43.6627218" lon="11.2402073"><ele>126.0</ele><time>2026-05-03T12:04:15.108Z</time></trkpt><trkpt lat="43.6628262" lon="11.2401961"><ele>126.0</ele><time>2026-05-03T12:04:16.112Z</time></trkpt><trkpt lat="43.662927" lon="11.2402063"><ele>126.0</ele><time>2026-05-03T12:04:17.11Z</time></trkpt><trkpt lat="43.663015" lon="11.2402093"><ele>126.0</ele><time>2026-05-03T12:04:18.111Z</time></trkpt><trkpt lat="43.6631203" lon="11.2402321"><ele>125.6</ele><time>2026-05-03T12:04:19.108Z</time></trkpt><trkpt lat="43.6632109" lon="11.240249"><ele>125.19999999999999</ele><time>2026-05-03T12:04:20.118Z</time></trkpt><trkpt lat="43.6633181" lon="11.2402917"><ele>124.80000000000001</ele><time>2026-05-03T12:04:21.111Z</time></trkpt><trkpt lat="43.6634307" lon="11.2403285"><ele>124.4</ele><time>2026-05-03T12:04:22.109Z</time></trkpt><trkpt lat="43.6635497" lon="11.240365"><ele>124.0</ele><time>2026-05-03T12:04:23.105Z</time></trkpt><trkpt lat="43.6636697" lon="11.2404233"><ele>124.33333333333334</ele><time>2026-05-03T12:04:24.107Z</time></trkpt><trkpt lat="43.6637647" lon="11.2404653"><ele>124.66666666666667</ele><time>2026-05-03T12:04:25.108Z</time></trkpt><trkpt lat="43.663869" lon="11.2405208"><ele>125.0</ele><time>2026-05-03T12:04:26.11Z</time></trkpt><trkpt lat="43.6639577" lon="11.2405812"><ele>125.33333333333334</ele><time>2026-05-03T12:04:27.109Z</time></trkpt><trkpt lat="43.6640153" lon="11.2406194"><ele>125.66666666666667</ele><time>2026-05-03T12:04:28.114Z</time></trkpt><trkpt lat="43.6640759" lon="11.2406545"><ele>126.0</ele><time>2026-05-03T12:04:29.105Z</time></trkpt><trkpt lat="43.6641779" lon="11.2406954"><ele>126.8</ele><time>2026-05-03T12:04:31.108Z</time></trkpt><trkpt lat="43.6642807" lon="11.2405823"><ele>127.6</ele><time>2026-05-03T12:05:10.11Z</time></trkpt><trkpt lat="43.6643419" lon="11.2405607"><ele>128.4</ele><time>2026-05-03T12:05:11.123Z</time></trkpt><trkpt lat="43.6644311" lon="11.2405408"><ele>129.2</ele><time>2026-05-03T12:05:12.107Z</time></trkpt><trkpt lat="43.6645027" lon="11.2405062"><ele>130.0</ele><time>2026-05-03T12:05:13.11Z</time></trkpt><trkpt lat="43.6645727" lon="11.2404184"><ele>130.0</ele><time>2026-05-03T12:05:14.105Z</time></trkpt><trkpt lat="43.6646322" lon="11.2403372"><ele>130.0</ele><time>2026-05-03T12:05:15.112Z</time></trkpt><trkpt lat="43.664673" lon="11.2402457"><ele>130.0</ele><time>2026-05-03T12:05:16.109Z</time></trkpt><trkpt lat="43.6647226" lon="11.2401321"><ele>130.0</ele><time>2026-05-03T12:05:17.107Z</time></trkpt><trkpt lat="43.6647615" lon="11.2400226"><ele>130.0</ele><time>2026-05-03T12:05:18.107Z</time></trkpt><trkpt lat="43.6647887" lon="11.2399105"><ele>130.0</ele><time>2026-05-03T12:05:19.108Z</time></trkpt><trkpt lat="43.6648252" lon="11.2397943"><ele>129.0</ele><time>2026-05-03T12:05:20.117Z</time></trkpt><trkpt lat="43.6648555" lon="11.2396783"><ele>128.0</ele><time>2026-05-03T12:05:21.114Z</time></trkpt><trkpt lat="43.6648876" lon="11.2395674"><ele>127.0</ele><time>2026-05-03T12:05:22.109Z</time></trkpt><trkpt lat="43.664919" lon="11.2394537"><ele>126.0</ele><time>2026-05-03T12:05:23.106Z</time></trkpt><trkpt lat="43.664965" lon="11.2393198"><ele>125.0</ele><time>2026-05-03T12:05:24.104Z</time></trkpt><trkpt lat="43.6649953" lon="11.2392039"><ele>125.0</ele><time>2026-05-03T12:05:25.107Z</time></trkpt><trkpt lat="43.6650351" lon="11.2390692"><ele>125.0</ele><time>2026-05-03T12:05:26.108Z</time></trkpt><trkpt lat="43.6650634" lon="11.238942"><ele>125.0</ele><time>2026-05-03T12:05:27.106Z</time></trkpt><trkpt lat="43.6650976" lon="11.2388153"><ele>125.0</ele><time>2026-05-03T12:05:28.108Z</time></trkpt><trkpt lat="43.6651258" lon="11.2386919"><ele>125.0</ele><time>2026-05-03T12:05:29.105Z</time></trkpt><trkpt lat="43.6651616" lon="11.2385592"><ele>124.2</ele><time>2026-05-03T12:05:30.108Z</time></trkpt><trkpt lat="43.6651848" lon="11.238426"><ele>123.4</ele><time>2026-05-03T12:05:31.107Z</time></trkpt><trkpt lat="43.6652188" lon="11.2383"><ele>122.6</ele><time>2026-05-03T12:05:32.104Z</time></trkpt><trkpt lat="43.6652568" lon="11.2381645"><ele>121.8</ele><time>2026-05-03T12:05:33.107Z</time></trkpt><trkpt lat="43.665297" lon="11.2380307"><ele>121.0</ele><time>2026-05-03T12:05:34.104Z</time></trkpt><trkpt lat="43.6653306" lon="11.2378898"><ele>123.4</ele><time>2026-05-03T12:05:35.111Z</time></trkpt><trkpt lat="43.6653658" lon="11.2377606"><ele>125.8</ele><time>2026-05-03T12:05:36.105Z</time></trkpt><trkpt lat="43.665401" lon="11.2376393"><ele>128.20000000000002</ele><time>2026-05-03T12:05:37.107Z</time></trkpt><trkpt lat="43.665435" lon="11.2375122"><ele>130.6</ele><time>2026-05-03T12:05:38.107Z</time></trkpt><trkpt lat="43.6654679" lon="11.2373936"><ele>133.0</ele><time>2026-05-03T12:05:39.111Z</time></trkpt><trkpt lat="43.6654965" lon="11.2372682"><ele>133.0</ele><time>2026-05-03T12:05:40.108Z</time></trkpt><trkpt lat="43.6655179" lon="11.2371541"><ele>133.0</ele><time>2026-05-03T12:05:41.109Z</time></trkpt><trkpt lat="43.6655526" lon="11.2370318"><ele>133.0</ele><time>2026-05-03T12:05:42.105Z</time></trkpt><trkpt lat="43.6655861" lon="11.2369024"><ele>133.0</ele><time>2026-05-03T12:05:43.108Z</time></trkpt><trkpt lat="43.665622" lon="11.2367744"><ele>133.0</ele><time>2026-05-03T12:05:44.112Z</time></trkpt><trkpt lat="43.665649" lon="11.2366507"><ele>133.0</ele><time>2026-05-03T12:05:45.105Z</time></trkpt><trkpt lat="43.6656997" lon="11.2365464"><ele>133.0</ele><time>2026-05-03T12:05:46.106Z</time></trkpt><trkpt lat="43.6657337" lon="11.2364199"><ele>133.0</ele><time>2026-05-03T12:05:47.107Z</time></trkpt><trkpt lat="43.6657772" lon="11.236294"><ele>133.0</ele><time>2026-05-03T12:05:48.106Z</time></trkpt><trkpt lat="43.6658012" lon="11.2361564"><ele>133.0</ele><time>2026-05-03T12:05:49.112Z</time></trkpt><trkpt lat="43.6658315" lon="11.2360187"><ele>132.20000000000002</ele><time>2026-05-03T12:05:50.111Z</time></trkpt><trkpt lat="43.6658669" lon="11.2358866"><ele>131.4</ele><time>2026-05-03T12:05:51.105Z</time></trkpt><trkpt lat="43.6658951" lon="11.2357626"><ele>130.60000000000002</ele><time>2026-05-03T12:05:52.105Z</time></trkpt><trkpt lat="43.665931" lon="11.2356323"><ele>129.8</ele><time>2026-05-03T12:05:53.117Z</time></trkpt><trkpt lat="43.6659667" lon="11.2354999"><ele>129.0</ele><time>2026-05-03T12:05:54.105Z</time></trkpt><trkpt lat="43.6659972" lon="11.2353655"><ele>130.2</ele><time>2026-05-03T12:05:55.107Z</time></trkpt><trkpt lat="43.6660367" lon="11.2352401"><ele>131.4</ele><time>2026-05-03T12:05:56.108Z</time></trkpt><trkpt lat="43.6660782" lon="11.2351054"><ele>132.6</ele><time>2026-05-03T12:05:57.105Z</time></trkpt><trkpt lat="43.666113" lon="11.2349741"><ele>133.8</ele><time>2026-05-03T12:05:58.104Z</time></trkpt><trkpt lat="43.6661445" lon="11.2348434"><ele>135.0</ele><time>2026-05-03T12:05:59.108Z</time></trkpt><trkpt lat="43.6661794" lon="11.2347167"><ele>135.0</ele><time>2026-05-03T12:06:00.109Z</time></trkpt><trkpt lat="43.6662082" lon="11.2345936"><ele>135.0</ele><time>2026-05-03T12:06:01.106Z</time></trkpt><trkpt lat="43.6662416" lon="11.2344696"><ele>135.0</ele><time>2026-05-03T12:06:02.109Z</time></trkpt><trkpt lat="43.6662709" lon="11.2343595"><ele>135.0</ele><time>2026-05-03T12:06:03.109Z</time></trkpt><trkpt lat="43.6663" lon="11.2342496"><ele>135.0</ele><time>2026-05-03T12:06:04.104Z</time></trkpt><trkpt lat="43.6663277" lon="11.2341342"><ele>135.0</ele><time>2026-05-03T12:06:05.105Z</time></trkpt><trkpt lat="43.6663567" lon="11.2340197"><ele>133.6</ele><time>2026-05-03T12:06:06.106Z</time></trkpt><trkpt lat="43.6663924" lon="11.2338897"><ele>132.2</ele><time>2026-05-03T12:06:07.106Z</time></trkpt><trkpt lat="43.66643" lon="11.2337614"><ele>130.8</ele><time>2026-05-03T12:06:08.106Z</time></trkpt><trkpt lat="43.6664466" lon="11.2336318"><ele>129.4</ele><time>2026-05-03T12:06:09.105Z</time></trkpt><trkpt lat="43.6664801" lon="11.2334986"><ele>128.0</ele><time>2026-05-03T12:06:10.107Z</time></trkpt><trkpt lat="43.6664974" lon="11.2333698"><ele>128.0</ele><time>2026-05-03T12:06:11.107Z</time></trkpt><trkpt lat="43.6665235" lon="11.2332388"><ele>128.0</ele><time>2026-05-03T12:06:12.109Z</time></trkpt><trkpt lat="43.6665232" lon="11.2330986"><ele>128.0</ele><time>2026-05-03T12:06:13.111Z</time></trkpt><trkpt lat="43.6665218" lon="11.2329617"><ele>128.0</ele><time>2026-05-03T12:06:14.109Z</time></trkpt><trkpt lat="43.6665139" lon="11.2328358"><ele>128.0</ele><time>2026-05-03T12:06:15.11Z</time></trkpt><trkpt lat="43.6665075" lon="11.232712"><ele>127.66666666666666</ele><time>2026-05-03T12:06:16.106Z</time></trkpt><trkpt lat="43.6665021" lon="11.23258"><ele>127.33333333333333</ele><time>2026-05-03T12:06:17.108Z</time></trkpt><trkpt lat="43.6665154" lon="11.2324693"><ele>127.0</ele><time>2026-05-03T12:06:18.106Z</time></trkpt><trkpt lat="43.6665154" lon="11.2323334"><ele>126.66666666666666</ele><time>2026-05-03T12:06:19.104Z</time></trkpt><trkpt lat="43.6665123" lon="11.2322172"><ele>126.33333333333333</ele><time>2026-05-03T12:06:20.112Z</time></trkpt><trkpt lat="43.666512" lon="11.2320965"><ele>126.0</ele><time>2026-05-03T12:06:21.106Z</time></trkpt><trkpt lat="43.6665014" lon="11.2319571"><ele>126.0</ele><time>2026-05-03T12:06:22.107Z</time></trkpt><trkpt lat="43.6664996" lon="11.2318348"><ele>126.0</ele><time>2026-05-03T12:06:23.107Z</time></trkpt><trkpt lat="43.666492" lon="11.2317172"><ele>126.0</ele><time>2026-05-03T12:06:24.109Z</time></trkpt><trkpt lat="43.6664883" lon="11.2316244"><ele>126.0</ele><time>2026-05-03T12:06:25.105Z</time></trkpt><trkpt lat="43.6664995" lon="11.2315236"><ele>126.0</ele><time>2026-05-03T12:06:27.106Z</time></trkpt><trkpt lat="43.6665577" lon="11.2315819"><ele>126.0</ele><time>2026-05-03T12:06:32.109Z</time></trkpt><trkpt lat="43.6665822" lon="11.2316731"><ele>126.0</ele><time>2026-05-03T12:06:34.111Z</time></trkpt><trkpt lat="43.6666237" lon="11.2317852"><ele>126.0</ele><time>2026-05-03T12:06:37.108Z</time></trkpt><trkpt lat="43.6666814" lon="11.2318652"><ele>126.0</ele><time>2026-05-03T12:06:50.11Z</time></trkpt><trkpt lat="43.6666846" lon="11.2319625"><ele>126.0</ele><time>2026-05-03T12:06:53.12Z</time></trkpt><trkpt lat="43.6667002" lon="11.23211"><ele>126.0</ele><time>2026-05-03T12:06:55.111Z</time></trkpt><trkpt lat="43.6667292" lon="11.2321933"><ele>126.0</ele><time>2026-05-03T12:06:56.107Z</time></trkpt><trkpt lat="43.6667388" lon="11.2322935"><ele>125.33333333333333</ele><time>2026-05-03T12:06:57.106Z</time></trkpt><trkpt lat="43.6667758" lon="11.232404"><ele>124.66666666666666</ele><time>2026-05-03T12:06:58.106Z</time></trkpt><trkpt lat="43.6668073" lon="11.2325074"><ele>124.0</ele><time>2026-05-03T12:06:59.114Z</time></trkpt><trkpt lat="43.6668401" lon="11.2326098"><ele>123.33333333333333</ele><time>2026-05-03T12:07:00.11Z</time></trkpt><trkpt lat="43.6669251" lon="11.2326252"><ele>122.66666666666666</ele><time>2026-05-03T12:07:01.113Z</time></trkpt><trkpt lat="43.6669769" lon="11.2327632"><ele>122.0</ele><time>2026-05-03T12:07:03.107Z</time></trkpt><trkpt lat="43.6670529" lon="11.2327489"><ele>125.39999999999999</ele><time>2026-05-03T12:07:05.105Z</time></trkpt><trkpt lat="43.6671419" lon="11.2327042"><ele>128.79999999999998</ele><time>2026-05-03T12:07:07.116Z</time></trkpt><trkpt lat="43.667137" lon="11.2325454"><ele>132.2</ele><time>2026-05-03T12:07:42.11Z</time></trkpt><trkpt lat="43.6671343" lon="11.2324187"><ele>135.6</ele><time>2026-05-03T12:07:44.105Z</time></trkpt><trkpt lat="43.6671349" lon="11.2322901"><ele>139.0</ele><time>2026-05-03T12:07:46.108Z</time></trkpt><trkpt lat="43.6671269" lon="11.2322009"><ele>141.0</ele><time>2026-05-03T12:07:47.11Z</time></trkpt><trkpt lat="43.6671565" lon="11.2320912"><ele>143.0</ele><time>2026-05-03T12:07:49.107Z</time></trkpt><trkpt lat="43.6671887" lon="11.2319942"><ele>145.0</ele><time>2026-05-03T12:07:51.113Z</time></trkpt><trkpt lat="43.6671543" lon="11.2318537"><ele>147.0</ele><time>2026-05-03T12:07:53.109Z</time></trkpt><trkpt lat="43.667143" lon="11.2317381"><ele>149.0</ele><time>2026-05-03T12:07:55.11Z</time></trkpt><trkpt lat="43.6671355" lon="11.2316098"><ele>151.0</ele><time>2026-05-03T12:07:57.104Z</time></trkpt><trkpt lat="43.6671399" lon="11.2314856"><ele>151.83333333333334</ele><time>2026-05-03T12:07:59.106Z</time></trkpt><trkpt lat="43.6671265" lon="11.2313746"><ele>152.66666666666669</ele><time>2026-05-03T12:08:01.112Z</time></trkpt><trkpt lat="43.6671263" lon="11.231279"><ele>153.5</ele><time>2026-05-03T12:08:03.106Z</time></trkpt><trkpt lat="43.6670996" lon="11.2311431"><ele>154.33333333333334</ele><time>2026-05-03T12:08:06.106Z</time></trkpt><trkpt lat="43.6670531" lon="11.2310601"><ele>155.16666666666666</ele><time>2026-05-03T12:08:09.107Z</time></trkpt><trkpt lat="43.6670936" lon="11.2311992"><ele>156.0</ele><time>2026-05-03T12:08:18.109Z</time></trkpt><trkpt lat="43.6671033" lon="11.2313334"><ele>155.0</ele><time>2026-05-03T12:08:20.11Z</time></trkpt><trkpt lat="43.6671009" lon="11.2314753"><ele>154.0</ele><time>2026-05-03T12:08:22.112Z</time></trkpt><trkpt lat="43.6670981" lon="11.231608"><ele>153.0</ele><time>2026-05-03T12:08:24.107Z</time></trkpt><trkpt lat="43.6671074" lon="11.2317175"><ele>152.0</ele><time>2026-05-03T12:08:26.11Z</time></trkpt><trkpt lat="43.6671347" lon="11.231859"><ele>151.0</ele><time>2026-05-03T12:08:28.108Z</time></trkpt><trkpt lat="43.6671384" lon="11.2319777"><ele>151.00000000000003</ele><time>2026-05-03T12:08:30.107Z</time></trkpt><trkpt lat="43.6671428" lon="11.2320889"><ele>151.0</ele><time>2026-05-03T12:08:32.108Z</time></trkpt><trkpt lat="43.6671466" lon="11.2322063"><ele>151.0</ele><time>2026-05-03T12:08:34.106Z</time></trkpt><trkpt lat="43.667143" lon="11.2323048"><ele>151.0</ele><time>2026-05-03T12:08:36.108Z</time></trkpt><trkpt lat="43.6671543" lon="11.232404"><ele>151.0</ele><time>2026-05-03T12:08:38.111Z</time></trkpt><trkpt lat="43.6671405" lon="11.2324969"><ele>151.00000000000003</ele><time>2026-05-03T12:08:40.104Z</time></trkpt><trkpt lat="43.6671325" lon="11.2325887"><ele>151.0</ele><time>2026-05-03T12:08:42.108Z</time></trkpt><trkpt lat="43.6671767" lon="11.2326745"><ele>149.0</ele><time>2026-05-03T12:09:26.106Z</time></trkpt><trkpt lat="43.6672496" lon="11.2327053"><ele>147.0</ele><time>2026-05-03T12:09:41.105Z</time></trkpt><trkpt lat="43.6673139" lon="11.2327186"><ele>145.0</ele><time>2026-05-03T12:09:43.105Z</time></trkpt><trkpt lat="43.6673781" lon="11.2327571"><ele>143.0</ele><time>2026-05-03T12:09:45.105Z</time></trkpt><trkpt lat="43.6674596" lon="11.2327939"><ele>141.0</ele><time>2026-05-03T12:09:47.104Z</time></trkpt><trkpt lat="43.6675434" lon="11.2328368"><ele>139.0</ele><time>2026-05-03T12:09:49.117Z</time></trkpt><trkpt lat="43.6676865" lon="11.2328177"><ele>140.0</ele><time>2026-05-03T12:10:24.109Z</time></trkpt><trkpt lat="43.6678219" lon="11.2327763"><ele>141.0</ele><time>2026-05-03T12:10:25.102Z</time></trkpt><trkpt lat="43.6678876" lon="11.2327779"><ele>142.0</ele><time>2026-05-03T12:10:26.104Z</time></trkpt><trkpt lat="43.6679947" lon="11.2328137"><ele>143.0</ele><time>2026-05-03T12:10:27.108Z</time></trkpt><trkpt lat="43.6681098" lon="11.2328659"><ele>144.0</ele><time>2026-05-03T12:10:29.104Z</time></trkpt><trkpt lat="43.6682311" lon="11.2328561"><ele>144.0</ele><time>2026-05-03T12:10:32.102Z</time></trkpt><trkpt lat="43.6682931" lon="11.2327676"><ele>144.0</ele><time>2026-05-03T12:10:34.103Z</time></trkpt><trkpt lat="43.6683672" lon="11.2327381"><ele>144.0</ele><time>2026-05-03T12:10:36.105Z</time></trkpt><trkpt lat="43.668446" lon="11.2326933"><ele>144.0</ele><time>2026-05-03T12:10:42.108Z</time></trkpt><trkpt lat="43.6685199" lon="11.2326949"><ele>144.0</ele><time>2026-05-03T12:10:44.109Z</time></trkpt><trkpt lat="43.6685931" lon="11.2327148"><ele>144.0</ele><time>2026-05-03T12:10:46.108Z</time></trkpt><trkpt lat="43.6687294" lon="11.2327179"><ele>146.0</ele><time>2026-05-03T12:10:50.105Z</time></trkpt><trkpt lat="43.6688263" lon="11.2327229"><ele>148.0</ele><time>2026-05-03T12:10:57.102Z</time></trkpt><trkpt lat="43.6689035" lon="11.2327264"><ele>150.0</ele><time>2026-05-03T12:11:07.107Z</time></trkpt><trkpt lat="43.669101" lon="11.2328669"><ele>152.0</ele><time>2026-05-03T12:11:35.112Z</time></trkpt><trkpt lat="43.6692048" lon="11.2329357"><ele>152.0</ele><time>2026-05-03T12:11:37.108Z</time></trkpt><trkpt lat="43.6692976" lon="11.2329925"><ele>152.0</ele><time>2026-05-03T12:11:39.103Z</time></trkpt><trkpt lat="43.6693639" lon="11.2330726"><ele>152.0</ele><time>2026-05-03T12:11:41.105Z</time></trkpt><trkpt lat="43.6694153" lon="11.2331756"><ele>152.0</ele><time>2026-05-03T12:11:43.121Z</time></trkpt><trkpt lat="43.6694089" lon="11.2332747"><ele>152.0</ele><time>2026-05-03T12:11:46.102Z</time></trkpt><trkpt lat="43.6694148" lon="11.2333858"><ele>152.0</ele><time>2026-05-03T12:11:47.108Z</time></trkpt><trkpt lat="43.6693838" lon="11.2335462"><ele>152.2</ele><time>2026-05-03T12:11:49.107Z</time></trkpt><trkpt lat="43.6693633" lon="11.2336751"><ele>152.39999999999998</ele><time>2026-05-03T12:11:51.106Z</time></trkpt><trkpt lat="43.6693472" lon="11.2337666"><ele>152.60000000000002</ele><time>2026-05-03T12:11:53.103Z</time></trkpt><trkpt lat="43.6693536" lon="11.233909"><ele>152.8</ele><time>2026-05-03T12:11:56.104Z</time></trkpt><trkpt lat="43.669374" lon="11.2340382"><ele>153.0</ele><time>2026-05-03T12:11:58.108Z</time></trkpt><trkpt lat="43.6694092" lon="11.2342044"><ele>155.60000000000002</ele><time>2026-05-03T12:12:00.104Z</time></trkpt><trkpt lat="43.6694396" lon="11.2342942"><ele>158.20000000000002</ele><time>2026-05-03T12:12:01.105Z</time></trkpt><trkpt lat="43.6694742" lon="11.2344467"><ele>160.8</ele><time>2026-05-03T12:12:03.107Z</time></trkpt><trkpt lat="43.6694798" lon="11.2345771"><ele>163.4</ele><time>2026-05-03T12:12:05.107Z</time></trkpt><trkpt lat="43.6694584" lon="11.2347095"><ele>166.0</ele><time>2026-05-03T12:12:07.105Z</time></trkpt><trkpt lat="43.6694387" lon="11.2348512"><ele>168.60000000000002</ele><time>2026-05-03T12:12:09.104Z</time></trkpt><trkpt lat="43.6694393" lon="11.2349578"><ele>171.2</ele><time>2026-05-03T12:12:11.11Z</time></trkpt><trkpt lat="43.6694245" lon="11.2350744"><ele>173.8</ele><time>2026-05-03T12:12:55.112Z</time></trkpt><trkpt lat="43.6694258" lon="11.2352017"><ele>176.39999999999998</ele><time>2026-05-03T12:12:57.106Z</time></trkpt><trkpt lat="43.6694649" lon="11.2353388"><ele>179.0</ele><time>2026-05-03T12:12:59.109Z</time></trkpt><trkpt lat="43.6695063" lon="11.2354807"><ele>180.5</ele><time>2026-05-03T12:13:01.116Z</time></trkpt><trkpt lat="43.6695376" lon="11.23562"><ele>182.0</ele><time>2026-05-03T12:13:03.107Z</time></trkpt><trkpt lat="43.6695625" lon="11.2357999"><ele>183.5</ele><time>2026-05-03T12:13:05.113Z</time></trkpt><trkpt lat="43.6695828" lon="11.235966"><ele>185.0</ele><time>2026-05-03T12:13:07.106Z</time></trkpt><trkpt lat="43.6695817" lon="11.2361057"><ele>185.83333333333331</ele><time>2026-05-03T12:13:09.114Z</time></trkpt><trkpt lat="43.6695654" lon="11.2361975"><ele>186.66666666666666</ele><time>2026-05-03T12:13:11.113Z</time></trkpt><trkpt lat="43.6695277" lon="11.2362818"><ele>187.5</ele><time>2026-05-03T12:13:13.106Z</time></trkpt><trkpt lat="43.6694551" lon="11.2363159"><ele>188.33333333333334</ele><time>2026-05-03T12:13:15.109Z</time></trkpt><trkpt lat="43.6693755" lon="11.2363548"><ele>189.16666666666669</ele><time>2026-05-03T12:13:17.106Z</time></trkpt><trkpt lat="43.6692836" lon="11.2363288"><ele>190.0</ele><time>2026-05-03T12:13:19.108Z</time></trkpt><trkpt lat="43.669161" lon="11.2363225"><ele>190.0</ele><time>2026-05-03T12:13:21.11Z</time></trkpt><trkpt lat="43.6690948" lon="11.2363294"><ele>190.0</ele><time>2026-05-03T12:13:22.104Z</time></trkpt><trkpt lat="43.6689964" lon="11.2363526"><ele>190.0</ele><time>2026-05-03T12:13:24.105Z</time></trkpt><trkpt lat="43.6688986" lon="11.2363618"><ele>190.0</ele><time>2026-05-03T12:13:26.103Z</time></trkpt><trkpt lat="43.6688435" lon="11.2364307"><ele>190.0</ele><time>2026-05-03T12:13:28.104Z</time></trkpt><trkpt lat="43.6687966" lon="11.2365436"><ele>190.0</ele><time>2026-05-03T12:13:30.104Z</time></trkpt><trkpt lat="43.6688144" lon="11.2366866"><ele>192.8</ele><time>2026-05-03T12:13:32.103Z</time></trkpt><trkpt lat="43.6688593" lon="11.2367965"><ele>195.6</ele><time>2026-05-03T12:13:34.105Z</time></trkpt><trkpt lat="43.6689015" lon="11.2369237"><ele>198.39999999999998</ele><time>2026-05-03T12:13:36.109Z</time></trkpt><trkpt lat="43.6689083" lon="11.2370658"><ele>201.2</ele><time>2026-05-03T12:13:38.104Z</time></trkpt><trkpt lat="43.6688981" lon="11.2372118"><ele>204.0</ele><time>2026-05-03T12:13:40.104Z</time></trkpt><trkpt lat="43.668911" lon="11.2373622"><ele>206.0</ele><time>2026-05-03T12:13:42.108Z</time></trkpt><trkpt lat="43.6688747" lon="11.2375011"><ele>208.0</ele><time>2026-05-03T12:13:44.114Z</time></trkpt><trkpt lat="43.6688533" lon="11.2376115"><ele>209.99999999999997</ele><time>2026-05-03T12:13:46.106Z</time></trkpt><trkpt lat="43.668838" lon="11.2377205"><ele>212.0</ele><time>2026-05-03T12:13:48.106Z</time></trkpt><trkpt lat="43.6688774" lon="11.2378481"><ele>214.0</ele><time>2026-05-03T12:13:50.114Z</time></trkpt><trkpt lat="43.6688856" lon="11.2379884"><ele>214.0</ele><time>2026-05-03T12:13:52.108Z</time></trkpt><trkpt lat="43.6689118" lon="11.2380927"><ele>213.99999999999997</ele><time>2026-05-03T12:13:54.109Z</time></trkpt><trkpt lat="43.6690703" lon="11.2380616"><ele>213.99999999999997</ele><time>2026-05-03T12:14:21.107Z</time></trkpt><trkpt lat="43.6691404" lon="11.2380621"><ele>214.0</ele><time>2026-05-03T12:14:22.111Z</time></trkpt><trkpt lat="43.6692123" lon="11.2380491"><ele>214.0</ele><time>2026-05-03T12:14:23.11Z</time></trkpt><trkpt lat="43.6693369" lon="11.238018"><ele>214.0</ele><time>2026-05-03T12:14:25.112Z</time></trkpt><trkpt lat="43.6694046" lon="11.2380101"><ele>213.99999999999997</ele><time>2026-05-03T12:14:26.105Z</time></trkpt><trkpt lat="43.6694959" lon="11.2380301"><ele>213.99999999999997</ele><time>2026-05-03T12:14:27.108Z</time></trkpt><trkpt lat="43.669626" lon="11.2381006"><ele>214.0</ele><time>2026-05-03T12:14:29.113Z</time></trkpt><trkpt lat="43.6697457" lon="11.2381164"><ele>214.0</ele><time>2026-05-03T12:14:31.106Z</time></trkpt><trkpt lat="43.6698144" lon="11.2381249"><ele>217.39999999999998</ele><time>2026-05-03T12:14:32.103Z</time></trkpt><trkpt lat="43.6698897" lon="11.2381485"><ele>220.79999999999998</ele><time>2026-05-03T12:14:33.105Z</time></trkpt><trkpt lat="43.6699821" lon="11.2381763"><ele>224.20000000000002</ele><time>2026-05-03T12:14:35.104Z</time></trkpt><trkpt lat="43.6701101" lon="11.2382448"><ele>227.60000000000002</ele><time>2026-05-03T12:14:37.112Z</time></trkpt><trkpt lat="43.6702328" lon="11.2382598"><ele>231.0</ele><time>2026-05-03T12:14:39.116Z</time></trkpt><trkpt lat="43.6703095" lon="11.2382784"><ele>232.16666666666666</ele><time>2026-05-03T12:14:40.108Z</time></trkpt><trkpt lat="43.6703897" lon="11.2383072"><ele>233.33333333333331</ele><time>2026-05-03T12:14:41.108Z</time></trkpt><trkpt lat="43.6704788" lon="11.2383412"><ele>234.5</ele><time>2026-05-03T12:14:42.108Z</time></trkpt><trkpt lat="43.6705489" lon="11.23836"><ele>235.66666666666666</ele><time>2026-05-03T12:14:44.105Z</time></trkpt><trkpt lat="43.6706276" lon="11.2383945"><ele>236.83333333333331</ele><time>2026-05-03T12:14:45.109Z</time></trkpt><trkpt lat="43.6706999" lon="11.2384043"><ele>238.0</ele><time>2026-05-03T12:14:46.108Z</time></trkpt><trkpt lat="43.6707721" lon="11.2384344"><ele>238.0</ele><time>2026-05-03T12:14:47.111Z</time></trkpt><trkpt lat="43.6708359" lon="11.2384134"><ele>238.0</ele><time>2026-05-03T12:14:48.107Z</time></trkpt><trkpt lat="43.670936" lon="11.2383919"><ele>238.0</ele><time>2026-05-03T12:14:50.104Z</time></trkpt><trkpt lat="43.6710141" lon="11.2384128"><ele>238.0</ele><time>2026-05-03T12:14:52.11Z</time></trkpt><trkpt lat="43.6711384" lon="11.2383736"><ele>238.0</ele><time>2026-05-03T12:15:08.107Z</time></trkpt><trkpt lat="43.6712232" lon="11.2384365"><ele>238.60000000000002</ele><time>2026-05-03T12:15:09.114Z</time></trkpt><trkpt lat="43.6713349" lon="11.2384745"><ele>239.20000000000002</ele><time>2026-05-03T12:15:11.105Z</time></trkpt><trkpt lat="43.6714014" lon="11.2384879"><ele>239.8</ele><time>2026-05-03T12:15:13.102Z</time></trkpt><trkpt lat="43.6714908" lon="11.2385527"><ele>240.4</ele><time>2026-05-03T12:15:16.111Z</time></trkpt><trkpt lat="43.6715739" lon="11.2385631"><ele>241.0</ele><time>2026-05-03T12:15:18.107Z</time></trkpt><trkpt lat="43.6716863" lon="11.2385401"><ele>241.0</ele><time>2026-05-03T12:15:20.112Z</time></trkpt><trkpt lat="43.6717952" lon="11.2385304"><ele>241.0</ele><time>2026-05-03T12:15:22.112Z</time></trkpt><trkpt lat="43.6719253" lon="11.2385345"><ele>241.0</ele><time>2026-05-03T12:15:24.113Z</time></trkpt><trkpt lat="43.6720379" lon="11.2385289"><ele>241.0</ele><time>2026-05-03T12:15:26.105Z</time></trkpt><trkpt lat="43.672161" lon="11.2385536"><ele>240.60000000000002</ele><time>2026-05-03T12:15:28.113Z</time></trkpt><trkpt lat="43.6722866" lon="11.2385642"><ele>240.20000000000002</ele><time>2026-05-03T12:15:30.109Z</time></trkpt><trkpt lat="43.672411" lon="11.2385777"><ele>239.79999999999998</ele><time>2026-05-03T12:15:32.104Z</time></trkpt><trkpt lat="43.6724776" lon="11.2385504"><ele>239.39999999999998</ele><time>2026-05-03T12:15:35.112Z</time></trkpt><trkpt lat="43.6725552" lon="11.2385035"><ele>239.0</ele><time>2026-05-03T12:15:58.105Z</time></trkpt><trkpt lat="43.6726153" lon="11.2384762"><ele>239.0</ele><time>2026-05-03T12:16:09.102Z</time></trkpt><trkpt lat="43.6726693" lon="11.2385743"><ele>238.99999999999997</ele><time>2026-05-03T12:16:13.109Z</time></trkpt><trkpt lat="43.6724987" lon="11.2385989"><ele>238.99999999999997</ele><time>2026-05-03T12:16:18.108Z</time></trkpt><trkpt lat="43.6724343" lon="11.2385829"><ele>239.0</ele><time>2026-05-03T12:16:19.114Z</time></trkpt><trkpt lat="43.6723649" lon="11.2385638"><ele>239.0</ele><time>2026-05-03T12:16:20.11Z</time></trkpt><trkpt lat="43.6722659" lon="11.2385805"><ele>239.0</ele><time>2026-05-03T12:16:21.103Z</time></trkpt><trkpt lat="43.6721995" lon="11.2385765"><ele>238.99999999999997</ele><time>2026-05-03T12:16:22.106Z</time></trkpt><trkpt lat="43.6721105" lon="11.2385681"><ele>238.99999999999997</ele><time>2026-05-03T12:16:23.109Z</time></trkpt><trkpt lat="43.6719977" lon="11.2385531"><ele>239.0</ele><time>2026-05-03T12:16:24.105Z</time></trkpt><trkpt lat="43.6719187" lon="11.2385527"><ele>239.0</ele><time>2026-05-03T12:16:25.106Z</time></trkpt><trkpt lat="43.6718137" lon="11.2386081"><ele>239.39999999999998</ele><time>2026-05-03T12:16:26.114Z</time></trkpt><trkpt lat="43.67174" lon="11.2385888"><ele>239.79999999999998</ele><time>2026-05-03T12:16:29.109Z</time></trkpt><trkpt lat="43.6716568" lon="11.2385779"><ele>240.20000000000002</ele><time>2026-05-03T12:16:31.109Z</time></trkpt><trkpt lat="43.6715708" lon="11.2385866"><ele>240.60000000000002</ele><time>2026-05-03T12:16:34.109Z</time></trkpt><trkpt lat="43.6713778" lon="11.2386055"><ele>241.0</ele><time>2026-05-03T12:16:54.108Z</time></trkpt><trkpt lat="43.6713081" lon="11.2386003"><ele>241.0</ele><time>2026-05-03T12:16:55.104Z</time></trkpt><trkpt lat="43.6712036" lon="11.2386006"><ele>241.00000000000003</ele><time>2026-05-03T12:16:56.125Z</time></trkpt><trkpt lat="43.6711297" lon="11.2385973"><ele>241.00000000000003</ele><time>2026-05-03T12:16:57.107Z</time></trkpt><trkpt lat="43.6709973" lon="11.2385698"><ele>241.0</ele><time>2026-05-03T12:16:58.11Z</time></trkpt><trkpt lat="43.6709105" lon="11.2385979"><ele>241.0</ele><time>2026-05-03T12:16:59.115Z</time></trkpt><trkpt lat="43.6708186" lon="11.2386149"><ele>240.4</ele><time>2026-05-03T12:17:00.106Z</time></trkpt><trkpt lat="43.6706942" lon="11.2386912"><ele>239.8</ele><time>2026-05-03T12:17:02.108Z</time></trkpt><trkpt lat="43.6705912" lon="11.2387715"><ele>239.20000000000002</ele><time>2026-05-03T12:17:04.124Z</time></trkpt><trkpt lat="43.6705361" lon="11.23886"><ele>238.60000000000002</ele><time>2026-05-03T12:17:05.108Z</time></trkpt><trkpt lat="43.6704824" lon="11.2389381"><ele>238.0</ele><time>2026-05-03T12:17:06.104Z</time></trkpt><trkpt lat="43.6704184" lon="11.2390222"><ele>237.16666666666666</ele><time>2026-05-03T12:17:07.106Z</time></trkpt><trkpt lat="43.6703804" lon="11.2390932"><ele>236.33333333333331</ele><time>2026-05-03T12:17:08.108Z</time></trkpt><trkpt lat="43.6703232" lon="11.2391613"><ele>235.5</ele><time>2026-05-03T12:17:09.104Z</time></trkpt><trkpt lat="43.6702656" lon="11.2392176"><ele>234.66666666666669</ele><time>2026-05-03T12:17:10.107Z</time></trkpt><trkpt lat="43.670192" lon="11.2392288"><ele>233.83333333333334</ele><time>2026-05-03T12:17:11.105Z</time></trkpt><trkpt lat="43.6701189" lon="11.2392511"><ele>233.0</ele><time>2026-05-03T12:17:12.105Z</time></trkpt><trkpt lat="43.6700204" lon="11.2392484"><ele>232.8</ele><time>2026-05-03T12:17:13.105Z</time></trkpt><trkpt lat="43.6699215" lon="11.2392448"><ele>232.60000000000002</ele><time>2026-05-03T12:17:14.106Z</time></trkpt><trkpt lat="43.6698404" lon="11.2392872"><ele>232.39999999999998</ele><time>2026-05-03T12:17:15.108Z</time></trkpt><trkpt lat="43.6697552" lon="11.239301"><ele>232.2</ele><time>2026-05-03T12:17:16.113Z</time></trkpt><trkpt lat="43.6696196" lon="11.2392802"><ele>232.0</ele><time>2026-05-03T12:17:18.118Z</time></trkpt><trkpt lat="43.6695384" lon="11.2392777"><ele>231.99999999999997</ele><time>2026-05-03T12:17:19.105Z</time></trkpt><trkpt lat="43.669454" lon="11.2392647"><ele>232.0</ele><time>2026-05-03T12:17:20.108Z</time></trkpt><trkpt lat="43.6693602" lon="11.2392586"><ele>232.0</ele><time>2026-05-03T12:17:21.105Z</time></trkpt><trkpt lat="43.6692817" lon="11.2392386"><ele>232.0</ele><time>2026-05-03T12:17:22.109Z</time></trkpt><trkpt lat="43.6692039" lon="11.2392403"><ele>231.99999999999997</ele><time>2026-05-03T12:17:23.106Z</time></trkpt><trkpt lat="43.6691308" lon="11.2392229"><ele>232.0</ele><time>2026-05-03T12:17:24.107Z</time></trkpt><trkpt lat="43.6690275" lon="11.2391805"><ele>230.2</ele><time>2026-05-03T12:17:26.106Z</time></trkpt><trkpt lat="43.6689089" lon="11.2391241"><ele>228.39999999999998</ele><time>2026-05-03T12:17:28.107Z</time></trkpt><trkpt lat="43.6688312" lon="11.2390874"><ele>226.60000000000002</ele><time>2026-05-03T12:17:29.105Z</time></trkpt><trkpt lat="43.6687715" lon="11.2390563"><ele>224.8</ele><time>2026-05-03T12:17:30.116Z</time></trkpt><trkpt lat="43.6686931" lon="11.239043"><ele>223.0</ele><time>2026-05-03T12:17:31.104Z</time></trkpt><trkpt lat="43.6685789" lon="11.2390552"><ele>220.0</ele><time>2026-05-03T12:17:33.104Z</time></trkpt><trkpt lat="43.6685061" lon="11.2390551"><ele>217.0</ele><time>2026-05-03T12:17:36.107Z</time></trkpt><trkpt lat="43.6684637" lon="11.2391312"><ele>214.0</ele><time>2026-05-03T12:18:21.106Z</time></trkpt><trkpt lat="43.6684085" lon="11.2393312"><ele>211.0</ele><time>2026-05-03T12:18:23.103Z</time></trkpt><trkpt lat="43.6683951" lon="11.2394223"><ele>208.0</ele><time>2026-05-03T12:18:24.112Z</time></trkpt><trkpt lat="43.6683762" lon="11.2395458"><ele>208.0</ele><time>2026-05-03T12:18:26.115Z</time></trkpt><trkpt lat="43.6683064" lon="11.2396194"><ele>208.0</ele><time>2026-05-03T12:18:28.106Z</time></trkpt><trkpt lat="43.6682227" lon="11.2396934"><ele>208.0</ele><time>2026-05-03T12:18:30.109Z</time></trkpt><trkpt lat="43.6681281" lon="11.2397403"><ele>208.0</ele><time>2026-05-03T12:18:32.103Z</time></trkpt><trkpt lat="43.6680626" lon="11.2397227"><ele>208.0</ele><time>2026-05-03T12:18:33.107Z</time></trkpt><trkpt lat="43.6679598" lon="11.2397231"><ele>208.0</ele><time>2026-05-03T12:18:35.109Z</time></trkpt><trkpt lat="43.6678696" lon="11.2397032"><ele>208.0</ele><time>2026-05-03T12:18:37.108Z</time></trkpt><trkpt lat="43.6677671" lon="11.2396718"><ele>208.0</ele><time>2026-05-03T12:18:39.104Z</time></trkpt><trkpt lat="43.6676663" lon="11.2396138"><ele>208.0</ele><time>2026-05-03T12:18:41.109Z</time></trkpt><trkpt lat="43.6676065" lon="11.2395796"><ele>208.0</ele><time>2026-05-03T12:18:42.109Z</time></trkpt><trkpt lat="43.6675061" lon="11.2395629"><ele>204.83333333333331</ele><time>2026-05-03T12:18:44.109Z</time></trkpt><trkpt lat="43.6674414" lon="11.2395746"><ele>201.66666666666666</ele><time>2026-05-03T12:18:45.106Z</time></trkpt><trkpt lat="43.6673774" lon="11.2395873"><ele>198.5</ele><time>2026-05-03T12:18:46.11Z</time></trkpt><trkpt lat="43.6673057" lon="11.239607"><ele>195.33333333333331</ele><time>2026-05-03T12:18:47.106Z</time></trkpt><trkpt lat="43.6671557" lon="11.2396854"><ele>192.16666666666666</ele><time>2026-05-03T12:18:49.11Z</time></trkpt><trkpt lat="43.667086" lon="11.2397272"><ele>189.0</ele><time>2026-05-03T12:18:50.119Z</time></trkpt><trkpt lat="43.6669914" lon="11.2397617"><ele>186.0</ele><time>2026-05-03T12:18:51.104Z</time></trkpt><trkpt lat="43.6669087" lon="11.2398187"><ele>183.0</ele><time>2026-05-03T12:18:52.106Z</time></trkpt><trkpt lat="43.6668326" lon="11.239855"><ele>180.0</ele><time>2026-05-03T12:18:53.116Z</time></trkpt><trkpt lat="43.6667569" lon="11.2398784"><ele>177.0</ele><time>2026-05-03T12:18:54.108Z</time></trkpt><trkpt lat="43.6666841" lon="11.2399047"><ele>174.0</ele><time>2026-05-03T12:18:56.101Z</time></trkpt><trkpt lat="43.6666001" lon="11.239994"><ele>171.0</ele><time>2026-05-03T12:18:58.103Z</time></trkpt><trkpt lat="43.6665388" lon="11.240032"><ele>171.0</ele><time>2026-05-03T12:18:59.109Z</time></trkpt><trkpt lat="43.6664833" lon="11.2400846"><ele>171.0</ele><time>2026-05-03T12:19:01.11Z</time></trkpt><trkpt lat="43.6664932" lon="11.2402097"><ele>171.0</ele><time>2026-05-03T12:19:54.118Z</time></trkpt><trkpt lat="43.6664563" lon="11.2403145"><ele>171.0</ele><time>2026-05-03T12:19:56.106Z</time></trkpt><trkpt lat="43.6664153" lon="11.2404161"><ele>171.0</ele><time>2026-05-03T12:19:58.114Z</time></trkpt><trkpt lat="43.6663747" lon="11.2404913"><ele>171.0</ele><time>2026-05-03T12:20:00.103Z</time></trkpt><trkpt lat="43.6664573" lon="11.240306"><ele>170.99999999999997</ele><time>2026-05-03T12:20:59.104Z</time></trkpt><trkpt lat="43.6664694" lon="11.2402205"><ele>171.0</ele><time>2026-05-03T12:21:01.109Z</time></trkpt><trkpt lat="43.6664457" lon="11.2401194"><ele>171.0</ele><time>2026-05-03T12:21:04.11Z</time></trkpt><trkpt lat="43.6664127" lon="11.2400276"><ele>171.0</ele><time>2026-05-03T12:21:06.111Z</time></trkpt><trkpt lat="43.666423" lon="11.2399336"><ele>171.0</ele><time>2026-05-03T12:21:09.107Z</time></trkpt><trkpt lat="43.6664367" lon="11.239846"><ele>170.99999999999997</ele><time>2026-05-03T12:21:13.108Z</time></trkpt><trkpt lat="43.6664431" lon="11.2397541"><ele>171.0</ele><time>2026-05-03T12:21:24.107Z</time></trkpt><trkpt lat="43.6664568" lon="11.2399839"><ele>171.0</ele><time>2026-05-03T12:21:31.111Z</time></trkpt><trkpt lat="43.6664976" lon="11.2400779"><ele>171.0</ele><time>2026-05-03T12:21:33.103Z</time></trkpt><trkpt lat="43.6665868" lon="11.2401279"><ele>171.0</ele><time>2026-05-03T12:21:35.105Z</time></trkpt><trkpt lat="43.6666436" lon="11.2400813"><ele>171.0</ele><time>2026-05-03T12:21:36.114Z</time></trkpt><trkpt lat="43.6667243" lon="11.2400411"><ele>171.0</ele><time>2026-05-03T12:21:37.11Z</time></trkpt><trkpt lat="43.6667864" lon="11.2399749"><ele>171.0</ele><time>2026-05-03T12:21:38.105Z</time></trkpt><trkpt lat="43.6668549" lon="11.2399193"><ele>171.0</ele><time>2026-05-03T12:21:39.106Z</time></trkpt><trkpt lat="43.6669324" lon="11.2398742"><ele>171.0</ele><time>2026-05-03T12:21:40.113Z</time></trkpt><trkpt lat="43.6670009" lon="11.2398221"><ele>171.0</ele><time>2026-05-03T12:21:41.108Z</time></trkpt><trkpt lat="43.6670936" lon="11.2398101"><ele>171.0</ele><time>2026-05-03T12:21:42.11Z</time></trkpt><trkpt lat="43.6671468" lon="11.2397368"><ele>171.0</ele><time>2026-05-03T12:21:43.11Z</time></trkpt><trkpt lat="43.6672251" lon="11.239692"><ele>171.0</ele><time>2026-05-03T12:21:44.109Z</time></trkpt><trkpt lat="43.6672998" lon="11.2396392"><ele>174.0</ele><time>2026-05-03T12:21:45.103Z</time></trkpt><trkpt lat="43.6673881" lon="11.2396249"><ele>177.0</ele><time>2026-05-03T12:21:46.114Z</time></trkpt><trkpt lat="43.667468" lon="11.2396086"><ele>180.0</ele><time>2026-05-03T12:21:47.108Z</time></trkpt><trkpt lat="43.6675584" lon="11.2395978"><ele>183.0</ele><time>2026-05-03T12:21:48.107Z</time></trkpt><trkpt lat="43.6676279" lon="11.2395996"><ele>186.0</ele><time>2026-05-03T12:21:49.104Z</time></trkpt><trkpt lat="43.6677086" lon="11.2396224"><ele>189.0</ele><time>2026-05-03T12:21:50.109Z</time></trkpt><trkpt lat="43.6677811" lon="11.2396435"><ele>192.79999999999998</ele><time>2026-05-03T12:21:51.106Z</time></trkpt><trkpt lat="43.6678577" lon="11.2396779"><ele>196.6</ele><time>2026-05-03T12:21:52.108Z</time></trkpt><trkpt lat="43.667941" lon="11.2397129"><ele>200.4</ele><time>2026-05-03T12:21:53.099Z</time></trkpt><trkpt lat="43.6680587" lon="11.2396884"><ele>204.2</ele><time>2026-05-03T12:21:54.111Z</time></trkpt><trkpt lat="43.6681425" lon="11.2396526"><ele>208.0</ele><time>2026-05-03T12:21:55.103Z</time></trkpt><trkpt lat="43.6682456" lon="11.2396388"><ele>207.99999999999997</ele><time>2026-05-03T12:21:56.103Z</time></trkpt><trkpt lat="43.6683259" lon="11.2395818"><ele>208.0</ele><time>2026-05-03T12:21:57.109Z</time></trkpt><trkpt lat="43.6683717" lon="11.2395192"><ele>208.0</ele><time>2026-05-03T12:21:58.11Z</time></trkpt><trkpt lat="43.6684219" lon="11.2394284"><ele>208.0</ele><time>2026-05-03T12:21:59.101Z</time></trkpt><trkpt lat="43.6684622" lon="11.2393417"><ele>207.99999999999997</ele><time>2026-05-03T12:22:00.109Z</time></trkpt><trkpt lat="43.6684817" lon="11.2391661"><ele>208.0</ele><time>2026-05-03T12:22:02.099Z</time></trkpt><trkpt lat="43.6684882" lon="11.239079"><ele>208.0</ele><time>2026-05-03T12:22:03.11Z</time></trkpt><trkpt lat="43.6685341" lon="11.2389952"><ele>208.0</ele><time>2026-05-03T12:22:06.102Z</time></trkpt><trkpt lat="43.6686041" lon="11.2389089"><ele>208.0</ele><time>2026-05-03T12:22:09.107Z</time></trkpt><trkpt lat="43.6686614" lon="11.2388653"><ele>208.0</ele><time>2026-05-03T12:22:10.118Z</time></trkpt><trkpt lat="43.6686849" lon="11.2387822"><ele>208.0</ele><time>2026-05-03T12:22:11.102Z</time></trkpt><trkpt lat="43.6687208" lon="11.2387022"><ele>208.0</ele><time>2026-05-03T12:22:12.104Z</time></trkpt><trkpt lat="43.6687547" lon="11.2386103"><ele>208.0</ele><time>2026-05-03T12:22:13.101Z</time></trkpt><trkpt lat="43.668771" lon="11.23851"><ele>208.99999999999997</ele><time>2026-05-03T12:22:14.108Z</time></trkpt><trkpt lat="43.6687999" lon="11.2384234"><ele>210.0</ele><time>2026-05-03T12:22:15.103Z</time></trkpt><trkpt lat="43.6688422" lon="11.2383343"><ele>211.0</ele><time>2026-05-03T12:22:16.103Z</time></trkpt><trkpt lat="43.6688856" lon="11.2382414"><ele>212.0</ele><time>2026-05-03T12:22:17.107Z</time></trkpt><trkpt lat="43.6689177" lon="11.2381099"><ele>212.99999999999997</ele><time>2026-05-03T12:22:19.107Z</time></trkpt><trkpt lat="43.6689271" lon="11.237996"><ele>214.0</ele><time>2026-05-03T12:22:21.104Z</time></trkpt><trkpt lat="43.6689338" lon="11.23784"><ele>213.99999999999997</ele><time>2026-05-03T12:22:24.106Z</time></trkpt><trkpt lat="43.6689223" lon="11.2376951"><ele>214.0</ele><time>2026-05-03T12:22:26.103Z</time></trkpt><trkpt lat="43.6689237" lon="11.2375862"><ele>214.0</ele><time>2026-05-03T12:22:28.111Z</time></trkpt><trkpt lat="43.6689293" lon="11.2374834"><ele>214.0</ele><time>2026-05-03T12:22:30.105Z</time></trkpt><trkpt lat="43.6689348" lon="11.237396"><ele>213.99999999999997</ele><time>2026-05-03T12:22:32.103Z</time></trkpt><trkpt lat="43.6689262" lon="11.2372462"><ele>214.0</ele><time>2026-05-03T12:22:35.108Z</time></trkpt><trkpt lat="43.6689211" lon="11.2371444"><ele>212.0</ele><time>2026-05-03T12:22:37.103Z</time></trkpt><trkpt lat="43.6689105" lon="11.2370464"><ele>209.99999999999997</ele><time>2026-05-03T12:22:39.11Z</time></trkpt><trkpt lat="43.6689104" lon="11.236899"><ele>208.0</ele><time>2026-05-03T12:22:41.104Z</time></trkpt><trkpt lat="43.6688749" lon="11.2367741"><ele>206.0</ele><time>2026-05-03T12:22:43.102Z</time></trkpt><trkpt lat="43.6688487" lon="11.2366329"><ele>204.0</ele><time>2026-05-03T12:22:45.103Z</time></trkpt><trkpt lat="43.6688577" lon="11.2364933"><ele>201.66666666666666</ele><time>2026-05-03T12:22:47.106Z</time></trkpt><trkpt lat="43.6689384" lon="11.2364039"><ele>199.33333333333334</ele><time>2026-05-03T12:22:49.104Z</time></trkpt><trkpt lat="43.6690055" lon="11.2363755"><ele>197.0</ele><time>2026-05-03T12:22:51.102Z</time></trkpt><trkpt lat="43.6690716" lon="11.2363542"><ele>194.66666666666669</ele><time>2026-05-03T12:22:53.101Z</time></trkpt><trkpt lat="43.6691577" lon="11.2363364"><ele>192.33333333333334</ele><time>2026-05-03T12:22:55.105Z</time></trkpt><trkpt lat="43.6692644" lon="11.2363305"><ele>190.0</ele><time>2026-05-03T12:22:57.113Z</time></trkpt><trkpt lat="43.6693487" lon="11.2363248"><ele>191.16666666666669</ele><time>2026-05-03T12:22:59.101Z</time></trkpt><trkpt lat="43.6694551" lon="11.2363239"><ele>192.33333333333334</ele><time>2026-05-03T12:23:01.105Z</time></trkpt><trkpt lat="43.6695082" lon="11.2362754"><ele>193.5</ele><time>2026-05-03T12:23:04.102Z</time></trkpt><trkpt lat="43.6695629" lon="11.236216"><ele>194.66666666666669</ele><time>2026-05-03T12:23:06.109Z</time></trkpt><trkpt lat="43.6695943" lon="11.2361182"><ele>195.83333333333334</ele><time>2026-05-03T12:23:08.105Z</time></trkpt><trkpt lat="43.669597" lon="11.2360125"><ele>197.0</ele><time>2026-05-03T12:23:10.11Z</time></trkpt><trkpt lat="43.6695903" lon="11.2358824"><ele>197.0</ele><time>2026-05-03T12:23:12.109Z</time></trkpt><trkpt lat="43.6695725" lon="11.2357532"><ele>197.0</ele><time>2026-05-03T12:23:14.11Z</time></trkpt><trkpt lat="43.6695457" lon="11.2356131"><ele>197.0</ele><time>2026-05-03T12:23:16.106Z</time></trkpt><trkpt lat="43.6695183" lon="11.2354881"><ele>197.0</ele><time>2026-05-03T12:23:18.103Z</time></trkpt><trkpt lat="43.66947" lon="11.2353785"><ele>197.0</ele><time>2026-05-03T12:23:20.102Z</time></trkpt><trkpt lat="43.669432" lon="11.2352693"><ele>194.6</ele><time>2026-05-03T12:23:22.106Z</time></trkpt><trkpt lat="43.6693702" lon="11.2351627"><ele>192.2</ele><time>2026-05-03T12:23:24.11Z</time></trkpt><trkpt lat="43.6693856" lon="11.2350694"><ele>189.8</ele><time>2026-05-03T12:23:26.105Z</time></trkpt><trkpt lat="43.6694038" lon="11.2349783"><ele>187.4</ele><time>2026-05-03T12:23:28.104Z</time></trkpt><trkpt lat="43.6694206" lon="11.2348678"><ele>185.0</ele><time>2026-05-03T12:23:31.103Z</time></trkpt><trkpt lat="43.6695957" lon="11.2348404"><ele>185.0</ele><time>2026-05-03T12:24:06.114Z</time></trkpt><trkpt lat="43.6696928" lon="11.2348192"><ele>185.0</ele><time>2026-05-03T12:24:08.111Z</time></trkpt><trkpt lat="43.6697741" lon="11.2347641"><ele>185.0</ele><time>2026-05-03T12:24:10.1Z</time></trkpt><trkpt lat="43.6698319" lon="11.2346882"><ele>185.0</ele><time>2026-05-03T12:24:12.112Z</time></trkpt><trkpt lat="43.6699233" lon="11.2346379"><ele>185.0</ele><time>2026-05-03T12:24:14.105Z</time></trkpt><trkpt lat="43.6700118" lon="11.2345783"><ele>184.75</ele><time>2026-05-03T12:24:16.101Z</time></trkpt><trkpt lat="43.6701108" lon="11.2345584"><ele>184.5</ele><time>2026-05-03T12:24:18.101Z</time></trkpt><trkpt lat="43.6702693" lon="11.2345741"><ele>184.25</ele><time>2026-05-03T12:24:21.102Z</time></trkpt><trkpt lat="43.6704312" lon="11.2345269"><ele>184.0</ele><time>2026-05-03T12:24:32.11Z</time></trkpt><trkpt lat="43.6704892" lon="11.2344833"><ele>184.0</ele><time>2026-05-03T12:24:43.1Z</time></trkpt><trkpt lat="43.6705562" lon="11.2344805"><ele>184.0</ele><time>2026-05-03T12:24:47.103Z</time></trkpt><trkpt lat="43.6706738" lon="11.2343102"><ele>184.0</ele><time>2026-05-03T12:24:49.105Z</time></trkpt><trkpt lat="43.6707422" lon="11.2341872"><ele>184.0</ele><time>2026-05-03T12:24:50.102Z</time></trkpt><trkpt lat="43.6707986" lon="11.2340987"><ele>184.0</ele><time>2026-05-03T12:24:51.101Z</time></trkpt><trkpt lat="43.6709" lon="11.2340255"><ele>184.0</ele><time>2026-05-03T12:24:53.1Z</time></trkpt><trkpt lat="43.6709842" lon="11.2339885"><ele>184.0</ele><time>2026-05-03T12:24:55.102Z</time></trkpt><trkpt lat="43.6710407" lon="11.2339487"><ele>184.0</ele><time>2026-05-03T12:24:57.105Z</time></trkpt><trkpt lat="43.6710088" lon="11.2340315"><ele>184.0</ele><time>2026-05-03T12:25:31.1Z</time></trkpt><trkpt lat="43.6709335" lon="11.2340491"><ele>184.0</ele><time>2026-05-03T12:25:35.103Z</time></trkpt><trkpt lat="43.6708841" lon="11.234107"><ele>184.0</ele><time>2026-05-03T12:25:39.114Z</time></trkpt><trkpt lat="43.670836" lon="11.2341664"><ele>184.0</ele><time>2026-05-03T12:25:43.105Z</time></trkpt><trkpt lat="43.6707684" lon="11.2342232"><ele>184.0</ele><time>2026-05-03T12:25:47.074Z</time></trkpt><trkpt lat="43.6706821" lon="11.2342977"><ele>184.0</ele><time>2026-05-03T12:25:48.103Z</time></trkpt><trkpt lat="43.6706019" lon="11.2343712"><ele>184.0</ele><time>2026-05-03T12:25:49.108Z</time></trkpt><trkpt lat="43.6705303" lon="11.2344299"><ele>184.0</ele><time>2026-05-03T12:25:50.101Z</time></trkpt><trkpt lat="43.6704692" lon="11.2344858"><ele>184.0</ele><time>2026-05-03T12:25:51.106Z</time></trkpt><trkpt lat="43.6703788" lon="11.2345422"><ele>184.0</ele><time>2026-05-03T12:25:53.106Z</time></trkpt><trkpt lat="43.6703025" lon="11.2345693"><ele>184.0</ele><time>2026-05-03T12:25:55.098Z</time></trkpt><trkpt lat="43.6702268" lon="11.2345762"><ele>184.0</ele><time>2026-05-03T12:25:57.103Z</time></trkpt><trkpt lat="43.6701442" lon="11.2345912"><ele>184.0</ele><time>2026-05-03T12:25:59.107Z</time></trkpt><trkpt lat="43.6700421" lon="11.2346294"><ele>184.0</ele><time>2026-05-03T12:26:02.1Z</time></trkpt><trkpt lat="43.6699513" lon="11.2346687"><ele>184.0</ele><time>2026-05-03T12:26:04.102Z</time></trkpt><trkpt lat="43.6698705" lon="11.2347102"><ele>184.2</ele><time>2026-05-03T12:26:06.109Z</time></trkpt><trkpt lat="43.6697776" lon="11.2347787"><ele>184.39999999999998</ele><time>2026-05-03T12:26:08.107Z</time></trkpt><trkpt lat="43.6696738" lon="11.2348183"><ele>184.6</ele><time>2026-05-03T12:26:10.1Z</time></trkpt><trkpt lat="43.6695557" lon="11.2348219"><ele>184.8</ele><time>2026-05-03T12:26:12.106Z</time></trkpt><trkpt lat="43.6694755" lon="11.234829"><ele>185.0</ele><time>2026-05-03T12:26:14.108Z</time></trkpt><trkpt lat="43.6694322" lon="11.2347574"><ele>182.83333333333331</ele><time>2026-05-03T12:26:18.107Z</time></trkpt><trkpt lat="43.6694705" lon="11.2346198"><ele>180.66666666666666</ele><time>2026-05-03T12:26:20.099Z</time></trkpt><trkpt lat="43.6694714" lon="11.2344946"><ele>178.5</ele><time>2026-05-03T12:26:22.099Z</time></trkpt><trkpt lat="43.6694602" lon="11.2343961"><ele>176.33333333333334</ele><time>2026-05-03T12:26:24.103Z</time></trkpt><trkpt lat="43.6694278" lon="11.2342877"><ele>174.16666666666669</ele><time>2026-05-03T12:26:26.1Z</time></trkpt><trkpt lat="43.6694063" lon="11.234202"><ele>172.0</ele><time>2026-05-03T12:26:28.107Z</time></trkpt><trkpt lat="43.6693876" lon="11.2340986"><ele>170.5</ele><time>2026-05-03T12:26:30.101Z</time></trkpt><trkpt lat="43.669377" lon="11.2339682"><ele>169.0</ele><time>2026-05-03T12:26:32.109Z</time></trkpt><trkpt lat="43.6693791" lon="11.2338558"><ele>167.5</ele><time>2026-05-03T12:26:34.105Z</time></trkpt><trkpt lat="43.6693631" lon="11.2337617"><ele>166.0</ele><time>2026-05-03T12:26:36.105Z</time></trkpt><trkpt lat="43.6693989" lon="11.2336849"><ele>164.5</ele><time>2026-05-03T12:26:38.109Z</time></trkpt><trkpt lat="43.6694344" lon="11.2336033"><ele>163.0</ele><time>2026-05-03T12:26:40.1Z</time></trkpt><trkpt lat="43.6694644" lon="11.2334763"><ele>163.0</ele><time>2026-05-03T12:26:43.1Z</time></trkpt><trkpt lat="43.6694786" lon="11.2333692"><ele>163.0</ele><time>2026-05-03T12:26:45.105Z</time></trkpt><trkpt lat="43.6694689" lon="11.233254"><ele>163.0</ele><time>2026-05-03T12:26:47.104Z</time></trkpt><trkpt lat="43.669446" lon="11.2331534"><ele>163.0</ele><time>2026-05-03T12:26:49.1Z</time></trkpt><trkpt lat="43.6694164" lon="11.2330509"><ele>163.0</ele><time>2026-05-03T12:26:51.104Z</time></trkpt><trkpt lat="43.6693248" lon="11.2330205"><ele>163.0</ele><time>2026-05-03T12:26:55.098Z</time></trkpt><trkpt lat="43.6692515" lon="11.2329617"><ele>161.16666666666669</ele><time>2026-05-03T12:26:58.106Z</time></trkpt><trkpt lat="43.6691793" lon="11.2329169"><ele>159.33333333333334</ele><time>2026-05-03T12:27:01.102Z</time></trkpt><trkpt lat="43.6690994" lon="11.232888"><ele>157.5</ele><time>2026-05-03T12:27:05.103Z</time></trkpt><trkpt lat="43.6690305" lon="11.2328476"><ele>155.66666666666666</ele><time>2026-05-03T12:27:08.104Z</time></trkpt><trkpt lat="43.6689012" lon="11.2328346"><ele>153.83333333333331</ele><time>2026-05-03T12:27:25.107Z</time></trkpt><trkpt lat="43.6688234" lon="11.2328737"><ele>152.0</ele><time>2026-05-03T12:27:28.102Z</time></trkpt><trkpt lat="43.6687336" lon="11.2328864"><ele>152.0</ele><time>2026-05-03T12:27:31.103Z</time></trkpt><trkpt lat="43.6686548" lon="11.2328611"><ele>152.0</ele><time>2026-05-03T12:27:34.106Z</time></trkpt><trkpt lat="43.6685796" lon="11.2328306"><ele>152.0</ele><time>2026-05-03T12:27:39.102Z</time></trkpt><trkpt lat="43.668486" lon="11.23281"><ele>152.0</ele><time>2026-05-03T12:27:43.105Z</time></trkpt><trkpt lat="43.6684088" lon="11.2328354"><ele>152.0</ele><time>2026-05-03T12:27:46.102Z</time></trkpt><trkpt lat="43.6683418" lon="11.2328418"><ele>152.0</ele><time>2026-05-03T12:27:48.996Z</time></trkpt><trkpt lat="43.6682623" lon="11.2328173"><ele>150.4</ele><time>2026-05-03T12:27:52.107Z</time></trkpt><trkpt lat="43.6681009" lon="11.232826"><ele>148.79999999999998</ele><time>2026-05-03T12:27:54.099Z</time></trkpt><trkpt lat="43.6680038" lon="11.2328262"><ele>147.2</ele><time>2026-05-03T12:27:55.107Z</time></trkpt><trkpt lat="43.6679246" lon="11.2328202"><ele>145.6</ele><time>2026-05-03T12:27:56.101Z</time></trkpt><trkpt lat="43.6678349" lon="11.2328201"><ele>144.0</ele><time>2026-05-03T12:27:58.1Z</time></trkpt><trkpt lat="43.6677663" lon="11.2328384"><ele>143.16666666666666</ele><time>2026-05-03T12:28:00.1Z</time></trkpt><trkpt lat="43.6677019" lon="11.2328462"><ele>142.33333333333334</ele><time>2026-05-03T12:28:02.103Z</time></trkpt><trkpt lat="43.6676336" lon="11.2328803"><ele>141.5</ele><time>2026-05-03T12:28:16.104Z</time></trkpt><trkpt lat="43.6675363" lon="11.2328696"><ele>140.66666666666669</ele><time>2026-05-03T12:28:18.104Z</time></trkpt><trkpt lat="43.6674513" lon="11.23282"><ele>139.83333333333334</ele><time>2026-05-03T12:28:20.11Z</time></trkpt><trkpt lat="43.6673725" lon="11.232771"><ele>139.0</ele><time>2026-05-03T12:28:22.105Z</time></trkpt><trkpt lat="43.6672898" lon="11.23276"><ele>139.0</ele><time>2026-05-03T12:28:24.101Z</time></trkpt><trkpt lat="43.6672264" lon="11.2327161"><ele>139.0</ele><time>2026-05-03T12:28:42.104Z</time></trkpt><trkpt lat="43.6671514" lon="11.2326738"><ele>139.0</ele><time>2026-05-03T12:28:45.105Z</time></trkpt><trkpt lat="43.6670331" lon="11.2327353"><ele>139.0</ele><time>2026-05-03T12:28:47.111Z</time></trkpt><trkpt lat="43.666916" lon="11.2327"><ele>139.0</ele><time>2026-05-03T12:28:49.099Z</time></trkpt><trkpt lat="43.666831" lon="11.2325559"><ele>136.83333333333334</ele><time>2026-05-03T12:28:51.105Z</time></trkpt><trkpt lat="43.6667827" lon="11.2324719"><ele>134.66666666666669</ele><time>2026-05-03T12:28:52.108Z</time></trkpt><trkpt lat="43.6667446" lon="11.2323612"><ele>132.5</ele><time>2026-05-03T12:28:53.105Z</time></trkpt><trkpt lat="43.6667039" lon="11.2322375"><ele>130.33333333333334</ele><time>2026-05-03T12:28:54.102Z</time></trkpt><trkpt lat="43.666681" lon="11.2321258"><ele>128.16666666666666</ele><time>2026-05-03T12:28:55.102Z</time></trkpt><trkpt lat="43.6666628" lon="11.2320102"><ele>126.0</ele><time>2026-05-03T12:28:56.104Z</time></trkpt><trkpt lat="43.6666491" lon="11.2318962"><ele>126.0</ele><time>2026-05-03T12:28:57.1Z</time></trkpt><trkpt lat="43.6666321" lon="11.2317914"><ele>126.0</ele><time>2026-05-03T12:28:58.099Z</time></trkpt><trkpt lat="43.6665971" lon="11.2316278"><ele>126.0</ele><time>2026-05-03T12:29:00.104Z</time></trkpt><trkpt lat="43.6665416" lon="11.2314933"><ele>126.0</ele><time>2026-05-03T12:29:02.104Z</time></trkpt><trkpt lat="43.6665224" lon="11.2313585"><ele>126.0</ele><time>2026-05-03T12:29:04.106Z</time></trkpt><trkpt lat="43.6664986" lon="11.2312402"><ele>126.8</ele><time>2026-05-03T12:29:05.113Z</time></trkpt><trkpt lat="43.6664879" lon="11.2311381"><ele>127.6</ele><time>2026-05-03T12:29:06.106Z</time></trkpt><trkpt lat="43.6664688" lon="11.2309555"><ele>128.4</ele><time>2026-05-03T12:29:07.105Z</time></trkpt><trkpt lat="43.6664743" lon="11.2308035"><ele>129.2</ele><time>2026-05-03T12:29:08.102Z</time></trkpt><trkpt lat="43.6664694" lon="11.2306305"><ele>130.0</ele><time>2026-05-03T12:29:09.102Z</time></trkpt><trkpt lat="43.6664585" lon="11.2304437"><ele>130.0</ele><time>2026-05-03T12:29:10.098Z</time></trkpt><trkpt lat="43.6664522" lon="11.2302277"><ele>130.0</ele><time>2026-05-03T12:29:11.103Z</time></trkpt><trkpt lat="43.6664466" lon="11.230021"><ele>130.0</ele><time>2026-05-03T12:29:12.102Z</time></trkpt><trkpt lat="43.6664379" lon="11.2297996"><ele>128.66666666666669</ele><time>2026-05-03T12:29:13.101Z</time></trkpt><trkpt lat="43.6664273" lon="11.2295707"><ele>127.33333333333334</ele><time>2026-05-03T12:29:14.104Z</time></trkpt><trkpt lat="43.6664121" lon="11.2293424"><ele>126.0</ele><time>2026-05-03T12:29:15.111Z</time></trkpt><trkpt lat="43.6663996" lon="11.2291196"><ele>125.33333333333334</ele><time>2026-05-03T12:29:16.1Z</time></trkpt><trkpt lat="43.6663943" lon="11.2289002"><ele>124.66666666666667</ele><time>2026-05-03T12:29:17.1Z</time></trkpt><trkpt lat="43.6663947" lon="11.2286759"><ele>124.0</ele><time>2026-05-03T12:29:18.108Z</time></trkpt><trkpt lat="43.6664344" lon="11.2284547"><ele>124.0</ele><time>2026-05-03T12:29:19.104Z</time></trkpt><trkpt lat="43.666468" lon="11.2282319"><ele>124.0</ele><time>2026-05-03T12:29:20.098Z</time></trkpt><trkpt lat="43.6665199" lon="11.2280203"><ele>124.0</ele><time>2026-05-03T12:29:21.101Z</time></trkpt><trkpt lat="43.6665734" lon="11.2277997"><ele>123.66666666666667</ele><time>2026-05-03T12:29:22.107Z</time></trkpt><trkpt lat="43.6666294" lon="11.2275699"><ele>123.33333333333334</ele><time>2026-05-03T12:29:23.102Z</time></trkpt><trkpt lat="43.6666782" lon="11.2273591"><ele>123.0</ele><time>2026-05-03T12:29:24.101Z</time></trkpt><trkpt lat="43.6667448" lon="11.2271464"><ele>121.33333333333334</ele><time>2026-05-03T12:29:25.102Z</time></trkpt><trkpt lat="43.6668104" lon="11.2269309"><ele>119.66666666666667</ele><time>2026-05-03T12:29:26.103Z</time></trkpt><trkpt lat="43.6668426" lon="11.2267202"><ele>118.0</ele><time>2026-05-03T12:29:27.101Z</time></trkpt><trkpt lat="43.6668675" lon="11.2264944"><ele>118.33333333333334</ele><time>2026-05-03T12:29:28.107Z</time></trkpt><trkpt lat="43.6668762" lon="11.2262825"><ele>118.66666666666666</ele><time>2026-05-03T12:29:29.102Z</time></trkpt><trkpt lat="43.6668799" lon="11.2260723"><ele>119.0</ele><time>2026-05-03T12:29:30.103Z</time></trkpt><trkpt lat="43.6669058" lon="11.2258174"><ele>119.33333333333333</ele><time>2026-05-03T12:29:31.098Z</time></trkpt><trkpt lat="43.6668802" lon="11.2255903"><ele>119.66666666666666</ele><time>2026-05-03T12:29:32.102Z</time></trkpt><trkpt lat="43.6668259" lon="11.2253204"><ele>120.0</ele><time>2026-05-03T12:29:33.104Z</time></trkpt><trkpt lat="43.6668209" lon="11.2250917"><ele>120.0</ele><time>2026-05-03T12:29:34.103Z</time></trkpt><trkpt lat="43.6667913" lon="11.2248747"><ele>120.0</ele><time>2026-05-03T12:29:35.1Z</time></trkpt><trkpt lat="43.6667615" lon="11.2246469"><ele>120.0</ele><time>2026-05-03T12:29:36.101Z</time></trkpt><trkpt lat="43.6667218" lon="11.2244262"><ele>119.66666666666666</ele><time>2026-05-03T12:29:37.102Z</time></trkpt><trkpt lat="43.6667013" lon="11.2242062"><ele>119.33333333333333</ele><time>2026-05-03T12:29:38.104Z</time></trkpt><trkpt lat="43.6666806" lon="11.2239798"><ele>119.0</ele><time>2026-05-03T12:29:39.101Z</time></trkpt><trkpt lat="43.6666427" lon="11.2237699"><ele>119.0</ele><time>2026-05-03T12:29:40.102Z</time></trkpt><trkpt lat="43.6666287" lon="11.2235566"><ele>119.0</ele><time>2026-05-03T12:29:41.104Z</time></trkpt><trkpt lat="43.6666011" lon="11.2233421"><ele>119.0</ele><time>2026-05-03T12:29:42.099Z</time></trkpt><trkpt lat="43.666571" lon="11.2231383"><ele>118.66666666666666</ele><time>2026-05-03T12:29:43.1Z</time></trkpt><trkpt lat="43.6665456" lon="11.2229323"><ele>118.33333333333334</ele><time>2026-05-03T12:29:44.107Z</time></trkpt><trkpt lat="43.666527" lon="11.2227237"><ele>118.0</ele><time>2026-05-03T12:29:45.105Z</time></trkpt><trkpt lat="43.6665136" lon="11.2225167"><ele>118.0</ele><time>2026-05-03T12:29:46.104Z</time></trkpt><trkpt lat="43.6664881" lon="11.2223068"><ele>118.0</ele><time>2026-05-03T12:29:47.103Z</time></trkpt><trkpt lat="43.666478" lon="11.2221227"><ele>118.0</ele><time>2026-05-03T12:29:48.104Z</time></trkpt><trkpt lat="43.6664651" lon="11.2219502"><ele>118.0</ele><time>2026-05-03T12:29:49.103Z</time></trkpt><trkpt lat="43.6664579" lon="11.2217637"><ele>118.0</ele><time>2026-05-03T12:29:50.108Z</time></trkpt><trkpt lat="43.6664625" lon="11.2215507"><ele>118.0</ele><time>2026-05-03T12:29:51.104Z</time></trkpt><trkpt lat="43.6664973" lon="11.2213319"><ele>118.0</ele><time>2026-05-03T12:29:52.107Z</time></trkpt><trkpt lat="43.6665367" lon="11.2211065"><ele>118.33333333333334</ele><time>2026-05-03T12:29:53.1Z</time></trkpt><trkpt lat="43.6665975" lon="11.2208863"><ele>118.66666666666666</ele><time>2026-05-03T12:29:54.11Z</time></trkpt><trkpt lat="43.6666486" lon="11.2206585"><ele>119.0</ele><time>2026-05-03T12:29:55.105Z</time></trkpt><trkpt lat="43.666697" lon="11.2204515"><ele>118.33333333333333</ele><time>2026-05-03T12:29:56.109Z</time></trkpt><trkpt lat="43.6667385" lon="11.2202419"><ele>117.66666666666666</ele><time>2026-05-03T12:29:57.106Z</time></trkpt><trkpt lat="43.6667605" lon="11.2200203"><ele>117.0</ele><time>2026-05-03T12:29:58.111Z</time></trkpt><trkpt lat="43.6667871" lon="11.2197958"><ele>116.66666666666666</ele><time>2026-05-03T12:29:59.099Z</time></trkpt><trkpt lat="43.666784" lon="11.2195712"><ele>116.33333333333333</ele><time>2026-05-03T12:30:00.102Z</time></trkpt><trkpt lat="43.6667825" lon="11.2193529"><ele>116.0</ele><time>2026-05-03T12:30:01.103Z</time></trkpt><trkpt lat="43.6667838" lon="11.2191513"><ele>116.0</ele><time>2026-05-03T12:30:02.101Z</time></trkpt><trkpt lat="43.6667914" lon="11.2189696"><ele>116.0</ele><time>2026-05-03T12:30:03.103Z</time></trkpt><trkpt lat="43.6667988" lon="11.2187813"><ele>116.0</ele><time>2026-05-03T12:30:04.107Z</time></trkpt><trkpt lat="43.666799" lon="11.218598"><ele>116.0</ele><time>2026-05-03T12:30:05.104Z</time></trkpt><trkpt lat="43.6668115" lon="11.2184153"><ele>116.0</ele><time>2026-05-03T12:30:06.1Z</time></trkpt><trkpt lat="43.6668216" lon="11.2182251"><ele>116.0</ele><time>2026-05-03T12:30:07.108Z</time></trkpt><trkpt lat="43.6668314" lon="11.2180398"><ele>116.0</ele><time>2026-05-03T12:30:08.106Z</time></trkpt><trkpt lat="43.6668437" lon="11.2178587"><ele>116.0</ele><time>2026-05-03T12:30:09.105Z</time></trkpt><trkpt lat="43.666858" lon="11.2176987"><ele>115.4</ele><time>2026-05-03T12:30:10.106Z</time></trkpt><trkpt lat="43.6668677" lon="11.2175554"><ele>114.8</ele><time>2026-05-03T12:30:11.106Z</time></trkpt><trkpt lat="43.666876" lon="11.2174003"><ele>114.20000000000002</ele><time>2026-05-03T12:30:12.105Z</time></trkpt><trkpt lat="43.6668948" lon="11.2172498"><ele>113.60000000000001</ele><time>2026-05-03T12:30:13.104Z</time></trkpt><trkpt lat="43.666927" lon="11.2170868"><ele>113.0</ele><time>2026-05-03T12:30:14.101Z</time></trkpt><trkpt lat="43.6669604" lon="11.2169022"><ele>113.66666666666666</ele><time>2026-05-03T12:30:15.099Z</time></trkpt><trkpt lat="43.6670195" lon="11.2167422"><ele>114.33333333333334</ele><time>2026-05-03T12:30:16.099Z</time></trkpt><trkpt lat="43.667125" lon="11.2165693"><ele>115.0</ele><time>2026-05-03T12:30:17.104Z</time></trkpt><trkpt lat="43.6672142" lon="11.2163885"><ele>115.0</ele><time>2026-05-03T12:30:18.104Z</time></trkpt><trkpt lat="43.6673013" lon="11.2162089"><ele>115.0</ele><time>2026-05-03T12:30:19.102Z</time></trkpt><trkpt lat="43.6674091" lon="11.216023"><ele>115.0</ele><time>2026-05-03T12:30:20.099Z</time></trkpt><trkpt lat="43.6675123" lon="11.2158398"><ele>115.0</ele><time>2026-05-03T12:30:21.102Z</time></trkpt><trkpt lat="43.6676098" lon="11.2156619"><ele>115.0</ele><time>2026-05-03T12:30:22.106Z</time></trkpt><trkpt lat="43.6677068" lon="11.2154964"><ele>115.0</ele><time>2026-05-03T12:30:23.106Z</time></trkpt><trkpt lat="43.6678148" lon="11.2153271"><ele>114.5</ele><time>2026-05-03T12:30:24.1Z</time></trkpt><trkpt lat="43.6679078" lon="11.215187"><ele>114.0</ele><time>2026-05-03T12:30:25.106Z</time></trkpt><trkpt lat="43.668019" lon="11.2150785"><ele>113.5</ele><time>2026-05-03T12:30:26.107Z</time></trkpt><trkpt lat="43.6681358" lon="11.2150025"><ele>113.0</ele><time>2026-05-03T12:30:27.104Z</time></trkpt><trkpt lat="43.6682572" lon="11.2149267"><ele>113.0</ele><time>2026-05-03T12:30:28.107Z</time></trkpt><trkpt lat="43.6683855" lon="11.2148789"><ele>113.0</ele><time>2026-05-03T12:30:29.114Z</time></trkpt><trkpt lat="43.6685178" lon="11.2148492"><ele>113.0</ele><time>2026-05-03T12:30:30.105Z</time></trkpt><trkpt lat="43.6686415" lon="11.2148119"><ele>113.0</ele><time>2026-05-03T12:30:31.1Z</time></trkpt><trkpt lat="43.6687636" lon="11.2147779"><ele>113.0</ele><time>2026-05-03T12:30:32.104Z</time></trkpt><trkpt lat="43.668899" lon="11.2147463"><ele>113.0</ele><time>2026-05-03T12:30:33.109Z</time></trkpt><trkpt lat="43.6690235" lon="11.2147034"><ele>113.0</ele><time>2026-05-03T12:30:34.105Z</time></trkpt><trkpt lat="43.6691512" lon="11.2146772"><ele>113.0</ele><time>2026-05-03T12:30:35.1Z</time></trkpt><trkpt lat="43.6692794" lon="11.2146484"><ele>113.0</ele><time>2026-05-03T12:30:36.101Z</time></trkpt><trkpt lat="43.6694104" lon="11.2146201"><ele>113.0</ele><time>2026-05-03T12:30:37.102Z</time></trkpt><trkpt lat="43.6695475" lon="11.2145923"><ele>113.0</ele><time>2026-05-03T12:30:38.102Z</time></trkpt><trkpt lat="43.6696824" lon="11.2145591"><ele>113.0</ele><time>2026-05-03T12:30:39.115Z</time></trkpt><trkpt lat="43.6698019" lon="11.2145202"><ele>112.25</ele><time>2026-05-03T12:30:40.105Z</time></trkpt><trkpt lat="43.6699316" lon="11.2144854"><ele>111.5</ele><time>2026-05-03T12:30:41.105Z</time></trkpt><trkpt lat="43.6700641" lon="11.2144519"><ele>110.75</ele><time>2026-05-03T12:30:42.103Z</time></trkpt><trkpt lat="43.6701965" lon="11.2144267"><ele>110.0</ele><time>2026-05-03T12:30:43.103Z</time></trkpt><trkpt lat="43.6703287" lon="11.2143981"><ele>110.0</ele><time>2026-05-03T12:30:44.1Z</time></trkpt><trkpt lat="43.6704687" lon="11.21437"><ele>110.0</ele><time>2026-05-03T12:30:45.112Z</time></trkpt><trkpt lat="43.6705997" lon="11.2143451"><ele>110.0</ele><time>2026-05-03T12:30:46.111Z</time></trkpt><trkpt lat="43.6707336" lon="11.2143224"><ele>110.0</ele><time>2026-05-03T12:30:47.1Z</time></trkpt><trkpt lat="43.6708622" lon="11.2142978"><ele>110.0</ele><time>2026-05-03T12:30:48.106Z</time></trkpt><trkpt lat="43.6709866" lon="11.2142912"><ele>110.0</ele><time>2026-05-03T12:30:49.106Z</time></trkpt><trkpt lat="43.6711218" lon="11.2142551"><ele>110.0</ele><time>2026-05-03T12:30:50.104Z</time></trkpt><trkpt lat="43.6712503" lon="11.2142295"><ele>110.0</ele><time>2026-05-03T12:30:51.103Z</time></trkpt><trkpt lat="43.671385" lon="11.2141909"><ele>111.0</ele><time>2026-05-03T12:30:52.099Z</time></trkpt><trkpt lat="43.6715093" lon="11.2141576"><ele>112.0</ele><time>2026-05-03T12:30:53.102Z</time></trkpt><trkpt lat="43.6716356" lon="11.2141304"><ele>113.0</ele><time>2026-05-03T12:30:54.102Z</time></trkpt><trkpt lat="43.6717672" lon="11.2140971"><ele>114.0</ele><time>2026-05-03T12:30:55.103Z</time></trkpt><trkpt lat="43.6719084" lon="11.2140735"><ele>112.75</ele><time>2026-05-03T12:30:56.102Z</time></trkpt><trkpt lat="43.6720541" lon="11.2140436"><ele>111.5</ele><time>2026-05-03T12:30:57.098Z</time></trkpt><trkpt lat="43.6721987" lon="11.2140314"><ele>110.25</ele><time>2026-05-03T12:30:58.105Z</time></trkpt><trkpt lat="43.672342" lon="11.2140517"><ele>109.0</ele><time>2026-05-03T12:30:59.101Z</time></trkpt><trkpt lat="43.6724831" lon="11.2141194"><ele>109.0</ele><time>2026-05-03T12:31:00.106Z</time></trkpt><trkpt lat="43.672618" lon="11.2141839"><ele>109.0</ele><time>2026-05-03T12:31:01.101Z</time></trkpt><trkpt lat="43.6727524" lon="11.2142764"><ele>109.0</ele><time>2026-05-03T12:31:02.11Z</time></trkpt><trkpt lat="43.6728848" lon="11.2143755"><ele>109.0</ele><time>2026-05-03T12:31:03.1Z</time></trkpt><trkpt lat="43.6730035" lon="11.2144976"><ele>108.5</ele><time>2026-05-03T12:31:04.102Z</time></trkpt><trkpt lat="43.6731039" lon="11.2146232"><ele>108.0</ele><time>2026-05-03T12:31:05.113Z</time></trkpt><trkpt lat="43.6732038" lon="11.2147697"><ele>107.5</ele><time>2026-05-03T12:31:06.101Z</time></trkpt><trkpt lat="43.6732979" lon="11.2149122"><ele>107.0</ele><time>2026-05-03T12:31:07.103Z</time></trkpt><trkpt lat="43.6733798" lon="11.2150841"><ele>107.0</ele><time>2026-05-03T12:31:08.101Z</time></trkpt><trkpt lat="43.6734735" lon="11.2152398"><ele>107.0</ele><time>2026-05-03T12:31:09.1Z</time></trkpt><trkpt lat="43.6735869" lon="11.2153888"><ele>107.0</ele><time>2026-05-03T12:31:10.109Z</time></trkpt><trkpt lat="43.6737249" lon="11.2155382"><ele>106.33333333333333</ele><time>2026-05-03T12:31:11.104Z</time></trkpt><trkpt lat="43.6738714" lon="11.2156497"><ele>105.66666666666666</ele><time>2026-05-03T12:31:12.099Z</time></trkpt><trkpt lat="43.6740165" lon="11.2157562"><ele>105.0</ele><time>2026-05-03T12:31:13.104Z</time></trkpt><trkpt lat="43.6741526" lon="11.2158437"><ele>105.0</ele><time>2026-05-03T12:31:14.103Z</time></trkpt><trkpt lat="43.67429" lon="11.2159164"><ele>105.0</ele><time>2026-05-03T12:31:15.105Z</time></trkpt><trkpt lat="43.674416" lon="11.215966"><ele>105.0</ele><time>2026-05-03T12:31:16.103Z</time></trkpt><trkpt lat="43.6745061" lon="11.2159969"><ele>105.0</ele><time>2026-05-03T12:31:17.099Z</time></trkpt><trkpt lat="43.6746167" lon="11.2160055"><ele>105.8</ele><time>2026-05-03T12:31:18.112Z</time></trkpt><trkpt lat="43.674721" lon="11.2160314"><ele>106.6</ele><time>2026-05-03T12:31:19.106Z</time></trkpt><trkpt lat="43.6748209" lon="11.216004"><ele>107.4</ele><time>2026-05-03T12:31:20.098Z</time></trkpt><trkpt lat="43.674928" lon="11.2159693"><ele>108.2</ele><time>2026-05-03T12:31:21.104Z</time></trkpt><trkpt lat="43.6750251" lon="11.2159129"><ele>109.0</ele><time>2026-05-03T12:31:22.099Z</time></trkpt><trkpt lat="43.6751113" lon="11.2158561"><ele>109.00000000000001</ele><time>2026-05-03T12:31:23.099Z</time></trkpt><trkpt lat="43.6751957" lon="11.2157896"><ele>109.0</ele><time>2026-05-03T12:31:24.099Z</time></trkpt><trkpt lat="43.6752672" lon="11.2157139"><ele>109.0</ele><time>2026-05-03T12:31:25.105Z</time></trkpt><trkpt lat="43.6753338" lon="11.2156452"><ele>109.0</ele><time>2026-05-03T12:31:26.104Z</time></trkpt><trkpt lat="43.675394" lon="11.2155865"><ele>109.00000000000001</ele><time>2026-05-03T12:31:27.103Z</time></trkpt><trkpt lat="43.6754434" lon="11.2155311"><ele>109.0</ele><time>2026-05-03T12:31:28.1Z</time></trkpt><trkpt lat="43.675489" lon="11.2154593"><ele>108.71428571428572</ele><time>2026-05-03T12:31:30.105Z</time></trkpt><trkpt lat="43.6755534" lon="11.2154371"><ele>108.42857142857143</ele><time>2026-05-03T12:31:35.098Z</time></trkpt><trkpt lat="43.6756258" lon="11.215398"><ele>108.14285714285714</ele><time>2026-05-03T12:31:40.102Z</time></trkpt><trkpt lat="43.6755949" lon="11.2153128"><ele>107.85714285714286</ele><time>2026-05-03T12:32:38.105Z</time></trkpt><trkpt lat="43.6755672" lon="11.2154025"><ele>107.57142857142857</ele><time>2026-05-03T12:35:09.106Z</time></trkpt><trkpt lat="43.6754932" lon="11.2153693"><ele>107.28571428571429</ele><time>2026-05-03T12:35:23.1Z</time></trkpt><trkpt lat="43.6754948" lon="11.2154725"><ele>107.0</ele><time>2026-05-03T12:35:56.106Z</time></trkpt><trkpt lat="43.6754902" lon="11.2155614"><ele>107.00000000000001</ele><time>2026-05-03T12:36:20.103Z</time></trkpt><trkpt lat="43.6754984" lon="11.215472"><ele>107.0</ele><time>2026-05-03T12:43:37.099Z</time></trkpt><trkpt lat="43.675504" lon="11.2153814"><ele>107.0</ele><time>2026-05-03T12:43:41.104Z</time></trkpt><trkpt lat="43.6755383" lon="11.2152873"><ele>107.0</ele><time>2026-05-03T12:44:32.005Z</time></trkpt><trkpt lat="43.6755324" lon="11.2153966"><ele>107.0</ele><time>2026-05-03T12:51:56.098Z</time></trkpt><trkpt lat="43.6755994" lon="11.2153763"><ele>107.00000000000001</ele><time>2026-05-03T12:52:05.098Z</time></trkpt><trkpt lat="43.6756371" lon="11.2152911"><ele>107.0</ele><time>2026-05-03T12:53:10.105Z</time></trkpt><trkpt lat="43.6757651" lon="11.215148"><ele>107.0</ele><time>2026-05-03T12:54:12.099Z</time></trkpt><trkpt lat="43.6759002" lon="11.2149207"><ele>107.0</ele><time>2026-05-03T12:54:13.103Z</time></trkpt><trkpt lat="43.676009" lon="11.2146816"><ele>107.0</ele><time>2026-05-03T12:54:14.098Z</time></trkpt><trkpt lat="43.6760744" lon="11.2144771"><ele>108.25</ele><time>2026-05-03T12:54:15.099Z</time></trkpt><trkpt lat="43.6761279" lon="11.2142886"><ele>109.5</ele><time>2026-05-03T12:54:16.098Z</time></trkpt><trkpt lat="43.6761639" lon="11.2141093"><ele>110.75</ele><time>2026-05-03T12:54:17.1Z</time></trkpt><trkpt lat="43.6761871" lon="11.2139259"><ele>112.0</ele><time>2026-05-03T12:54:18.102Z</time></trkpt><trkpt lat="43.6762039" lon="11.2137628"><ele>112.0</ele><time>2026-05-03T12:54:19.097Z</time></trkpt><trkpt lat="43.6762195" lon="11.2136127"><ele>111.99999999999999</ele><time>2026-05-03T12:54:20.097Z</time></trkpt><trkpt lat="43.6762129" lon="11.2134591"><ele>111.99999999999999</ele><time>2026-05-03T12:54:21.098Z</time></trkpt><trkpt lat="43.6762143" lon="11.2133072"><ele>112.0</ele><time>2026-05-03T12:54:22.1Z</time></trkpt><trkpt lat="43.6762321" lon="11.2131631"><ele>112.0</ele><time>2026-05-03T12:54:23.102Z</time></trkpt><trkpt lat="43.6762319" lon="11.2129978"><ele>111.75</ele><time>2026-05-03T12:54:24.096Z</time></trkpt><trkpt lat="43.6762386" lon="11.2128543"><ele>111.5</ele><time>2026-05-03T12:54:25.098Z</time></trkpt><trkpt lat="43.6762354" lon="11.2126983"><ele>111.25</ele><time>2026-05-03T12:54:26.102Z</time></trkpt><trkpt lat="43.6762424" lon="11.2125438"><ele>111.0</ele><time>2026-05-03T12:54:27.103Z</time></trkpt><trkpt lat="43.6762555" lon="11.2123609"><ele>111.75</ele><time>2026-05-03T12:54:28.099Z</time></trkpt><trkpt lat="43.6762763" lon="11.2121727"><ele>112.5</ele><time>2026-05-03T12:54:29.097Z</time></trkpt><trkpt lat="43.6762704" lon="11.2120065"><ele>113.25</ele><time>2026-05-03T12:54:30.098Z</time></trkpt><trkpt lat="43.6762717" lon="11.2118513"><ele>114.0</ele><time>2026-05-03T12:54:31.096Z</time></trkpt><trkpt lat="43.6762792" lon="11.2116794"><ele>114.0</ele><time>2026-05-03T12:54:32.099Z</time></trkpt><trkpt lat="43.6762827" lon="11.2114973"><ele>114.0</ele><time>2026-05-03T12:54:33.094Z</time></trkpt><trkpt lat="43.6763001" lon="11.2113363"><ele>114.0</ele><time>2026-05-03T12:54:34.1Z</time></trkpt><trkpt lat="43.6763121" lon="11.211168"><ele>114.0</ele><time>2026-05-03T12:54:35.104Z</time></trkpt><trkpt lat="43.6763434" lon="11.211014"><ele>114.25</ele><time>2026-05-03T12:54:36.095Z</time></trkpt><trkpt lat="43.6763824" lon="11.2108564"><ele>114.5</ele><time>2026-05-03T12:54:37.095Z</time></trkpt><trkpt lat="43.6764086" lon="11.2106751"><ele>114.75</ele><time>2026-05-03T12:54:38.098Z</time></trkpt><trkpt lat="43.6764834" lon="11.2105125"><ele>115.0</ele><time>2026-05-03T12:54:39.098Z</time></trkpt><trkpt lat="43.6765826" lon="11.2103643"><ele>112.25</ele><time>2026-05-03T12:54:40.098Z</time></trkpt><trkpt lat="43.6766253" lon="11.2101969"><ele>109.5</ele><time>2026-05-03T12:54:41.102Z</time></trkpt><trkpt lat="43.6767481" lon="11.2100958"><ele>106.75</ele><time>2026-05-03T12:54:42.102Z</time></trkpt><trkpt lat="43.6768433" lon="11.209963"><ele>104.0</ele><time>2026-05-03T12:54:43.1Z</time></trkpt><trkpt lat="43.6769307" lon="11.2098498"><ele>103.0</ele><time>2026-05-03T12:54:44.097Z</time></trkpt><trkpt lat="43.6770351" lon="11.2097601"><ele>102.0</ele><time>2026-05-03T12:54:45.097Z</time></trkpt><trkpt lat="43.6771543" lon="11.2096889"><ele>101.0</ele><time>2026-05-03T12:54:46.098Z</time></trkpt><trkpt lat="43.6772834" lon="11.2096008"><ele>100.0</ele><time>2026-05-03T12:54:47.099Z</time></trkpt><trkpt lat="43.6773911" lon="11.2095349"><ele>100.0</ele><time>2026-05-03T12:54:48.1Z</time></trkpt><trkpt lat="43.6775189" lon="11.2095393"><ele>100.0</ele><time>2026-05-03T12:54:49.099Z</time></trkpt><trkpt lat="43.6776251" lon="11.2095022"><ele>100.0</ele><time>2026-05-03T12:54:50.095Z</time></trkpt><trkpt lat="43.677737" lon="11.2094568"><ele>100.0</ele><time>2026-05-03T12:54:51.099Z</time></trkpt><trkpt lat="43.6778729" lon="11.2094527"><ele>99.25</ele><time>2026-05-03T12:54:52.095Z</time></trkpt><trkpt lat="43.6779959" lon="11.2094615"><ele>98.5</ele><time>2026-05-03T12:54:53.098Z</time></trkpt><trkpt lat="43.6781165" lon="11.2094922"><ele>97.75</ele><time>2026-05-03T12:54:54.1Z</time></trkpt><trkpt lat="43.6782478" lon="11.2095235"><ele>97.0</ele><time>2026-05-03T12:54:55.101Z</time></trkpt><trkpt lat="43.6783805" lon="11.2096031"><ele>97.0</ele><time>2026-05-03T12:54:56.101Z</time></trkpt><trkpt lat="43.6785021" lon="11.209671"><ele>97.0</ele><time>2026-05-03T12:54:57.104Z</time></trkpt><trkpt lat="43.6786249" lon="11.2097615"><ele>97.0</ele><time>2026-05-03T12:54:58.1Z</time></trkpt><trkpt lat="43.6787436" lon="11.2098625"><ele>97.0</ele><time>2026-05-03T12:54:59.097Z</time></trkpt><trkpt lat="43.6788584" lon="11.2099765"><ele>97.0</ele><time>2026-05-03T12:55:00.099Z</time></trkpt><trkpt lat="43.6789531" lon="11.2100945"><ele>97.0</ele><time>2026-05-03T12:55:01.099Z</time></trkpt><trkpt lat="43.6790459" lon="11.2102202"><ele>97.0</ele><time>2026-05-03T12:55:02.094Z</time></trkpt><trkpt lat="43.6791383" lon="11.210347"><ele>97.0</ele><time>2026-05-03T12:55:03.095Z</time></trkpt><trkpt lat="43.6792322" lon="11.210455"><ele>97.0</ele><time>2026-05-03T12:55:04.095Z</time></trkpt><trkpt lat="43.6793213" lon="11.2105773"><ele>97.0</ele><time>2026-05-03T12:55:05.095Z</time></trkpt><trkpt lat="43.6794271" lon="11.2106811"><ele>97.0</ele><time>2026-05-03T12:55:06.1Z</time></trkpt><trkpt lat="43.679526" lon="11.2107871"><ele>97.0</ele><time>2026-05-03T12:55:07.093Z</time></trkpt><trkpt lat="43.6796325" lon="11.2109032"><ele>96.75</ele><time>2026-05-03T12:55:08.099Z</time></trkpt><trkpt lat="43.6797411" lon="11.2110092"><ele>96.5</ele><time>2026-05-03T12:55:09.098Z</time></trkpt><trkpt lat="43.679843" lon="11.2111223"><ele>96.25</ele><time>2026-05-03T12:55:10.097Z</time></trkpt><trkpt lat="43.6799492" lon="11.211229"><ele>96.0</ele><time>2026-05-03T12:55:11.096Z</time></trkpt><trkpt lat="43.6800492" lon="11.2113286"><ele>96.0</ele><time>2026-05-03T12:55:12.097Z</time></trkpt><trkpt lat="43.6801537" lon="11.2114486"><ele>96.0</ele><time>2026-05-03T12:55:13.105Z</time></trkpt><trkpt lat="43.6802534" lon="11.2115377"><ele>96.0</ele><time>2026-05-03T12:55:14.102Z</time></trkpt><trkpt lat="43.6803508" lon="11.211639"><ele>96.0</ele><time>2026-05-03T12:55:15.097Z</time></trkpt><trkpt lat="43.6804455" lon="11.211745"><ele>96.0</ele><time>2026-05-03T12:55:16.097Z</time></trkpt><trkpt lat="43.6805488" lon="11.2118516"><ele>96.0</ele><time>2026-05-03T12:55:17.097Z</time></trkpt><trkpt lat="43.680647" lon="11.2119579"><ele>96.0</ele><time>2026-05-03T12:55:18.1Z</time></trkpt><trkpt lat="43.6807485" lon="11.2120842"><ele>96.0</ele><time>2026-05-03T12:55:19.101Z</time></trkpt><trkpt lat="43.6808539" lon="11.2122084"><ele>96.5</ele><time>2026-05-03T12:55:20.098Z</time></trkpt><trkpt lat="43.6809646" lon="11.2123236"><ele>97.0</ele><time>2026-05-03T12:55:21.097Z</time></trkpt><trkpt lat="43.6810787" lon="11.2124715"><ele>97.5</ele><time>2026-05-03T12:55:22.099Z</time></trkpt><trkpt lat="43.6811583" lon="11.2125276"><ele>98.0</ele><time>2026-05-03T12:55:23.099Z</time></trkpt><trkpt lat="43.6812646" lon="11.2125803"><ele>98.0</ele><time>2026-05-03T12:55:24.097Z</time></trkpt><trkpt lat="43.681366" lon="11.2126318"><ele>98.0</ele><time>2026-05-03T12:55:25.099Z</time></trkpt><trkpt lat="43.681477" lon="11.2126637"><ele>98.0</ele><time>2026-05-03T12:55:26.102Z</time></trkpt><trkpt lat="43.6815848" lon="11.2126938"><ele>98.0</ele><time>2026-05-03T12:55:27.103Z</time></trkpt><trkpt lat="43.6816953" lon="11.2127319"><ele>98.0</ele><time>2026-05-03T12:55:28.096Z</time></trkpt><trkpt lat="43.6818087" lon="11.2127767"><ele>98.0</ele><time>2026-05-03T12:55:29.096Z</time></trkpt><trkpt lat="43.6819059" lon="11.2128072"><ele>98.0</ele><time>2026-05-03T12:55:30.103Z</time></trkpt><trkpt lat="43.6820028" lon="11.212836"><ele>98.0</ele><time>2026-05-03T12:55:31.097Z</time></trkpt><trkpt lat="43.6820836" lon="11.212835"><ele>98.0</ele><time>2026-05-03T12:55:32.099Z</time></trkpt><trkpt lat="43.6821755" lon="11.2128742"><ele>98.0</ele><time>2026-05-03T12:55:34.098Z</time></trkpt><trkpt lat="43.6820776" lon="11.2127697"><ele>98.0</ele><time>2026-05-03T12:55:48.1Z</time></trkpt><trkpt lat="43.6819748" lon="11.2127391"><ele>98.0</ele><time>2026-05-03T12:55:49.096Z</time></trkpt><trkpt lat="43.6818749" lon="11.2127185"><ele>98.0</ele><time>2026-05-03T12:55:50.098Z</time></trkpt><trkpt lat="43.6817632" lon="11.2126782"><ele>98.0</ele><time>2026-05-03T12:55:51.096Z</time></trkpt><trkpt lat="43.6816519" lon="11.2126491"><ele>98.0</ele><time>2026-05-03T12:55:52.096Z</time></trkpt><trkpt lat="43.6815375" lon="11.2126033"><ele>98.0</ele><time>2026-05-03T12:55:53.103Z</time></trkpt><trkpt lat="43.6814226" lon="11.2125668"><ele>98.0</ele><time>2026-05-03T12:55:54.098Z</time></trkpt><trkpt lat="43.6813223" lon="11.2125203"><ele>98.0</ele><time>2026-05-03T12:55:55.095Z</time></trkpt><trkpt lat="43.6812414" lon="11.212467"><ele>98.0</ele><time>2026-05-03T12:55:56.098Z</time></trkpt><trkpt lat="43.6811792" lon="11.2124255"><ele>98.0</ele><time>2026-05-03T12:55:57.1Z</time></trkpt><trkpt lat="43.6811583" lon="11.2123177"><ele>97.60000000000001</ele><time>2026-05-03T12:56:00.095Z</time></trkpt><trkpt lat="43.6812268" lon="11.212203"><ele>97.2</ele><time>2026-05-03T12:56:02.099Z</time></trkpt><trkpt lat="43.6812686" lon="11.2121266"><ele>96.8</ele><time>2026-05-03T12:56:03.094Z</time></trkpt><trkpt lat="43.6813237" lon="11.212053"><ele>96.4</ele><time>2026-05-03T12:56:04.102Z</time></trkpt><trkpt lat="43.6813656" lon="11.2119546"><ele>96.0</ele><time>2026-05-03T12:56:05.098Z</time></trkpt><trkpt lat="43.6814765" lon="11.2118578"><ele>96.0</ele><time>2026-05-03T12:56:07.097Z</time></trkpt><trkpt lat="43.681541" lon="11.2118094"><ele>96.0</ele><time>2026-05-03T12:56:08.098Z</time></trkpt><trkpt lat="43.6816258" lon="11.2117856"><ele>96.0</ele><time>2026-05-03T12:56:09.095Z</time></trkpt><trkpt lat="43.6817365" lon="11.2117627"><ele>96.0</ele><time>2026-05-03T12:56:10.1Z</time></trkpt><trkpt lat="43.681844" lon="11.2117325"><ele>96.0</ele><time>2026-05-03T12:56:11.1Z</time></trkpt><trkpt lat="43.6819688" lon="11.2117091"><ele>96.0</ele><time>2026-05-03T12:56:12.094Z</time></trkpt><trkpt lat="43.6820966" lon="11.2116848"><ele>96.0</ele><time>2026-05-03T12:56:13.094Z</time></trkpt><trkpt lat="43.6822549" lon="11.2116969"><ele>96.0</ele><time>2026-05-03T12:56:14.098Z</time></trkpt><trkpt lat="43.6824059" lon="11.2117022"><ele>96.0</ele><time>2026-05-03T12:56:15.097Z</time></trkpt><trkpt lat="43.6825247" lon="11.211687"><ele>96.0</ele><time>2026-05-03T12:56:16.096Z</time></trkpt><trkpt lat="43.682647" lon="11.2116623"><ele>96.0</ele><time>2026-05-03T12:56:17.095Z</time></trkpt><trkpt lat="43.6827339" lon="11.2116406"><ele>96.0</ele><time>2026-05-03T12:56:18.098Z</time></trkpt><trkpt lat="43.6828344" lon="11.2116412"><ele>96.0</ele><time>2026-05-03T12:56:19.094Z</time></trkpt><trkpt lat="43.6829064" lon="11.2116084"><ele>96.0</ele><time>2026-05-03T12:56:20.098Z</time></trkpt><trkpt lat="43.6829872" lon="11.2115741"><ele>96.8</ele><time>2026-05-03T12:56:21.099Z</time></trkpt><trkpt lat="43.6830607" lon="11.2115466"><ele>97.6</ele><time>2026-05-03T12:56:22.096Z</time></trkpt><trkpt lat="43.6830421" lon="11.2113889"><ele>98.4</ele><time>2026-05-03T12:56:23.099Z</time></trkpt><trkpt lat="43.683029" lon="11.2112913"><ele>99.2</ele><time>2026-05-03T12:56:24.101Z</time></trkpt><trkpt lat="43.6829785" lon="11.2111585"><ele>100.0</ele><time>2026-05-03T12:56:25.099Z</time></trkpt><trkpt lat="43.6829458" lon="11.2110271"><ele>103.8</ele><time>2026-05-03T12:56:26.1Z</time></trkpt><trkpt lat="43.6829168" lon="11.2109013"><ele>107.6</ele><time>2026-05-03T12:56:27.096Z</time></trkpt><trkpt lat="43.6828689" lon="11.2107612"><ele>111.4</ele><time>2026-05-03T12:56:28.096Z</time></trkpt><trkpt lat="43.6828729" lon="11.2106357"><ele>115.2</ele><time>2026-05-03T12:56:29.095Z</time></trkpt><trkpt lat="43.6828659" lon="11.2105277"><ele>119.0</ele><time>2026-05-03T12:56:30.098Z</time></trkpt><trkpt lat="43.6828768" lon="11.2103693"><ele>119.49999999999999</ele><time>2026-05-03T12:56:32.101Z</time></trkpt><trkpt lat="43.6828959" lon="11.2102265"><ele>120.0</ele><time>2026-05-03T12:56:35.094Z</time></trkpt><trkpt lat="43.6828277" lon="11.2101304"><ele>120.5</ele><time>2026-05-03T12:56:37.094Z</time></trkpt><trkpt lat="43.682783" lon="11.2100511"><ele>121.0</ele><time>2026-05-03T12:56:39.096Z</time></trkpt><trkpt lat="43.6827511" lon="11.2099743"><ele>121.49999999999999</ele><time>2026-05-03T12:56:41.096Z</time></trkpt><trkpt lat="43.682819" lon="11.209935"><ele>122.0</ele><time>2026-05-03T12:56:46.096Z</time></trkpt><trkpt lat="43.682905" lon="11.2100658"><ele>121.99999999999999</ele><time>2026-05-03T12:56:48.099Z</time></trkpt><trkpt lat="43.6829686" lon="11.2101527"><ele>122.0</ele><time>2026-05-03T12:56:49.101Z</time></trkpt><trkpt lat="43.683" lon="11.2102412"><ele>122.0</ele><time>2026-05-03T12:56:50.099Z</time></trkpt><trkpt lat="43.6830481" lon="11.2103127"><ele>122.0</ele><time>2026-05-03T12:56:51.096Z</time></trkpt><trkpt lat="43.683096" lon="11.210408"><ele>121.99999999999999</ele><time>2026-05-03T12:56:53.095Z</time></trkpt><trkpt lat="43.6831907" lon="11.2103993"><ele>122.0</ele><time>2026-05-03T12:56:55.099Z</time></trkpt><trkpt lat="43.6832064" lon="11.2102048"><ele>122.0</ele><time>2026-05-03T12:56:57.103Z</time></trkpt><trkpt lat="43.6832448" lon="11.2100467"><ele>122.0</ele><time>2026-05-03T12:56:58.103Z</time></trkpt><trkpt lat="43.6832108" lon="11.2098431"><ele>122.0</ele><time>2026-05-03T12:57:00.097Z</time></trkpt><trkpt lat="43.6832507" lon="11.2097218"><ele>122.0</ele><time>2026-05-03T12:57:01.099Z</time></trkpt><trkpt lat="43.6833204" lon="11.2096213"><ele>121.83333333333333</ele><time>2026-05-03T12:57:02.097Z</time></trkpt><trkpt lat="43.6833429" lon="11.2095269"><ele>121.66666666666666</ele><time>2026-05-03T12:57:03.096Z</time></trkpt><trkpt lat="43.6833938" lon="11.2094373"><ele>121.5</ele><time>2026-05-03T12:57:04.099Z</time></trkpt><trkpt lat="43.6834332" lon="11.2093644"><ele>121.33333333333334</ele><time>2026-05-03T12:57:05.1Z</time></trkpt><trkpt lat="43.6834812" lon="11.2092964"><ele>121.16666666666667</ele><time>2026-05-03T12:57:06.1Z</time></trkpt><trkpt lat="43.6835203" lon="11.2092065"><ele>121.0</ele><time>2026-05-03T12:57:07.094Z</time></trkpt><trkpt lat="43.6836038" lon="11.2090605"><ele>125.66666666666667</ele><time>2026-05-03T12:57:09.099Z</time></trkpt><trkpt lat="43.6836775" lon="11.2089959"><ele>130.33333333333334</ele><time>2026-05-03T12:57:10.095Z</time></trkpt><trkpt lat="43.6837202" lon="11.2088971"><ele>135.0</ele><time>2026-05-03T12:57:11.097Z</time></trkpt><trkpt lat="43.683733" lon="11.2087554"><ele>139.66666666666666</ele><time>2026-05-03T12:57:12.097Z</time></trkpt><trkpt lat="43.6837586" lon="11.2086401"><ele>144.33333333333331</ele><time>2026-05-03T12:57:13.094Z</time></trkpt><trkpt lat="43.6837767" lon="11.2085272"><ele>149.0</ele><time>2026-05-03T12:57:14.094Z</time></trkpt><trkpt lat="43.6837966" lon="11.2084388"><ele>149.0</ele><time>2026-05-03T12:57:15.097Z</time></trkpt><trkpt lat="43.6838397" lon="11.2083375"><ele>149.0</ele><time>2026-05-03T12:57:16.097Z</time></trkpt><trkpt lat="43.6838646" lon="11.2082433"><ele>149.0</ele><time>2026-05-03T12:57:17.101Z</time></trkpt><trkpt lat="43.6838831" lon="11.2081511"><ele>149.0</ele><time>2026-05-03T12:57:18.094Z</time></trkpt><trkpt lat="43.6839606" lon="11.2080003"><ele>149.0</ele><time>2026-05-03T12:57:20.095Z</time></trkpt><trkpt lat="43.6840112" lon="11.207909"><ele>149.0</ele><time>2026-05-03T12:57:21.099Z</time></trkpt><trkpt lat="43.6841019" lon="11.2077764"><ele>149.4</ele><time>2026-05-03T12:57:23.099Z</time></trkpt><trkpt lat="43.684136" lon="11.2076909"><ele>149.8</ele><time>2026-05-03T12:57:24.098Z</time></trkpt><trkpt lat="43.6841524" lon="11.207582"><ele>150.2</ele><time>2026-05-03T12:57:26.1Z</time></trkpt><trkpt lat="43.6841803" lon="11.207446"><ele>150.6</ele><time>2026-05-03T12:57:28.099Z</time></trkpt><trkpt lat="43.6841575" lon="11.2072953"><ele>151.0</ele><time>2026-05-03T12:57:30.1Z</time></trkpt><trkpt lat="43.6840977" lon="11.2071817"><ele>151.0</ele><time>2026-05-03T12:57:32.101Z</time></trkpt><trkpt lat="43.684011" lon="11.207099"><ele>151.0</ele><time>2026-05-03T12:57:34.096Z</time></trkpt><trkpt lat="43.6839005" lon="11.2071107"><ele>151.0</ele><time>2026-05-03T12:57:36.099Z</time></trkpt><trkpt lat="43.6838111" lon="11.2072248"><ele>151.0</ele><time>2026-05-03T12:57:38.096Z</time></trkpt><trkpt lat="43.6837759" lon="11.2073027"><ele>151.0</ele><time>2026-05-03T12:57:39.095Z</time></trkpt><trkpt lat="43.6836978" lon="11.2074534"><ele>151.0</ele><time>2026-05-03T12:57:41.097Z</time></trkpt><trkpt lat="43.6836295" lon="11.2075182"><ele>151.0</ele><time>2026-05-03T12:57:42.111Z</time></trkpt><trkpt lat="43.6835178" lon="11.2075588"><ele>151.0</ele><time>2026-05-03T12:57:43.095Z</time></trkpt><trkpt lat="43.6834005" lon="11.2075816"><ele>151.0</ele><time>2026-05-03T12:57:44.099Z</time></trkpt><trkpt lat="43.6832999" lon="11.2075917"><ele>151.0</ele><time>2026-05-03T12:57:45.102Z</time></trkpt><trkpt lat="43.6832257" lon="11.2075855"><ele>150.5</ele><time>2026-05-03T12:57:46.098Z</time></trkpt><trkpt lat="43.6831535" lon="11.2075684"><ele>150.0</ele><time>2026-05-03T12:57:47.095Z</time></trkpt><trkpt lat="43.6830906" lon="11.2075192"><ele>149.5</ele><time>2026-05-03T12:57:48.096Z</time></trkpt><trkpt lat="43.6830407" lon="11.2074446"><ele>149.0</ele><time>2026-05-03T12:57:49.104Z</time></trkpt><trkpt lat="43.6829769" lon="11.2073052"><ele>148.5</ele><time>2026-05-03T12:57:51.096Z</time></trkpt><trkpt lat="43.6829181" lon="11.2072414"><ele>148.0</ele><time>2026-05-03T12:57:53.098Z</time></trkpt><trkpt lat="43.6828567" lon="11.2072188"><ele>151.0</ele><time>2026-05-03T12:57:57.103Z</time></trkpt><trkpt lat="43.683057" lon="11.2071578"><ele>154.0</ele><time>2026-05-03T12:58:03.096Z</time></trkpt><trkpt lat="43.6831299" lon="11.20718"><ele>157.0</ele><time>2026-05-03T12:58:04.105Z</time></trkpt><trkpt lat="43.6832057" lon="11.2072358"><ele>160.0</ele><time>2026-05-03T12:58:05.106Z</time></trkpt><trkpt lat="43.6832838" lon="11.2072528"><ele>163.0</ele><time>2026-05-03T12:58:06.098Z</time></trkpt><trkpt lat="43.683348" lon="11.2072399"><ele>163.0</ele><time>2026-05-03T12:58:07.095Z</time></trkpt><trkpt lat="43.6834318" lon="11.2072382"><ele>163.0</ele><time>2026-05-03T12:58:08.099Z</time></trkpt><trkpt lat="43.6834988" lon="11.2072221"><ele>163.0</ele><time>2026-05-03T12:58:09.097Z</time></trkpt><trkpt lat="43.683505" lon="11.2071162"><ele>163.0</ele><time>2026-05-03T12:58:10.095Z</time></trkpt><trkpt lat="43.6835433" lon="11.2070203"><ele>163.0</ele><time>2026-05-03T12:58:11.096Z</time></trkpt><trkpt lat="43.6835446" lon="11.2069068"><ele>163.0</ele><time>2026-05-03T12:58:12.098Z</time></trkpt><trkpt lat="43.6834494" lon="11.2068585"><ele>163.0</ele><time>2026-05-03T12:58:14.095Z</time></trkpt><trkpt lat="43.6833022" lon="11.2067573"><ele>163.0</ele><time>2026-05-03T12:58:16.104Z</time></trkpt><trkpt lat="43.6832439" lon="11.2067072"><ele>163.0</ele><time>2026-05-03T12:58:17.103Z</time></trkpt><trkpt lat="43.6831775" lon="11.2066313"><ele>163.0</ele><time>2026-05-03T12:58:18.1Z</time></trkpt><trkpt lat="43.6831196" lon="11.2065813"><ele>163.0</ele><time>2026-05-03T12:58:19.101Z</time></trkpt><trkpt lat="43.6830344" lon="11.2065033"><ele>165.83333333333334</ele><time>2026-05-03T12:58:20.101Z</time></trkpt><trkpt lat="43.6829464" lon="11.2064509"><ele>168.66666666666669</ele><time>2026-05-03T12:58:21.098Z</time></trkpt><trkpt lat="43.6828975" lon="11.2063921"><ele>171.5</ele><time>2026-05-03T12:58:22.098Z</time></trkpt><trkpt lat="43.6828908" lon="11.206302"><ele>174.33333333333334</ele><time>2026-05-03T12:58:23.096Z</time></trkpt><trkpt lat="43.6829081" lon="11.2062109"><ele>177.16666666666666</ele><time>2026-05-03T12:58:24.096Z</time></trkpt><trkpt lat="43.6829824" lon="11.2061658"><ele>180.0</ele><time>2026-05-03T12:58:26.099Z</time></trkpt><trkpt lat="43.6830562" lon="11.2062139"><ele>180.0</ele><time>2026-05-03T12:58:29.1Z</time></trkpt><trkpt lat="43.6831445" lon="11.206227"><ele>180.0</ele><time>2026-05-03T12:58:31.104Z</time></trkpt><trkpt lat="43.6832146" lon="11.2062356"><ele>180.0</ele><time>2026-05-03T12:58:34.099Z</time></trkpt><trkpt lat="43.6833155" lon="11.2062159"><ele>180.0</ele><time>2026-05-03T12:58:37.096Z</time></trkpt><trkpt lat="43.6834008" lon="11.2061705"><ele>180.0</ele><time>2026-05-03T12:58:39.095Z</time></trkpt><trkpt lat="43.6834805" lon="11.2061518"><ele>180.0</ele><time>2026-05-03T12:58:40.096Z</time></trkpt><trkpt lat="43.6836222" lon="11.2061572"><ele>180.6</ele><time>2026-05-03T12:58:42.099Z</time></trkpt><trkpt lat="43.6836908" lon="11.2061734"><ele>181.2</ele><time>2026-05-03T12:58:43.097Z</time></trkpt><trkpt lat="43.6838021" lon="11.2061143"><ele>181.8</ele><time>2026-05-03T12:58:45.098Z</time></trkpt><trkpt lat="43.6838681" lon="11.2060465"><ele>182.4</ele><time>2026-05-03T12:58:46.096Z</time></trkpt><trkpt lat="43.6839316" lon="11.2059692"><ele>183.0</ele><time>2026-05-03T12:58:47.096Z</time></trkpt><trkpt lat="43.6840123" lon="11.2058657"><ele>183.0</ele><time>2026-05-03T12:58:48.099Z</time></trkpt><trkpt lat="43.684082" lon="11.2057342"><ele>183.0</ele><time>2026-05-03T12:58:49.095Z</time></trkpt><trkpt lat="43.6838993" lon="11.2056513"><ele>183.0</ele><time>2026-05-03T12:58:57.098Z</time></trkpt><trkpt lat="43.6838265" lon="11.205635"><ele>183.0</ele><time>2026-05-03T12:58:58.097Z</time></trkpt><trkpt lat="43.6837358" lon="11.2056607"><ele>184.75</ele><time>2026-05-03T12:58:59.104Z</time></trkpt><trkpt lat="43.6836535" lon="11.2056178"><ele>186.5</ele><time>2026-05-03T12:59:00.097Z</time></trkpt><trkpt lat="43.6835198" lon="11.2055609"><ele>188.25</ele><time>2026-05-03T12:59:02.1Z</time></trkpt><trkpt lat="43.683382" lon="11.20541"><ele>190.0</ele><time>2026-05-03T12:59:04.098Z</time></trkpt><trkpt lat="43.6833488" lon="11.2053341"><ele>190.0</ele><time>2026-05-03T12:59:05.097Z</time></trkpt><trkpt lat="43.6833526" lon="11.2052448"><ele>190.0</ele><time>2026-05-03T12:59:06.092Z</time></trkpt><trkpt lat="43.6833529" lon="11.2051472"><ele>190.0</ele><time>2026-05-03T12:59:07.095Z</time></trkpt><trkpt lat="43.6833642" lon="11.2050432"><ele>190.0</ele><time>2026-05-03T12:59:09.101Z</time></trkpt><trkpt lat="43.6834686" lon="11.2049353"><ele>190.0</ele><time>2026-05-03T12:59:11.096Z</time></trkpt><trkpt lat="43.6835719" lon="11.2049346"><ele>190.0</ele><time>2026-05-03T12:59:13.098Z</time></trkpt><trkpt lat="43.6836208" lon="11.2048781"><ele>191.66666666666669</ele><time>2026-05-03T12:59:14.096Z</time></trkpt><trkpt lat="43.6837383" lon="11.2049279"><ele>193.33333333333334</ele><time>2026-05-03T12:59:15.097Z</time></trkpt><trkpt lat="43.6837813" lon="11.2049925"><ele>195.0</ele><time>2026-05-03T12:59:16.095Z</time></trkpt><trkpt lat="43.6838764" lon="11.2050059"><ele>196.66666666666669</ele><time>2026-05-03T12:59:18.097Z</time></trkpt><trkpt lat="43.6839495" lon="11.204978"><ele>198.33333333333334</ele><time>2026-05-03T12:59:19.094Z</time></trkpt><trkpt lat="43.6840145" lon="11.2049104"><ele>200.0</ele><time>2026-05-03T12:59:20.099Z</time></trkpt><trkpt lat="43.684073" lon="11.2047328"><ele>203.5</ele><time>2026-05-03T12:59:22.095Z</time></trkpt><trkpt lat="43.6841289" lon="11.2045754"><ele>207.0</ele><time>2026-05-03T12:59:23.096Z</time></trkpt><trkpt lat="43.6841659" lon="11.204411"><ele>210.5</ele><time>2026-05-03T12:59:24.096Z</time></trkpt><trkpt lat="43.6842305" lon="11.2042721"><ele>214.0</ele><time>2026-05-03T12:59:25.098Z</time></trkpt><trkpt lat="43.6842815" lon="11.2041484"><ele>214.0</ele><time>2026-05-03T12:59:26.108Z</time></trkpt><trkpt lat="43.6843476" lon="11.204002"><ele>213.99999999999997</ele><time>2026-05-03T12:59:27.098Z</time></trkpt><trkpt lat="43.6843452" lon="11.2038044"><ele>213.99999999999997</ele><time>2026-05-03T12:59:29.099Z</time></trkpt><trkpt lat="43.6843507" lon="11.2036759"><ele>214.0</ele><time>2026-05-03T12:59:30.096Z</time></trkpt><trkpt lat="43.6843816" lon="11.2035618"><ele>214.0</ele><time>2026-05-03T12:59:32.102Z</time></trkpt><trkpt lat="43.6844234" lon="11.2034869"><ele>212.99999999999997</ele><time>2026-05-03T12:59:33.102Z</time></trkpt><trkpt lat="43.6844732" lon="11.2034098"><ele>212.0</ele><time>2026-05-03T12:59:34.102Z</time></trkpt><trkpt lat="43.6845185" lon="11.2033348"><ele>211.0</ele><time>2026-05-03T12:59:35.105Z</time></trkpt><trkpt lat="43.6845776" lon="11.2032713"><ele>210.0</ele><time>2026-05-03T12:59:36.098Z</time></trkpt><trkpt lat="43.6846491" lon="11.2031887"><ele>208.99999999999997</ele><time>2026-05-03T12:59:37.101Z</time></trkpt><trkpt lat="43.6847743" lon="11.2031712"><ele>208.0</ele><time>2026-05-03T12:59:38.099Z</time></trkpt><trkpt lat="43.6849007" lon="11.2030794"><ele>209.99999999999997</ele><time>2026-05-03T12:59:40.102Z</time></trkpt><trkpt lat="43.6849952" lon="11.2030671"><ele>212.0</ele><time>2026-05-03T12:59:41.099Z</time></trkpt><trkpt lat="43.6850674" lon="11.2030466"><ele>214.0</ele><time>2026-05-03T12:59:42.099Z</time></trkpt><trkpt lat="43.6851796" lon="11.2030003"><ele>216.0</ele><time>2026-05-03T12:59:44.099Z</time></trkpt><trkpt lat="43.6852503" lon="11.2029764"><ele>217.99999999999997</ele><time>2026-05-03T12:59:45.094Z</time></trkpt><trkpt lat="43.685331" lon="11.2029629"><ele>220.0</ele><time>2026-05-03T12:59:47.096Z</time></trkpt><trkpt lat="43.6854801" lon="11.2030326"><ele>220.66666666666666</ele><time>2026-05-03T12:59:49.107Z</time></trkpt><trkpt lat="43.685542" lon="11.203086"><ele>221.33333333333331</ele><time>2026-05-03T12:59:50.098Z</time></trkpt><trkpt lat="43.6855973" lon="11.2031541"><ele>222.0</ele><time>2026-05-03T12:59:51.094Z</time></trkpt><trkpt lat="43.6856512" lon="11.2032393"><ele>222.66666666666669</ele><time>2026-05-03T12:59:52.094Z</time></trkpt><trkpt lat="43.685724" lon="11.2033701"><ele>223.33333333333334</ele><time>2026-05-03T12:59:54.094Z</time></trkpt><trkpt lat="43.6857635" lon="11.2034832"><ele>224.0</ele><time>2026-05-03T12:59:56.101Z</time></trkpt><trkpt lat="43.6857969" lon="11.2035584"><ele>223.00000000000003</ele><time>2026-05-03T12:59:59.097Z</time></trkpt><trkpt lat="43.6858852" lon="11.2035486"><ele>222.0</ele><time>2026-05-03T13:00:03.095Z</time></trkpt><trkpt lat="43.6859558" lon="11.2034801"><ele>221.0</ele><time>2026-05-03T13:00:06.097Z</time></trkpt><trkpt lat="43.6860245" lon="11.2035165"><ele>220.0</ele><time>2026-05-03T13:00:10.097Z</time></trkpt><trkpt lat="43.6861032" lon="11.2034995"><ele>219.00000000000003</ele><time>2026-05-03T13:00:12.102Z</time></trkpt><trkpt lat="43.6861606" lon="11.2033983"><ele>218.0</ele><time>2026-05-03T13:00:13.1Z</time></trkpt><trkpt lat="43.686219" lon="11.2033409"><ele>218.00000000000003</ele><time>2026-05-03T13:00:15.099Z</time></trkpt><trkpt lat="43.6862675" lon="11.2032837"><ele>218.0</ele><time>2026-05-03T13:00:17.095Z</time></trkpt><trkpt lat="43.6863049" lon="11.2032068"><ele>218.0</ele><time>2026-05-03T13:00:19.1Z</time></trkpt><trkpt lat="43.6863531" lon="11.2031141"><ele>218.0</ele><time>2026-05-03T13:00:21.1Z</time></trkpt><trkpt lat="43.6864274" lon="11.2030506"><ele>218.00000000000003</ele><time>2026-05-03T13:00:22.094Z</time></trkpt><trkpt lat="43.6865143" lon="11.2030091"><ele>218.0</ele><time>2026-05-03T13:00:23.103Z</time></trkpt><trkpt lat="43.6867133" lon="11.2029439"><ele>217.5</ele><time>2026-05-03T13:00:24.101Z</time></trkpt><trkpt lat="43.6868453" lon="11.2028496"><ele>217.0</ele><time>2026-05-03T13:00:25.096Z</time></trkpt><trkpt lat="43.6869334" lon="11.2027577"><ele>216.5</ele><time>2026-05-03T13:00:26.101Z</time></trkpt><trkpt lat="43.6870557" lon="11.2027228"><ele>216.0</ele><time>2026-05-03T13:00:27.103Z</time></trkpt><trkpt lat="43.6871349" lon="11.2026894"><ele>216.0</ele><time>2026-05-03T13:00:28.098Z</time></trkpt><trkpt lat="43.6872663" lon="11.2026489"><ele>216.00000000000003</ele><time>2026-05-03T13:00:29.099Z</time></trkpt><trkpt lat="43.6873823" lon="11.2025494"><ele>216.00000000000003</ele><time>2026-05-03T13:00:31.104Z</time></trkpt><trkpt lat="43.6874135" lon="11.2024604"><ele>216.0</ele><time>2026-05-03T13:00:33.104Z</time></trkpt><trkpt lat="43.687492" lon="11.2024052"><ele>216.0</ele><time>2026-05-03T13:00:35.101Z</time></trkpt><trkpt lat="43.6875687" lon="11.2023504"><ele>215.0</ele><time>2026-05-03T13:00:37.099Z</time></trkpt><trkpt lat="43.68764" lon="11.2022963"><ele>214.00000000000003</ele><time>2026-05-03T13:00:39.099Z</time></trkpt><trkpt lat="43.6877323" lon="11.2022726"><ele>213.0</ele><time>2026-05-03T13:00:41.099Z</time></trkpt><trkpt lat="43.6878025" lon="11.202266"><ele>212.0</ele><time>2026-05-03T13:00:42.103Z</time></trkpt><trkpt lat="43.6879908" lon="11.202284"><ele>211.0</ele><time>2026-05-03T13:00:44.107Z</time></trkpt><trkpt lat="43.688102" lon="11.2022857"><ele>211.75</ele><time>2026-05-03T13:00:45.104Z</time></trkpt><trkpt lat="43.6882087" lon="11.2022986"><ele>212.5</ele><time>2026-05-03T13:00:46.104Z</time></trkpt><trkpt lat="43.6883257" lon="11.2023092"><ele>213.25</ele><time>2026-05-03T13:00:47.1Z</time></trkpt><trkpt lat="43.688446" lon="11.2023277"><ele>214.0</ele><time>2026-05-03T13:00:48.098Z</time></trkpt><trkpt lat="43.6885732" lon="11.2023495"><ele>212.0</ele><time>2026-05-03T13:00:49.098Z</time></trkpt><trkpt lat="43.688697" lon="11.2023728"><ele>210.0</ele><time>2026-05-03T13:00:50.098Z</time></trkpt><trkpt lat="43.6888075" lon="11.202389"><ele>208.0</ele><time>2026-05-03T13:00:51.099Z</time></trkpt><trkpt lat="43.6889161" lon="11.2024118"><ele>206.0</ele><time>2026-05-03T13:00:52.104Z</time></trkpt><trkpt lat="43.6890357" lon="11.2024229"><ele>206.0</ele><time>2026-05-03T13:00:53.098Z</time></trkpt><trkpt lat="43.689164" lon="11.2024451"><ele>206.0</ele><time>2026-05-03T13:00:54.097Z</time></trkpt><trkpt lat="43.6892879" lon="11.2024578"><ele>206.0</ele><time>2026-05-03T13:00:55.097Z</time></trkpt><trkpt lat="43.689429" lon="11.2024601"><ele>206.0</ele><time>2026-05-03T13:00:56.103Z</time></trkpt><trkpt lat="43.6895534" lon="11.2024638"><ele>204.5</ele><time>2026-05-03T13:00:57.103Z</time></trkpt><trkpt lat="43.6896636" lon="11.2024609"><ele>203.0</ele><time>2026-05-03T13:00:58.1Z</time></trkpt><trkpt lat="43.6897829" lon="11.2024512"><ele>201.5</ele><time>2026-05-03T13:00:59.099Z</time></trkpt><trkpt lat="43.6898993" lon="11.2024418"><ele>200.0</ele><time>2026-05-03T13:01:00.103Z</time></trkpt><trkpt lat="43.6900111" lon="11.2024239"><ele>200.0</ele><time>2026-05-03T13:01:01.096Z</time></trkpt><trkpt lat="43.6901184" lon="11.2023988"><ele>200.0</ele><time>2026-05-03T13:01:02.106Z</time></trkpt><trkpt lat="43.6902233" lon="11.2023859"><ele>200.0</ele><time>2026-05-03T13:01:03.098Z</time></trkpt><trkpt lat="43.6903283" lon="11.2023673"><ele>200.0</ele><time>2026-05-03T13:01:04.101Z</time></trkpt><trkpt lat="43.6904337" lon="11.2023439"><ele>200.0</ele><time>2026-05-03T13:01:05.105Z</time></trkpt><trkpt lat="43.6905388" lon="11.2023092"><ele>198.0</ele><time>2026-05-03T13:01:06.103Z</time></trkpt><trkpt lat="43.6906352" lon="11.202266"><ele>196.0</ele><time>2026-05-03T13:01:07.097Z</time></trkpt><trkpt lat="43.6907519" lon="11.2022285"><ele>194.0</ele><time>2026-05-03T13:01:08.098Z</time></trkpt><trkpt lat="43.6908382" lon="11.2021238"><ele>192.0</ele><time>2026-05-03T13:01:09.098Z</time></trkpt><trkpt lat="43.6909346" lon="11.2020485"><ele>190.0</ele><time>2026-05-03T13:01:10.103Z</time></trkpt><trkpt lat="43.6910391" lon="11.2019619"><ele>190.2</ele><time>2026-05-03T13:01:11.103Z</time></trkpt><trkpt lat="43.6911426" lon="11.2019057"><ele>190.4</ele><time>2026-05-03T13:01:12.1Z</time></trkpt><trkpt lat="43.6912346" lon="11.2018482"><ele>190.60000000000002</ele><time>2026-05-03T13:01:13.1Z</time></trkpt><trkpt lat="43.6913198" lon="11.2017899"><ele>190.8</ele><time>2026-05-03T13:01:14.094Z</time></trkpt><trkpt lat="43.6914183" lon="11.2017523"><ele>191.0</ele><time>2026-05-03T13:01:15.106Z</time></trkpt><trkpt lat="43.691489" lon="11.2017175"><ele>191.0</ele><time>2026-05-03T13:01:16.094Z</time></trkpt><trkpt lat="43.6915594" lon="11.2016822"><ele>191.0</ele><time>2026-05-03T13:01:17.095Z</time></trkpt><trkpt lat="43.6916308" lon="11.2016534"><ele>191.0</ele><time>2026-05-03T13:01:18.101Z</time></trkpt><trkpt lat="43.6916993" lon="11.2016281"><ele>191.0</ele><time>2026-05-03T13:01:19.099Z</time></trkpt><trkpt lat="43.6917721" lon="11.201625"><ele>191.0</ele><time>2026-05-03T13:01:20.098Z</time></trkpt><trkpt lat="43.69185" lon="11.2016301"><ele>191.0</ele><time>2026-05-03T13:01:21.099Z</time></trkpt><trkpt lat="43.6919221" lon="11.2016401"><ele>191.0</ele><time>2026-05-03T13:01:22.094Z</time></trkpt><trkpt lat="43.6919925" lon="11.2016781"><ele>190.66666666666666</ele><time>2026-05-03T13:01:23.098Z</time></trkpt><trkpt lat="43.6920638" lon="11.2017314"><ele>190.33333333333331</ele><time>2026-05-03T13:01:24.101Z</time></trkpt><trkpt lat="43.6921365" lon="11.2017893"><ele>190.0</ele><time>2026-05-03T13:01:25.102Z</time></trkpt><trkpt lat="43.6922093" lon="11.201851"><ele>189.66666666666666</ele><time>2026-05-03T13:01:26.105Z</time></trkpt><trkpt lat="43.6922837" lon="11.2019132"><ele>189.33333333333334</ele><time>2026-05-03T13:01:27.098Z</time></trkpt><trkpt lat="43.6923663" lon="11.201977"><ele>189.0</ele><time>2026-05-03T13:01:28.1Z</time></trkpt><trkpt lat="43.6924336" lon="11.2020515"><ele>189.0</ele><time>2026-05-03T13:01:29.098Z</time></trkpt><trkpt lat="43.6924966" lon="11.2020936"><ele>189.0</ele><time>2026-05-03T13:01:30.098Z</time></trkpt><trkpt lat="43.6925647" lon="11.2021305"><ele>189.0</ele><time>2026-05-03T13:01:31.104Z</time></trkpt><trkpt lat="43.6926743" lon="11.2021527"><ele>189.0</ele><time>2026-05-03T13:01:33.105Z</time></trkpt><trkpt lat="43.6927806" lon="11.2021797"><ele>189.0</ele><time>2026-05-03T13:01:35.1Z</time></trkpt><trkpt lat="43.692861" lon="11.2021999"><ele>189.0</ele><time>2026-05-03T13:01:37.094Z</time></trkpt><trkpt lat="43.6927618" lon="11.2021587"><ele>189.0</ele><time>2026-05-03T13:01:42.101Z</time></trkpt><trkpt lat="43.6926346" lon="11.2020925"><ele>189.0</ele><time>2026-05-03T13:01:44.102Z</time></trkpt><trkpt lat="43.6925739" lon="11.2020432"><ele>189.0</ele><time>2026-05-03T13:01:45.097Z</time></trkpt><trkpt lat="43.6925021" lon="11.2020099"><ele>189.0</ele><time>2026-05-03T13:01:46.1Z</time></trkpt><trkpt lat="43.6925061" lon="11.2018889"><ele>189.0</ele><time>2026-05-03T13:01:48.102Z</time></trkpt><trkpt lat="43.6925594" lon="11.2018072"><ele>189.0</ele><time>2026-05-03T13:01:50.101Z</time></trkpt><trkpt lat="43.6925606" lon="11.2017167"><ele>189.0</ele><time>2026-05-03T13:01:52.105Z</time></trkpt><trkpt lat="43.6925699" lon="11.201625"><ele>189.0</ele><time>2026-05-03T13:01:55.102Z</time></trkpt><trkpt lat="43.692565" lon="11.2015318"><ele>189.0</ele><time>2026-05-03T13:01:57.099Z</time></trkpt><trkpt lat="43.6925829" lon="11.2013942"><ele>189.0</ele><time>2026-05-03T13:01:59.1Z</time></trkpt><trkpt lat="43.6925809" lon="11.2012743"><ele>189.0</ele><time>2026-05-03T13:02:01.101Z</time></trkpt><trkpt lat="43.692596" lon="11.2011482"><ele>189.0</ele><time>2026-05-03T13:02:04.095Z</time></trkpt><trkpt lat="43.6926083" lon="11.2010602"><ele>187.66666666666666</ele><time>2026-05-03T13:02:06.096Z</time></trkpt><trkpt lat="43.6926076" lon="11.2009433"><ele>186.33333333333334</ele><time>2026-05-03T13:02:09.094Z</time></trkpt><trkpt lat="43.6925851" lon="11.2008538"><ele>185.0</ele><time>2026-05-03T13:02:11.097Z</time></trkpt><trkpt lat="43.6925632" lon="11.2007581"><ele>183.66666666666669</ele><time>2026-05-03T13:02:31.101Z</time></trkpt><trkpt lat="43.6925205" lon="11.2006608"><ele>182.33333333333334</ele><time>2026-05-03T13:02:33.091Z</time></trkpt><trkpt lat="43.6924453" lon="11.2005474"><ele>181.0</ele><time>2026-05-03T13:02:35.11Z</time></trkpt><trkpt lat="43.692365" lon="11.2004683"><ele>180.8</ele><time>2026-05-03T13:02:37.094Z</time></trkpt><trkpt lat="43.6922991" lon="11.2003793"><ele>180.60000000000002</ele><time>2026-05-03T13:02:39.097Z</time></trkpt><trkpt lat="43.6922417" lon="11.2002675"><ele>180.4</ele><time>2026-05-03T13:02:41.099Z</time></trkpt><trkpt lat="43.6921972" lon="11.2001772"><ele>180.2</ele><time>2026-05-03T13:02:43.097Z</time></trkpt><trkpt lat="43.692131" lon="11.2001545"><ele>180.0</ele><time>2026-05-03T13:02:45.099Z</time></trkpt><trkpt lat="43.6923976" lon="11.2003988"><ele>180.0</ele><time>2026-05-03T13:02:47.106Z</time></trkpt><trkpt lat="43.692337" lon="11.2003495"><ele>180.0</ele><time>2026-05-03T13:02:51.094Z</time></trkpt><trkpt lat="43.6921523" lon="11.2002651"><ele>180.0</ele><time>2026-05-03T13:02:52.099Z</time></trkpt><trkpt lat="43.6919933" lon="11.2002022"><ele>180.0</ele><time>2026-05-03T13:02:53.094Z</time></trkpt><trkpt lat="43.6918801" lon="11.2001451"><ele>182.4</ele><time>2026-05-03T13:02:54.099Z</time></trkpt><trkpt lat="43.6918173" lon="11.2000912"><ele>184.8</ele><time>2026-05-03T13:02:56.099Z</time></trkpt><trkpt lat="43.6917744" lon="11.1999968"><ele>187.2</ele><time>2026-05-03T13:02:59.094Z</time></trkpt><trkpt lat="43.6917864" lon="11.1998974"><ele>189.6</ele><time>2026-05-03T13:03:02.093Z</time></trkpt><trkpt lat="43.6917522" lon="11.199813"><ele>192.0</ele><time>2026-05-03T13:03:05.097Z</time></trkpt><trkpt lat="43.6916212" lon="11.1996988"><ele>192.33333333333334</ele><time>2026-05-03T13:03:07.095Z</time></trkpt><trkpt lat="43.6915573" lon="11.1996992"><ele>192.66666666666669</ele><time>2026-05-03T13:03:09.095Z</time></trkpt><trkpt lat="43.6914836" lon="11.199665"><ele>193.0</ele><time>2026-05-03T13:03:11.094Z</time></trkpt><trkpt lat="43.6914334" lon="11.1995278"><ele>193.33333333333334</ele><time>2026-05-03T13:03:13.091Z</time></trkpt><trkpt lat="43.6913888" lon="11.1994605"><ele>193.66666666666669</ele><time>2026-05-03T13:03:15.093Z</time></trkpt><trkpt lat="43.6913083" lon="11.1994521"><ele>194.0</ele><time>2026-05-03T13:03:17.095Z</time></trkpt><trkpt lat="43.6911969" lon="11.1994256"><ele>194.00000000000003</ele><time>2026-05-03T13:03:19.095Z</time></trkpt><trkpt lat="43.6911603" lon="11.1993111"><ele>194.0</ele><time>2026-05-03T13:03:21.093Z</time></trkpt><trkpt lat="43.6910981" lon="11.1992575"><ele>194.0</ele><time>2026-05-03T13:03:23.092Z</time></trkpt><trkpt lat="43.6910254" lon="11.1992294"><ele>194.0</ele><time>2026-05-03T13:03:25.097Z</time></trkpt><trkpt lat="43.6909655" lon="11.1991731"><ele>194.00000000000003</ele><time>2026-05-03T13:03:27.098Z</time></trkpt><trkpt lat="43.6909405" lon="11.1990696"><ele>194.0</ele><time>2026-05-03T13:03:29.093Z</time></trkpt><trkpt lat="43.6908876" lon="11.1990129"><ele>198.79999999999998</ele><time>2026-05-03T13:03:30.095Z</time></trkpt><trkpt lat="43.6908348" lon="11.1988855"><ele>203.6</ele><time>2026-05-03T13:03:32.097Z</time></trkpt><trkpt lat="43.6907469" lon="11.1987726"><ele>208.4</ele><time>2026-05-03T13:03:34.096Z</time></trkpt><trkpt lat="43.6906483" lon="11.1986752"><ele>213.2</ele><time>2026-05-03T13:03:36.096Z</time></trkpt><trkpt lat="43.6905642" lon="11.1986424"><ele>218.0</ele><time>2026-05-03T13:03:38.094Z</time></trkpt><trkpt lat="43.690503" lon="11.1986139"><ele>218.0</ele><time>2026-05-03T13:03:39.092Z</time></trkpt><trkpt lat="43.6904364" lon="11.1985073"><ele>218.0</ele><time>2026-05-03T13:03:41.096Z</time></trkpt><trkpt lat="43.6903557" lon="11.1984232"><ele>218.0</ele><time>2026-05-03T13:03:43.097Z</time></trkpt><trkpt lat="43.6902896" lon="11.1983378"><ele>218.0</ele><time>2026-05-03T13:03:45.098Z</time></trkpt><trkpt lat="43.6902467" lon="11.1982081"><ele>218.0</ele><time>2026-05-03T13:03:47.094Z</time></trkpt><trkpt lat="43.6902123" lon="11.1981136"><ele>220.2</ele><time>2026-05-03T13:03:48.094Z</time></trkpt><trkpt lat="43.6901859" lon="11.1979922"><ele>222.4</ele><time>2026-05-03T13:03:50.096Z</time></trkpt><trkpt lat="43.6901355" lon="11.1978984"><ele>224.59999999999997</ele><time>2026-05-03T13:03:52.093Z</time></trkpt><trkpt lat="43.6900844" lon="11.1977838"><ele>226.79999999999998</ele><time>2026-05-03T13:03:54.099Z</time></trkpt><trkpt lat="43.6900178" lon="11.1976777"><ele>229.0</ele><time>2026-05-03T13:03:56.098Z</time></trkpt><trkpt lat="43.6899242" lon="11.1976331"><ele>228.99999999999997</ele><time>2026-05-03T13:03:58.094Z</time></trkpt><trkpt lat="43.6898596" lon="11.1976463"><ele>229.0</ele><time>2026-05-03T13:04:02.103Z</time></trkpt><trkpt lat="43.689801" lon="11.1975849"><ele>229.0</ele><time>2026-05-03T13:04:11.096Z</time></trkpt><trkpt lat="43.689769" lon="11.1974807"><ele>229.0</ele><time>2026-05-03T13:04:13.093Z</time></trkpt><trkpt lat="43.6897479" lon="11.1973938"><ele>228.99999999999997</ele><time>2026-05-03T13:04:25.095Z</time></trkpt><trkpt lat="43.6898454" lon="11.1974993"><ele>229.0</ele><time>2026-05-03T13:04:29.097Z</time></trkpt><trkpt lat="43.68982" lon="11.19739"><ele>227.0</ele><time>2026-05-03T13:04:54.1Z</time></trkpt><trkpt lat="43.6897892" lon="11.197269"><ele>224.99999999999997</ele><time>2026-05-03T13:04:57.097Z</time></trkpt><trkpt lat="43.6897415" lon="11.1971534"><ele>222.99999999999997</ele><time>2026-05-03T13:05:00.098Z</time></trkpt><trkpt lat="43.6897074" lon="11.1970572"><ele>221.0</ele><time>2026-05-03T13:05:02.094Z</time></trkpt><trkpt lat="43.6896507" lon="11.1969258"><ele>219.0</ele><time>2026-05-03T13:05:04.099Z</time></trkpt><trkpt lat="43.6896108" lon="11.1968063"><ele>219.0</ele><time>2026-05-03T13:05:07.099Z</time></trkpt><trkpt lat="43.6895792" lon="11.1967176"><ele>219.0</ele><time>2026-05-03T13:05:09.094Z</time></trkpt><trkpt lat="43.6895346" lon="11.1966467"><ele>219.0</ele><time>2026-05-03T13:05:11.039Z</time></trkpt><trkpt lat="43.6894717" lon="11.1965523"><ele>219.0</ele><time>2026-05-03T13:05:13.105Z</time></trkpt><trkpt lat="43.6894102" lon="11.1964589"><ele>219.0</ele><time>2026-05-03T13:05:15.101Z</time></trkpt><trkpt lat="43.6893543" lon="11.1963846"><ele>219.0</ele><time>2026-05-03T13:05:17.104Z</time></trkpt><trkpt lat="43.6893026" lon="11.196321"><ele>217.83333333333334</ele><time>2026-05-03T13:05:19.098Z</time></trkpt><trkpt lat="43.6892382" lon="11.1962464"><ele>216.66666666666669</ele><time>2026-05-03T13:05:21.095Z</time></trkpt><trkpt lat="43.6891794" lon="11.1961954"><ele>215.5</ele><time>2026-05-03T13:05:22.1Z</time></trkpt><trkpt lat="43.689117" lon="11.1961752"><ele>214.33333333333334</ele><time>2026-05-03T13:05:23.096Z</time></trkpt><trkpt lat="43.6889936" lon="11.1961931"><ele>213.16666666666669</ele><time>2026-05-03T13:05:25.092Z</time></trkpt><trkpt lat="43.6889055" lon="11.1961786"><ele>212.0</ele><time>2026-05-03T13:05:27.095Z</time></trkpt><trkpt lat="43.6888364" lon="11.1960912"><ele>212.00000000000003</ele><time>2026-05-03T13:05:29.097Z</time></trkpt><trkpt lat="43.6887595" lon="11.1959934"><ele>212.0</ele><time>2026-05-03T13:05:31.104Z</time></trkpt><trkpt lat="43.6887049" lon="11.1959451"><ele>212.0</ele><time>2026-05-03T13:05:32.097Z</time></trkpt><trkpt lat="43.688632" lon="11.1958533"><ele>212.0</ele><time>2026-05-03T13:05:34.096Z</time></trkpt><trkpt lat="43.6886258" lon="11.1957502"><ele>212.00000000000003</ele><time>2026-05-03T13:05:36.094Z</time></trkpt><trkpt lat="43.688681" lon="11.1956994"><ele>212.0</ele><time>2026-05-03T13:05:37.092Z</time></trkpt><trkpt lat="43.6887129" lon="11.1955921"><ele>212.83333333333334</ele><time>2026-05-03T13:05:39.097Z</time></trkpt><trkpt lat="43.6887219" lon="11.1954863"><ele>213.66666666666669</ele><time>2026-05-03T13:05:42.097Z</time></trkpt><trkpt lat="43.688685" lon="11.1953893"><ele>214.5</ele><time>2026-05-03T13:05:49.1Z</time></trkpt><trkpt lat="43.6886172" lon="11.1953098"><ele>215.33333333333331</ele><time>2026-05-03T13:05:51.096Z</time></trkpt><trkpt lat="43.6885394" lon="11.1952514"><ele>216.16666666666666</ele><time>2026-05-03T13:05:53.093Z</time></trkpt><trkpt lat="43.6884463" lon="11.1952279"><ele>217.0</ele><time>2026-05-03T13:05:55.096Z</time></trkpt><trkpt lat="43.688333" lon="11.1951656"><ele>218.5</ele><time>2026-05-03T13:05:57.094Z</time></trkpt><trkpt lat="43.6882306" lon="11.1950751"><ele>220.0</ele><time>2026-05-03T13:05:59.095Z</time></trkpt><trkpt lat="43.6881137" lon="11.1949566"><ele>221.5</ele><time>2026-05-03T13:06:01.098Z</time></trkpt><trkpt lat="43.6880492" lon="11.1949007"><ele>223.0</ele><time>2026-05-03T13:06:02.091Z</time></trkpt><trkpt lat="43.6879297" lon="11.1948682"><ele>223.0</ele><time>2026-05-03T13:06:04.096Z</time></trkpt><trkpt lat="43.687762" lon="11.1948321"><ele>223.0</ele><time>2026-05-03T13:06:06.096Z</time></trkpt><trkpt lat="43.687681" lon="11.1947618"><ele>223.0</ele><time>2026-05-03T13:06:07.094Z</time></trkpt><trkpt lat="43.6876157" lon="11.1947511"><ele>223.0</ele><time>2026-05-03T13:06:08.096Z</time></trkpt><trkpt lat="43.6875415" lon="11.1947528"><ele>223.0</ele><time>2026-05-03T13:06:09.101Z</time></trkpt><trkpt lat="43.6874631" lon="11.1947121"><ele>223.71428571428572</ele><time>2026-05-03T13:06:10.095Z</time></trkpt><trkpt lat="43.6873951" lon="11.194703"><ele>224.42857142857142</ele><time>2026-05-03T13:06:11.095Z</time></trkpt><trkpt lat="43.6873692" lon="11.1946198"><ele>225.14285714285714</ele><time>2026-05-03T13:06:13.093Z</time></trkpt><trkpt lat="43.6873994" lon="11.1947172"><ele>225.85714285714283</ele><time>2026-05-03T13:06:20.096Z</time></trkpt><trkpt lat="43.6873336" lon="11.1946932"><ele>226.57142857142856</ele><time>2026-05-03T13:06:27.096Z</time></trkpt><trkpt lat="43.6872691" lon="11.1946606"><ele>227.28571428571428</ele><time>2026-05-03T13:06:28.095Z</time></trkpt><trkpt lat="43.6871935" lon="11.19462"><ele>228.0</ele><time>2026-05-03T13:06:29.097Z</time></trkpt><trkpt lat="43.6870629" lon="11.1945762"><ele>228.0</ele><time>2026-05-03T13:06:31.094Z</time></trkpt><trkpt lat="43.6869892" lon="11.1945481"><ele>227.99999999999997</ele><time>2026-05-03T13:06:32.099Z</time></trkpt><trkpt lat="43.68693" lon="11.1945174"><ele>228.0</ele><time>2026-05-03T13:06:33.099Z</time></trkpt><trkpt lat="43.6868566" lon="11.1944925"><ele>228.0</ele><time>2026-05-03T13:06:34.093Z</time></trkpt><trkpt lat="43.6867846" lon="11.1944942"><ele>227.99999999999997</ele><time>2026-05-03T13:06:36.099Z</time></trkpt><trkpt lat="43.6867006" lon="11.1944835"><ele>228.0</ele><time>2026-05-03T13:06:38.095Z</time></trkpt><trkpt lat="43.6866312" lon="11.1944974"><ele>228.0</ele><time>2026-05-03T13:06:40.096Z</time></trkpt><trkpt lat="43.6865259" lon="11.1944857"><ele>230.0</ele><time>2026-05-03T13:06:42.094Z</time></trkpt><trkpt lat="43.6865161" lon="11.1943939"><ele>232.0</ele><time>2026-05-03T13:06:45.093Z</time></trkpt><trkpt lat="43.6865968" lon="11.1943216"><ele>234.0</ele><time>2026-05-03T13:07:01.097Z</time></trkpt><trkpt lat="43.6866939" lon="11.1943498"><ele>236.0</ele><time>2026-05-03T13:07:03.096Z</time></trkpt><trkpt lat="43.6867859" lon="11.1943394"><ele>238.0</ele><time>2026-05-03T13:07:05.094Z</time></trkpt><trkpt lat="43.6869095" lon="11.1942879"><ele>236.33333333333331</ele><time>2026-05-03T13:07:07.096Z</time></trkpt><trkpt lat="43.6869691" lon="11.1942577"><ele>234.66666666666666</ele><time>2026-05-03T13:07:08.096Z</time></trkpt><trkpt lat="43.6870402" lon="11.1942143"><ele>233.0</ele><time>2026-05-03T13:07:09.096Z</time></trkpt><trkpt lat="43.6871458" lon="11.194161"><ele>231.33333333333331</ele><time>2026-05-03T13:07:11.096Z</time></trkpt><trkpt lat="43.6872256" lon="11.1941313"><ele>229.66666666666666</ele><time>2026-05-03T13:07:12.093Z</time></trkpt><trkpt lat="43.6873029" lon="11.1940791"><ele>228.0</ele><time>2026-05-03T13:07:13.093Z</time></trkpt><trkpt lat="43.6873798" lon="11.1940358"><ele>228.0</ele><time>2026-05-03T13:07:14.097Z</time></trkpt><trkpt lat="43.6874705" lon="11.1940078"><ele>228.0</ele><time>2026-05-03T13:07:15.098Z</time></trkpt><trkpt lat="43.6875483" lon="11.1939524"><ele>228.0</ele><time>2026-05-03T13:07:17.1Z</time></trkpt><trkpt lat="43.6876034" lon="11.1939032"><ele>228.0</ele><time>2026-05-03T13:07:20.103Z</time></trkpt><trkpt lat="43.6876631" lon="11.1938451"><ele>228.0</ele><time>2026-05-03T13:07:23.102Z</time></trkpt><trkpt lat="43.6877392" lon="11.193797"><ele>228.0</ele><time>2026-05-03T13:07:25.096Z</time></trkpt><trkpt lat="43.6878067" lon="11.1937327"><ele>228.60000000000002</ele><time>2026-05-03T13:07:27.095Z</time></trkpt><trkpt lat="43.6878698" lon="11.1936136"><ele>229.20000000000002</ele><time>2026-05-03T13:07:29.096Z</time></trkpt><trkpt lat="43.6879028" lon="11.1934856"><ele>229.8</ele><time>2026-05-03T13:07:31.098Z</time></trkpt><trkpt lat="43.6879069" lon="11.1933932"><ele>230.4</ele><time>2026-05-03T13:07:32.095Z</time></trkpt><trkpt lat="43.6879015" lon="11.1932207"><ele>231.0</ele><time>2026-05-03T13:07:34.095Z</time></trkpt><trkpt lat="43.6878929" lon="11.1930652"><ele>232.5</ele><time>2026-05-03T13:07:36.104Z</time></trkpt><trkpt lat="43.6878589" lon="11.1929176"><ele>234.0</ele><time>2026-05-03T13:07:38.097Z</time></trkpt><trkpt lat="43.6877856" lon="11.1927734"><ele>235.5</ele><time>2026-05-03T13:07:40.093Z</time></trkpt><trkpt lat="43.6878093" lon="11.1926777"><ele>237.0</ele><time>2026-05-03T13:07:42.092Z</time></trkpt><trkpt lat="43.6878514" lon="11.1926015"><ele>238.5</ele><time>2026-05-03T13:07:45.094Z</time></trkpt><trkpt lat="43.6879126" lon="11.192575"><ele>240.0</ele><time>2026-05-03T13:07:47.097Z</time></trkpt><trkpt lat="43.687983" lon="11.1925977"><ele>240.0</ele><time>2026-05-03T13:07:49.096Z</time></trkpt><trkpt lat="43.6880471" lon="11.1926717"><ele>240.0</ele><time>2026-05-03T13:07:51.098Z</time></trkpt><trkpt lat="43.6881264" lon="11.1927725"><ele>240.0</ele><time>2026-05-03T13:07:53.096Z</time></trkpt><trkpt lat="43.6882044" lon="11.1928194"><ele>240.0</ele><time>2026-05-03T13:07:55.097Z</time></trkpt><trkpt lat="43.6882793" lon="11.1928169"><ele>240.0</ele><time>2026-05-03T13:07:57.093Z</time></trkpt><trkpt lat="43.6883193" lon="11.1926734"><ele>240.0</ele><time>2026-05-03T13:07:59.095Z</time></trkpt><trkpt lat="43.6883485" lon="11.1925871"><ele>240.0</ele><time>2026-05-03T13:08:00.103Z</time></trkpt><trkpt lat="43.6883721" lon="11.1924989"><ele>240.0</ele><time>2026-05-03T13:08:01.095Z</time></trkpt><trkpt lat="43.6883835" lon="11.1924092"><ele>240.0</ele><time>2026-05-03T13:08:02.093Z</time></trkpt><trkpt lat="43.6883864" lon="11.1922543"><ele>240.0</ele><time>2026-05-03T13:08:04.097Z</time></trkpt><trkpt lat="43.6883822" lon="11.1921666"><ele>240.0</ele><time>2026-05-03T13:08:05.094Z</time></trkpt><trkpt lat="43.6883586" lon="11.1920025"><ele>240.57142857142858</ele><time>2026-05-03T13:08:07.096Z</time></trkpt><trkpt lat="43.6883439" lon="11.1918846"><ele>241.1428571428571</ele><time>2026-05-03T13:08:09.095Z</time></trkpt><trkpt lat="43.6883696" lon="11.191796"><ele>241.7142857142857</ele><time>2026-05-03T13:08:11.1Z</time></trkpt><trkpt lat="43.6884333" lon="11.1917604"><ele>242.28571428571428</ele><time>2026-05-03T13:08:13.099Z</time></trkpt><trkpt lat="43.6884978" lon="11.1917912"><ele>242.85714285714283</ele><time>2026-05-03T13:08:15.091Z</time></trkpt><trkpt lat="43.6885483" lon="11.1918623"><ele>243.4285714285714</ele><time>2026-05-03T13:08:17.094Z</time></trkpt><trkpt lat="43.6885999" lon="11.1919219"><ele>243.99999999999997</ele><time>2026-05-03T13:08:19.094Z</time></trkpt><trkpt lat="43.688666" lon="11.1919685"><ele>242.66666666666666</ele><time>2026-05-03T13:08:22.095Z</time></trkpt><trkpt lat="43.6887432" lon="11.1920454"><ele>241.33333333333331</ele><time>2026-05-03T13:08:25.099Z</time></trkpt><trkpt lat="43.6888209" lon="11.1920676"><ele>240.0</ele><time>2026-05-03T13:08:27.093Z</time></trkpt><trkpt lat="43.688891" lon="11.1920474"><ele>238.66666666666669</ele><time>2026-05-03T13:08:29.097Z</time></trkpt><trkpt lat="43.6889739" lon="11.1920233"><ele>237.33333333333334</ele><time>2026-05-03T13:08:32.094Z</time></trkpt><trkpt lat="43.6890474" lon="11.1920453"><ele>236.0</ele><time>2026-05-03T13:08:35.093Z</time></trkpt><trkpt lat="43.6891233" lon="11.1921021"><ele>236.0</ele><time>2026-05-03T13:08:38.096Z</time></trkpt><trkpt lat="43.6891642" lon="11.1921704"><ele>236.0</ele><time>2026-05-03T13:08:40.097Z</time></trkpt><trkpt lat="43.6892029" lon="11.1922403"><ele>236.0</ele><time>2026-05-03T13:08:44.1Z</time></trkpt><trkpt lat="43.689287" lon="11.1922103"><ele>236.0</ele><time>2026-05-03T13:08:53.092Z</time></trkpt><trkpt lat="43.6893047" lon="11.1921209"><ele>236.0</ele><time>2026-05-03T13:08:58.094Z</time></trkpt><trkpt lat="43.6892376" lon="11.1920533"><ele>236.0</ele><time>2026-05-03T13:09:00.094Z</time></trkpt><trkpt lat="43.6891849" lon="11.1919779"><ele>236.0</ele><time>2026-05-03T13:09:03.101Z</time></trkpt><trkpt lat="43.689172" lon="11.1918586"><ele>236.00000000000003</ele><time>2026-05-03T13:09:06.095Z</time></trkpt><trkpt lat="43.6891191" lon="11.1917586"><ele>236.0</ele><time>2026-05-03T13:09:12.098Z</time></trkpt><trkpt lat="43.6890316" lon="11.1917724"><ele>236.0</ele><time>2026-05-03T13:09:16.095Z</time></trkpt><trkpt lat="43.6889513" lon="11.1918171"><ele>236.0</ele><time>2026-05-03T13:09:19.096Z</time></trkpt><trkpt lat="43.6889071" lon="11.1918895"><ele>236.00000000000003</ele><time>2026-05-03T13:09:21.098Z</time></trkpt><trkpt lat="43.6888752" lon="11.1919649"><ele>236.0</ele><time>2026-05-03T13:09:24.096Z</time></trkpt><trkpt lat="43.6888366" lon="11.1920418"><ele>236.0</ele><time>2026-05-03T13:09:27.094Z</time></trkpt><trkpt lat="43.6887729" lon="11.1920696"><ele>236.00000000000003</ele><time>2026-05-03T13:09:29.098Z</time></trkpt><trkpt lat="43.6887128" lon="11.1920242"><ele>236.00000000000003</ele><time>2026-05-03T13:09:30.092Z</time></trkpt><trkpt lat="43.6886162" lon="11.1919116"><ele>236.0</ele><time>2026-05-03T13:09:32.094Z</time></trkpt><trkpt lat="43.6885404" lon="11.1918244"><ele>236.0</ele><time>2026-05-03T13:09:33.095Z</time></trkpt><trkpt lat="43.6884629" lon="11.1917455"><ele>236.75</ele><time>2026-05-03T13:09:34.093Z</time></trkpt><trkpt lat="43.6883299" lon="11.1916019"><ele>237.5</ele><time>2026-05-03T13:09:35.099Z</time></trkpt><trkpt lat="43.6882207" lon="11.1914853"><ele>238.25</ele><time>2026-05-03T13:09:36.093Z</time></trkpt><trkpt lat="43.6881182" lon="11.1913959"><ele>239.0</ele><time>2026-05-03T13:09:37.096Z</time></trkpt><trkpt lat="43.6880167" lon="11.1913218"><ele>239.0</ele><time>2026-05-03T13:09:38.092Z</time></trkpt><trkpt lat="43.6879108" lon="11.1912582"><ele>239.0</ele><time>2026-05-03T13:09:39.096Z</time></trkpt><trkpt lat="43.6878117" lon="11.1912129"><ele>239.0</ele><time>2026-05-03T13:09:40.093Z</time></trkpt><trkpt lat="43.6876956" lon="11.1911863"><ele>239.0</ele><time>2026-05-03T13:09:41.095Z</time></trkpt><trkpt lat="43.687569" lon="11.1911951"><ele>242.0</ele><time>2026-05-03T13:09:42.094Z</time></trkpt><trkpt lat="43.6874437" lon="11.1912152"><ele>245.0</ele><time>2026-05-03T13:09:43.093Z</time></trkpt><trkpt lat="43.6873039" lon="11.1912335"><ele>248.0</ele><time>2026-05-03T13:09:44.093Z</time></trkpt><trkpt lat="43.6871963" lon="11.1912808"><ele>251.0</ele><time>2026-05-03T13:09:45.094Z</time></trkpt><trkpt lat="43.6870842" lon="11.1913303"><ele>251.0</ele><time>2026-05-03T13:09:46.095Z</time></trkpt><trkpt lat="43.6869841" lon="11.1913744"><ele>251.00000000000003</ele><time>2026-05-03T13:09:47.094Z</time></trkpt><trkpt lat="43.6868894" lon="11.191433"><ele>251.00000000000003</ele><time>2026-05-03T13:09:48.095Z</time></trkpt><trkpt lat="43.6868004" lon="11.1914675"><ele>251.0</ele><time>2026-05-03T13:09:49.093Z</time></trkpt><trkpt lat="43.6866993" lon="11.1915082"><ele>251.0</ele><time>2026-05-03T13:09:50.096Z</time></trkpt><trkpt lat="43.6866086" lon="11.1915372"><ele>252.4</ele><time>2026-05-03T13:09:51.093Z</time></trkpt><trkpt lat="43.6865027" lon="11.1915554"><ele>253.8</ele><time>2026-05-03T13:09:52.094Z</time></trkpt><trkpt lat="43.6864074" lon="11.1915684"><ele>255.20000000000002</ele><time>2026-05-03T13:09:53.099Z</time></trkpt><trkpt lat="43.6863102" lon="11.1915944"><ele>256.6</ele><time>2026-05-03T13:09:54.093Z</time></trkpt><trkpt lat="43.686222" lon="11.1916316"><ele>258.0</ele><time>2026-05-03T13:09:55.094Z</time></trkpt><trkpt lat="43.6861527" lon="11.1916438"><ele>258.0</ele><time>2026-05-03T13:09:56.096Z</time></trkpt><trkpt lat="43.686075" lon="11.1916403"><ele>258.0</ele><time>2026-05-03T13:09:58.094Z</time></trkpt><trkpt lat="43.6861569" lon="11.191553"><ele>258.0</ele><time>2026-05-03T13:10:02.102Z</time></trkpt><trkpt lat="43.6862753" lon="11.1914225"><ele>258.0</ele><time>2026-05-03T13:10:04.093Z</time></trkpt><trkpt lat="43.6863508" lon="11.1913139"><ele>258.0</ele><time>2026-05-03T13:10:05.093Z</time></trkpt><trkpt lat="43.6863939" lon="11.1911716"><ele>258.75</ele><time>2026-05-03T13:10:06.091Z</time></trkpt><trkpt lat="43.6864374" lon="11.1910335"><ele>259.5</ele><time>2026-05-03T13:10:07.093Z</time></trkpt><trkpt lat="43.686462" lon="11.1908953"><ele>260.25</ele><time>2026-05-03T13:10:08.096Z</time></trkpt><trkpt lat="43.6864545" lon="11.1905926"><ele>261.0</ele><time>2026-05-03T13:10:10.095Z</time></trkpt><trkpt lat="43.6864299" lon="11.1904458"><ele>261.25</ele><time>2026-05-03T13:10:11.094Z</time></trkpt><trkpt lat="43.6863903" lon="11.1902704"><ele>261.5</ele><time>2026-05-03T13:10:12.094Z</time></trkpt><trkpt lat="43.6863661" lon="11.1900966"><ele>261.75</ele><time>2026-05-03T13:10:13.095Z</time></trkpt><trkpt lat="43.6863465" lon="11.189926"><ele>262.0</ele><time>2026-05-03T13:10:14.097Z</time></trkpt><trkpt lat="43.6863277" lon="11.1897632"><ele>262.5</ele><time>2026-05-03T13:10:15.094Z</time></trkpt><trkpt lat="43.6863075" lon="11.1895986"><ele>263.0</ele><time>2026-05-03T13:10:16.095Z</time></trkpt><trkpt lat="43.6862919" lon="11.1894342"><ele>263.5</ele><time>2026-05-03T13:10:17.093Z</time></trkpt><trkpt lat="43.6862836" lon="11.1892619"><ele>264.0</ele><time>2026-05-03T13:10:18.093Z</time></trkpt><trkpt lat="43.6862633" lon="11.1890987"><ele>263.5</ele><time>2026-05-03T13:10:19.092Z</time></trkpt><trkpt lat="43.686247" lon="11.1889457"><ele>263.0</ele><time>2026-05-03T13:10:20.095Z</time></trkpt><trkpt lat="43.6862288" lon="11.1887917"><ele>262.5</ele><time>2026-05-03T13:10:21.095Z</time></trkpt><trkpt lat="43.686213" lon="11.1886321"><ele>262.0</ele><time>2026-05-03T13:10:22.093Z</time></trkpt><trkpt lat="43.6861984" lon="11.1884652"><ele>262.0</ele><time>2026-05-03T13:10:23.094Z</time></trkpt><trkpt lat="43.6861829" lon="11.1883137"><ele>262.0</ele><time>2026-05-03T13:10:24.091Z</time></trkpt><trkpt lat="43.6861645" lon="11.1881594"><ele>262.0</ele><time>2026-05-03T13:10:25.094Z</time></trkpt><trkpt lat="43.6861508" lon="11.1880022"><ele>262.0</ele><time>2026-05-03T13:10:26.091Z</time></trkpt><trkpt lat="43.6861404" lon="11.1878475"><ele>262.5</ele><time>2026-05-03T13:10:27.094Z</time></trkpt><trkpt lat="43.6861243" lon="11.1876949"><ele>263.0</ele><time>2026-05-03T13:10:28.096Z</time></trkpt><trkpt lat="43.6861041" lon="11.1875368"><ele>263.5</ele><time>2026-05-03T13:10:29.093Z</time></trkpt><trkpt lat="43.6860935" lon="11.187355"><ele>264.0</ele><time>2026-05-03T13:10:30.092Z</time></trkpt><trkpt lat="43.6860833" lon="11.1872273"><ele>264.2</ele><time>2026-05-03T13:10:31.095Z</time></trkpt><trkpt lat="43.6860569" lon="11.1870773"><ele>264.4</ele><time>2026-05-03T13:10:32.096Z</time></trkpt><trkpt lat="43.6860397" lon="11.1869438"><ele>264.6</ele><time>2026-05-03T13:10:33.097Z</time></trkpt><trkpt lat="43.6860183" lon="11.1867965"><ele>264.8</ele><time>2026-05-03T13:10:34.099Z</time></trkpt><trkpt lat="43.6859968" lon="11.1866584"><ele>265.0</ele><time>2026-05-03T13:10:35.093Z</time></trkpt><trkpt lat="43.6859813" lon="11.1865205"><ele>265.0</ele><time>2026-05-03T13:10:36.095Z</time></trkpt><trkpt lat="43.6859556" lon="11.1863773"><ele>265.0</ele><time>2026-05-03T13:10:37.092Z</time></trkpt><trkpt lat="43.6859383" lon="11.1862408"><ele>265.0</ele><time>2026-05-03T13:10:38.094Z</time></trkpt><trkpt lat="43.6859131" lon="11.1861097"><ele>265.0</ele><time>2026-05-03T13:10:39.098Z</time></trkpt><trkpt lat="43.6858897" lon="11.1859751"><ele>265.0</ele><time>2026-05-03T13:10:40.091Z</time></trkpt><trkpt lat="43.685871" lon="11.1858493"><ele>265.0</ele><time>2026-05-03T13:10:41.092Z</time></trkpt><trkpt lat="43.6858568" lon="11.1857084"><ele>265.0</ele><time>2026-05-03T13:10:42.095Z</time></trkpt><trkpt lat="43.6858709" lon="11.1855304"><ele>265.0</ele><time>2026-05-03T13:10:44.094Z</time></trkpt><trkpt lat="43.6858901" lon="11.1854395"><ele>265.0</ele><time>2026-05-03T13:10:45.096Z</time></trkpt><trkpt lat="43.6859212" lon="11.1853444"><ele>265.0</ele><time>2026-05-03T13:10:46.095Z</time></trkpt><trkpt lat="43.6859686" lon="11.1852365"><ele>265.0</ele><time>2026-05-03T13:10:47.095Z</time></trkpt><trkpt lat="43.6860198" lon="11.185144"><ele>265.0</ele><time>2026-05-03T13:10:48.091Z</time></trkpt><trkpt lat="43.6860649" lon="11.1850532"><ele>265.0</ele><time>2026-05-03T13:10:49.094Z</time></trkpt><trkpt lat="43.6861088" lon="11.1849767"><ele>265.0</ele><time>2026-05-03T13:10:50.098Z</time></trkpt><trkpt lat="43.6861553" lon="11.1849061"><ele>265.0</ele><time>2026-05-03T13:10:51.097Z</time></trkpt><trkpt lat="43.6862166" lon="11.1848468"><ele>265.0</ele><time>2026-05-03T13:10:52.096Z</time></trkpt><trkpt lat="43.6863462" lon="11.1847259"><ele>265.0</ele><time>2026-05-03T13:10:55.095Z</time></trkpt><trkpt lat="43.686367" lon="11.1846238"><ele>265.0</ele><time>2026-05-03T13:10:59.096Z</time></trkpt><trkpt lat="43.6862779" lon="11.1846242"><ele>265.0</ele><time>2026-05-03T13:11:10.091Z</time></trkpt><trkpt lat="43.6862066" lon="11.1846044"><ele>265.0</ele><time>2026-05-03T13:11:12.093Z</time></trkpt><trkpt lat="43.6861469" lon="11.1845744"><ele>265.0</ele><time>2026-05-03T13:11:15.092Z</time></trkpt><trkpt lat="43.6861105" lon="11.184467"><ele>265.0</ele><time>2026-05-03T13:11:40.095Z</time></trkpt><trkpt lat="43.6861114" lon="11.18436"><ele>265.0</ele><time>2026-05-03T13:11:42.095Z</time></trkpt><trkpt lat="43.6861263" lon="11.1842239"><ele>265.0</ele><time>2026-05-03T13:11:44.108Z</time></trkpt><trkpt lat="43.6861331" lon="11.1841131"><ele>265.0</ele><time>2026-05-03T13:11:46.101Z</time></trkpt><trkpt lat="43.6860561" lon="11.1839959"><ele>265.0</ele><time>2026-05-03T13:11:48.107Z</time></trkpt><trkpt lat="43.6860003" lon="11.183887"><ele>265.0</ele><time>2026-05-03T13:11:50.094Z</time></trkpt><trkpt lat="43.6859537" lon="11.1837552"><ele>262.8</ele><time>2026-05-03T13:11:52.093Z</time></trkpt><trkpt lat="43.6859006" lon="11.183633"><ele>260.6</ele><time>2026-05-03T13:11:54.096Z</time></trkpt><trkpt lat="43.6858511" lon="11.1835139"><ele>258.4</ele><time>2026-05-03T13:11:56.094Z</time></trkpt><trkpt lat="43.6857923" lon="11.1833983"><ele>256.2</ele><time>2026-05-03T13:11:58.101Z</time></trkpt><trkpt lat="43.6857574" lon="11.1832759"><ele>254.0</ele><time>2026-05-03T13:12:00.1Z</time></trkpt><trkpt lat="43.6857165" lon="11.1831843"><ele>251.83333333333334</ele><time>2026-05-03T13:12:02.099Z</time></trkpt><trkpt lat="43.6856847" lon="11.1830947"><ele>249.66666666666669</ele><time>2026-05-03T13:12:04.095Z</time></trkpt><trkpt lat="43.6856679" lon="11.182981"><ele>247.5</ele><time>2026-05-03T13:12:06.092Z</time></trkpt><trkpt lat="43.6856593" lon="11.1828662"><ele>245.33333333333331</ele><time>2026-05-03T13:12:08.096Z</time></trkpt><trkpt lat="43.6856316" lon="11.1827417"><ele>243.16666666666666</ele><time>2026-05-03T13:12:11.099Z</time></trkpt><trkpt lat="43.6855826" lon="11.1826015"><ele>241.0</ele><time>2026-05-03T13:12:13.096Z</time></trkpt><trkpt lat="43.6855544" lon="11.1825157"><ele>239.60000000000002</ele><time>2026-05-03T13:12:14.097Z</time></trkpt><trkpt lat="43.6854928" lon="11.1823444"><ele>238.20000000000002</ele><time>2026-05-03T13:12:16.095Z</time></trkpt><trkpt lat="43.6854902" lon="11.182255"><ele>236.79999999999998</ele><time>2026-05-03T13:12:17.093Z</time></trkpt><trkpt lat="43.6854475" lon="11.1821501"><ele>235.39999999999998</ele><time>2026-05-03T13:12:19.091Z</time></trkpt><trkpt lat="43.6854173" lon="11.1820399"><ele>234.0</ele><time>2026-05-03T13:12:21.096Z</time></trkpt><trkpt lat="43.6853722" lon="11.1819448"><ele>234.0</ele><time>2026-05-03T13:12:23.091Z</time></trkpt><trkpt lat="43.6853373" lon="11.1818598"><ele>234.0</ele><time>2026-05-03T13:12:25.094Z</time></trkpt><trkpt lat="43.6852934" lon="11.1817707"><ele>234.0</ele><time>2026-05-03T13:12:27.092Z</time></trkpt><trkpt lat="43.6852395" lon="11.1816938"><ele>234.0</ele><time>2026-05-03T13:12:29.091Z</time></trkpt><trkpt lat="43.6851758" lon="11.1816349"><ele>234.0</ele><time>2026-05-03T13:12:31.1Z</time></trkpt><trkpt lat="43.6850988" lon="11.1815946"><ele>234.0</ele><time>2026-05-03T13:12:33.091Z</time></trkpt><trkpt lat="43.6849956" lon="11.181551"><ele>231.33333333333334</ele><time>2026-05-03T13:12:35.098Z</time></trkpt><trkpt lat="43.6848929" lon="11.1814699"><ele>228.66666666666669</ele><time>2026-05-03T13:12:37.095Z</time></trkpt><trkpt lat="43.6848161" lon="11.1814209"><ele>226.0</ele><time>2026-05-03T13:12:39.101Z</time></trkpt><trkpt lat="43.6847464" lon="11.1813638"><ele>223.33333333333334</ele><time>2026-05-03T13:12:42.09Z</time></trkpt><trkpt lat="43.6847083" lon="11.1812761"><ele>220.66666666666669</ele><time>2026-05-03T13:12:55.095Z</time></trkpt><trkpt lat="43.6847493" lon="11.1811787"><ele>218.0</ele><time>2026-05-03T13:12:57.093Z</time></trkpt><trkpt lat="43.6848312" lon="11.1811453"><ele>218.00000000000003</ele><time>2026-05-03T13:13:00.093Z</time></trkpt><trkpt lat="43.6849077" lon="11.1811675"><ele>218.0</ele><time>2026-05-03T13:13:03.097Z</time></trkpt><trkpt lat="43.6849693" lon="11.1811205"><ele>218.0</ele><time>2026-05-03T13:13:06.093Z</time></trkpt><trkpt lat="43.6850248" lon="11.1810597"><ele>218.0</ele><time>2026-05-03T13:13:09.093Z</time></trkpt><trkpt lat="43.6849578" lon="11.1809654"><ele>218.00000000000003</ele><time>2026-05-03T13:13:15.097Z</time></trkpt><trkpt lat="43.6849017" lon="11.1809107"><ele>218.0</ele><time>2026-05-03T13:13:17.096Z</time></trkpt><trkpt lat="43.6848316" lon="11.1808726"><ele>218.00000000000003</ele><time>2026-05-03T13:13:21.095Z</time></trkpt><trkpt lat="43.6847698" lon="11.1808274"><ele>218.0</ele><time>2026-05-03T13:13:24.096Z</time></trkpt><trkpt lat="43.6846795" lon="11.1807357"><ele>218.0</ele><time>2026-05-03T13:13:26.093Z</time></trkpt><trkpt lat="43.6846099" lon="11.1806674"><ele>218.0</ele><time>2026-05-03T13:13:28.097Z</time></trkpt><trkpt lat="43.6845416" lon="11.1806172"><ele>218.00000000000003</ele><time>2026-05-03T13:13:30.097Z</time></trkpt><trkpt lat="43.6844706" lon="11.1805742"><ele>218.0</ele><time>2026-05-03T13:13:32.095Z</time></trkpt><trkpt lat="43.6844051" lon="11.1805327"><ele>215.83333333333334</ele><time>2026-05-03T13:13:34.095Z</time></trkpt><trkpt lat="43.6843285" lon="11.1804876"><ele>213.66666666666669</ele><time>2026-05-03T13:13:37.095Z</time></trkpt><trkpt lat="43.6842626" lon="11.1804315"><ele>211.5</ele><time>2026-05-03T13:13:41.092Z</time></trkpt><trkpt lat="43.6841917" lon="11.1804028"><ele>209.33333333333331</ele><time>2026-05-03T13:13:43.097Z</time></trkpt><trkpt lat="43.6841249" lon="11.1803861"><ele>207.16666666666666</ele><time>2026-05-03T13:13:45.093Z</time></trkpt><trkpt lat="43.6840531" lon="11.1803681"><ele>205.0</ele><time>2026-05-03T13:13:47.098Z</time></trkpt><trkpt lat="43.683974" lon="11.1803516"><ele>204.99999999999997</ele><time>2026-05-03T13:13:49.094Z</time></trkpt><trkpt lat="43.6839032" lon="11.1803233"><ele>205.0</ele><time>2026-05-03T13:13:51.099Z</time></trkpt><trkpt lat="43.6838376" lon="11.1803013"><ele>205.0</ele><time>2026-05-03T13:13:53.092Z</time></trkpt><trkpt lat="43.6837649" lon="11.1802913"><ele>205.0</ele><time>2026-05-03T13:13:55.092Z</time></trkpt><trkpt lat="43.6836903" lon="11.1802666"><ele>204.99999999999997</ele><time>2026-05-03T13:13:57.093Z</time></trkpt><trkpt lat="43.6836317" lon="11.1802125"><ele>205.0</ele><time>2026-05-03T13:13:59.092Z</time></trkpt><trkpt lat="43.6835646" lon="11.1801201"><ele>204.49999999999997</ele><time>2026-05-03T13:14:01.095Z</time></trkpt><trkpt lat="43.683504" lon="11.1800638"><ele>204.0</ele><time>2026-05-03T13:14:03.094Z</time></trkpt><trkpt lat="43.6834484" lon="11.17998"><ele>203.5</ele><time>2026-05-03T13:14:06.095Z</time></trkpt><trkpt lat="43.6834062" lon="11.179906"><ele>203.0</ele><time>2026-05-03T13:14:10.091Z</time></trkpt><trkpt lat="43.6833799" lon="11.1799973"><ele>202.49999999999997</ele><time>2026-05-03T13:14:44.094Z</time></trkpt><trkpt lat="43.6832927" lon="11.1800362"><ele>202.0</ele><time>2026-05-03T13:14:46.094Z</time></trkpt><trkpt lat="43.6832052" lon="11.180066"><ele>202.0</ele><time>2026-05-03T13:14:48.101Z</time></trkpt><trkpt lat="43.6831524" lon="11.1801406"><ele>202.0</ele><time>2026-05-03T13:14:51.092Z</time></trkpt><trkpt lat="43.6831043" lon="11.1802547"><ele>202.0</ele><time>2026-05-03T13:14:54.093Z</time></trkpt><trkpt lat="43.6830938" lon="11.1803608"><ele>202.0</ele><time>2026-05-03T13:14:57.095Z</time></trkpt><trkpt lat="43.6830905" lon="11.1804482"><ele>202.0</ele><time>2026-05-03T13:15:00.094Z</time></trkpt><trkpt lat="43.6832614" lon="11.1804306"><ele>201.99999999999997</ele><time>2026-05-03T13:15:15.101Z</time></trkpt><trkpt lat="43.6833438" lon="11.1804818"><ele>202.0</ele><time>2026-05-03T13:15:17.094Z</time></trkpt><trkpt lat="43.6834255" lon="11.1805579"><ele>202.0</ele><time>2026-05-03T13:15:19.096Z</time></trkpt><trkpt lat="43.6834682" lon="11.1806404"><ele>202.0</ele><time>2026-05-03T13:15:21.091Z</time></trkpt><trkpt lat="43.683444" lon="11.1807511"><ele>201.99999999999997</ele><time>2026-05-03T13:15:25.091Z</time></trkpt><trkpt lat="43.6834101" lon="11.1808245"><ele>202.0</ele><time>2026-05-03T13:15:42.094Z</time></trkpt><trkpt lat="43.6833561" lon="11.1807704"><ele>201.99999999999997</ele><time>2026-05-03T13:16:09.095Z</time></trkpt><trkpt lat="43.6832674" lon="11.1807367"><ele>202.0</ele><time>2026-05-03T13:16:13.091Z</time></trkpt><trkpt lat="43.6832036" lon="11.1807156"><ele>202.0</ele><time>2026-05-03T13:16:15.097Z</time></trkpt><trkpt lat="43.6831408" lon="11.180677"><ele>202.0</ele><time>2026-05-03T13:16:17.092Z</time></trkpt><trkpt lat="43.6830745" lon="11.1805791"><ele>201.99999999999997</ele><time>2026-05-03T13:16:20.097Z</time></trkpt><trkpt lat="43.6830271" lon="11.1805187"><ele>202.0</ele><time>2026-05-03T13:16:31.097Z</time></trkpt><trkpt lat="43.6829673" lon="11.1804831"><ele>202.0</ele><time>2026-05-03T13:16:34.094Z</time></trkpt><trkpt lat="43.6829264" lon="11.1804088"><ele>202.0</ele><time>2026-05-03T13:16:37.093Z</time></trkpt><trkpt lat="43.6829032" lon="11.1803008"><ele>202.0</ele><time>2026-05-03T13:16:40.093Z</time></trkpt><trkpt lat="43.6828775" lon="11.1802165"><ele>202.0</ele><time>2026-05-03T13:16:43.093Z</time></trkpt><trkpt lat="43.6829055" lon="11.1801176"><ele>202.0</ele><time>2026-05-03T13:16:47.093Z</time></trkpt><trkpt lat="43.6829263" lon="11.1799992"><ele>202.0</ele><time>2026-05-03T13:16:51.095Z</time></trkpt><trkpt lat="43.6829406" lon="11.1799082"><ele>202.0</ele><time>2026-05-03T13:16:53.095Z</time></trkpt><trkpt lat="43.6829583" lon="11.1798085"><ele>199.99999999999997</ele><time>2026-05-03T13:16:55.094Z</time></trkpt><trkpt lat="43.6829693" lon="11.1797175"><ele>198.0</ele><time>2026-05-03T13:16:57.095Z</time></trkpt><trkpt lat="43.6829899" lon="11.1796116"><ele>196.0</ele><time>2026-05-03T13:16:59.096Z</time></trkpt><trkpt lat="43.6830123" lon="11.1795215"><ele>194.0</ele><time>2026-05-03T13:17:01.093Z</time></trkpt><trkpt lat="43.6830387" lon="11.1793866"><ele>192.0</ele><time>2026-05-03T13:17:04.093Z</time></trkpt><trkpt lat="43.6830623" lon="11.1792942"><ele>190.0</ele><time>2026-05-03T13:17:06.091Z</time></trkpt><trkpt lat="43.6830455" lon="11.179204"><ele>190.0</ele><time>2026-05-03T13:17:11.094Z</time></trkpt><trkpt lat="43.6829722" lon="11.1792107"><ele>190.0</ele><time>2026-05-03T13:17:23.091Z</time></trkpt><trkpt lat="43.6829182" lon="11.179282"><ele>190.0</ele><time>2026-05-03T13:17:26.096Z</time></trkpt><trkpt lat="43.6828705" lon="11.1793564"><ele>190.0</ele><time>2026-05-03T13:17:29.094Z</time></trkpt><trkpt lat="43.682828" lon="11.1794557"><ele>190.0</ele><time>2026-05-03T13:17:32.09Z</time></trkpt><trkpt lat="43.6828066" lon="11.1795439"><ele>190.0</ele><time>2026-05-03T13:17:56.094Z</time></trkpt><trkpt lat="43.6827457" lon="11.1796293"><ele>189.28571428571428</ele><time>2026-05-03T13:17:58.091Z</time></trkpt><trkpt lat="43.6826842" lon="11.1797141"><ele>188.57142857142858</ele><time>2026-05-03T13:18:00.091Z</time></trkpt><trkpt lat="43.6826417" lon="11.179819"><ele>187.85714285714283</ele><time>2026-05-03T13:18:03.092Z</time></trkpt><trkpt lat="43.6825968" lon="11.179896"><ele>187.14285714285714</ele><time>2026-05-03T13:18:07.089Z</time></trkpt><trkpt lat="43.6825391" lon="11.1799327"><ele>186.42857142857142</ele><time>2026-05-03T13:18:10.091Z</time></trkpt><trkpt lat="43.6824763" lon="11.1799618"><ele>185.7142857142857</ele><time>2026-05-03T13:18:14.091Z</time></trkpt><trkpt lat="43.6824181" lon="11.1799956"><ele>185.0</ele><time>2026-05-03T13:18:17.091Z</time></trkpt><trkpt lat="43.6823461" lon="11.179964"><ele>184.99999999999997</ele><time>2026-05-03T13:18:33.094Z</time></trkpt><trkpt lat="43.6822765" lon="11.1799154"><ele>185.0</ele><time>2026-05-03T13:18:45.094Z</time></trkpt><trkpt lat="43.6822348" lon="11.1798441"><ele>185.0</ele><time>2026-05-03T13:18:54.093Z</time></trkpt><trkpt lat="43.6822855" lon="11.1797547"><ele>185.0</ele><time>2026-05-03T13:18:57.091Z</time></trkpt><trkpt lat="43.6823525" lon="11.1796973"><ele>185.0</ele><time>2026-05-03T13:19:00.089Z</time></trkpt><trkpt lat="43.6823858" lon="11.1796126"><ele>184.99999999999997</ele><time>2026-05-03T13:19:10.09Z</time></trkpt><trkpt lat="43.6823578" lon="11.1795231"><ele>185.0</ele><time>2026-05-03T13:19:15.092Z</time></trkpt><trkpt lat="43.6822863" lon="11.1794993"><ele>184.57142857142856</ele><time>2026-05-03T13:19:20.088Z</time></trkpt><trkpt lat="43.6822196" lon="11.1794936"><ele>184.14285714285714</ele><time>2026-05-03T13:19:26.092Z</time></trkpt><trkpt lat="43.6821548" lon="11.1795132"><ele>183.71428571428572</ele><time>2026-05-03T13:20:03.091Z</time></trkpt><trkpt lat="43.6821109" lon="11.1795795"><ele>183.28571428571428</ele><time>2026-05-03T13:20:06.089Z</time></trkpt><trkpt lat="43.6820474" lon="11.1796002"><ele>182.85714285714286</ele><time>2026-05-03T13:21:35.092Z</time></trkpt><trkpt lat="43.6819725" lon="11.1796389"><ele>182.42857142857142</ele><time>2026-05-03T13:21:49.106Z</time></trkpt><trkpt lat="43.6819079" lon="11.1795983"><ele>182.0</ele><time>2026-05-03T13:21:55.09Z</time></trkpt><trkpt lat="43.6818403" lon="11.1795383"><ele>183.14285714285714</ele><time>2026-05-03T13:22:17.092Z</time></trkpt><trkpt lat="43.681792" lon="11.1794714"><ele>184.28571428571428</ele><time>2026-05-03T13:22:24.093Z</time></trkpt><trkpt lat="43.6817486" lon="11.1793914"><ele>185.42857142857144</ele><time>2026-05-03T13:23:02.091Z</time></trkpt><trkpt lat="43.6816865" lon="11.1793615"><ele>186.57142857142856</ele><time>2026-05-03T13:23:17.092Z</time></trkpt><trkpt lat="43.6816127" lon="11.1793296"><ele>187.71428571428572</ele><time>2026-05-03T13:23:20.092Z</time></trkpt><trkpt lat="43.6815527" lon="11.1792511"><ele>188.85714285714286</ele><time>2026-05-03T13:23:23.089Z</time></trkpt><trkpt lat="43.681502" lon="11.179179"><ele>190.0</ele><time>2026-05-03T13:23:29.091Z</time></trkpt><trkpt lat="43.6814805" lon="11.1790969"><ele>193.2</ele><time>2026-05-03T13:23:35.096Z</time></trkpt><trkpt lat="43.6814987" lon="11.1789939"><ele>196.4</ele><time>2026-05-03T13:23:41.091Z</time></trkpt><trkpt lat="43.6815584" lon="11.1789494"><ele>199.60000000000002</ele><time>2026-05-03T13:23:47.088Z</time></trkpt><trkpt lat="43.6817612" lon="11.1789909"><ele>202.8</ele><time>2026-05-03T13:23:52.094Z</time></trkpt><trkpt lat="43.6818247" lon="11.1789495"><ele>206.0</ele><time>2026-05-03T13:23:53.094Z</time></trkpt><trkpt lat="43.6818845" lon="11.1789818"><ele>202.4</ele><time>2026-05-03T13:23:55.088Z</time></trkpt><trkpt lat="43.6819945" lon="11.1789507"><ele>198.8</ele><time>2026-05-03T13:23:57.088Z</time></trkpt><trkpt lat="43.6820826" lon="11.1789063"><ele>195.20000000000002</ele><time>2026-05-03T13:23:59.088Z</time></trkpt><trkpt lat="43.6821688" lon="11.1788114"><ele>191.60000000000002</ele><time>2026-05-03T13:24:01.094Z</time></trkpt><trkpt lat="43.6821706" lon="11.1787169"><ele>188.0</ele><time>2026-05-03T13:24:03.088Z</time></trkpt><trkpt lat="43.6822073" lon="11.1785765"><ele>188.0</ele><time>2026-05-03T13:24:05.09Z</time></trkpt><trkpt lat="43.6822813" lon="11.1784806"><ele>188.0</ele><time>2026-05-03T13:24:07.093Z</time></trkpt><trkpt lat="43.6823255" lon="11.1784163"><ele>188.0</ele><time>2026-05-03T13:24:09.089Z</time></trkpt><trkpt lat="43.6823908" lon="11.1783395"><ele>188.0</ele><time>2026-05-03T13:24:12.088Z</time></trkpt><trkpt lat="43.6825233" lon="11.1782965"><ele>188.0</ele><time>2026-05-03T13:24:13.094Z</time></trkpt><trkpt lat="43.6825794" lon="11.1781693"><ele>186.33333333333331</ele><time>2026-05-03T13:24:15.091Z</time></trkpt><trkpt lat="43.6826466" lon="11.1780874"><ele>184.66666666666666</ele><time>2026-05-03T13:24:16.089Z</time></trkpt><trkpt lat="43.6826501" lon="11.1779854"><ele>183.0</ele><time>2026-05-03T13:24:17.087Z</time></trkpt><trkpt lat="43.6826866" lon="11.1779144"><ele>181.33333333333334</ele><time>2026-05-03T13:24:18.087Z</time></trkpt><trkpt lat="43.6827363" lon="11.177855"><ele>179.66666666666669</ele><time>2026-05-03T13:24:20.091Z</time></trkpt><trkpt lat="43.6828459" lon="11.1777622"><ele>178.0</ele><time>2026-05-03T13:24:22.091Z</time></trkpt><trkpt lat="43.6829255" lon="11.177724"><ele>178.0</ele><time>2026-05-03T13:24:23.087Z</time></trkpt><trkpt lat="43.6829955" lon="11.1776736"><ele>178.0</ele><time>2026-05-03T13:24:24.09Z</time></trkpt><trkpt lat="43.6830679" lon="11.1776259"><ele>178.0</ele><time>2026-05-03T13:24:25.09Z</time></trkpt><trkpt lat="43.6830932" lon="11.1775425"><ele>178.0</ele><time>2026-05-03T13:24:26.089Z</time></trkpt><trkpt lat="43.6831429" lon="11.1774555"><ele>178.0</ele><time>2026-05-03T13:24:27.092Z</time></trkpt><trkpt lat="43.6832107" lon="11.1773879"><ele>178.0</ele><time>2026-05-03T13:24:28.09Z</time></trkpt><trkpt lat="43.6832421" lon="11.177298"><ele>180.16666666666669</ele><time>2026-05-03T13:24:29.089Z</time></trkpt><trkpt lat="43.6833003" lon="11.177214"><ele>182.33333333333334</ele><time>2026-05-03T13:24:30.088Z</time></trkpt><trkpt lat="43.6833411" lon="11.177123"><ele>184.5</ele><time>2026-05-03T13:24:31.089Z</time></trkpt><trkpt lat="43.6833886" lon="11.177045"><ele>186.66666666666666</ele><time>2026-05-03T13:24:32.093Z</time></trkpt><trkpt lat="43.6834251" lon="11.1769542"><ele>188.83333333333331</ele><time>2026-05-03T13:24:33.097Z</time></trkpt><trkpt lat="43.6834806" lon="11.1768623"><ele>191.0</ele><time>2026-05-03T13:24:34.089Z</time></trkpt><trkpt lat="43.6835263" lon="11.1767023"><ele>191.0</ele><time>2026-05-03T13:24:36.09Z</time></trkpt><trkpt lat="43.6835734" lon="11.1765681"><ele>191.0</ele><time>2026-05-03T13:24:38.089Z</time></trkpt><trkpt lat="43.683622" lon="11.1764722"><ele>191.0</ele><time>2026-05-03T13:24:40.095Z</time></trkpt><trkpt lat="43.6836603" lon="11.1763445"><ele>191.0</ele><time>2026-05-03T13:24:42.09Z</time></trkpt><trkpt lat="43.6837141" lon="11.1762233"><ele>191.0</ele><time>2026-05-03T13:24:44.094Z</time></trkpt><trkpt lat="43.683783" lon="11.1760787"><ele>191.20000000000002</ele><time>2026-05-03T13:24:46.091Z</time></trkpt><trkpt lat="43.6838787" lon="11.176004"><ele>191.4</ele><time>2026-05-03T13:24:48.088Z</time></trkpt><trkpt lat="43.6839446" lon="11.1759279"><ele>191.6</ele><time>2026-05-03T13:24:50.088Z</time></trkpt><trkpt lat="43.6840034" lon="11.1758255"><ele>191.8</ele><time>2026-05-03T13:24:52.091Z</time></trkpt><trkpt lat="43.6840197" lon="11.1756876"><ele>192.0</ele><time>2026-05-03T13:24:55.09Z</time></trkpt><trkpt lat="43.6840494" lon="11.1755977"><ele>192.0</ele><time>2026-05-03T13:24:57.091Z</time></trkpt><trkpt lat="43.6840466" lon="11.1755068"><ele>192.0</ele><time>2026-05-03T13:25:18.09Z</time></trkpt><trkpt lat="43.6840927" lon="11.1754055"><ele>192.0</ele><time>2026-05-03T13:25:20.095Z</time></trkpt><trkpt lat="43.6841615" lon="11.175298"><ele>192.0</ele><time>2026-05-03T13:25:22.089Z</time></trkpt><trkpt lat="43.6842394" lon="11.1752023"><ele>192.0</ele><time>2026-05-03T13:25:24.088Z</time></trkpt><trkpt lat="43.6843125" lon="11.175128"><ele>192.0</ele><time>2026-05-03T13:25:26.091Z</time></trkpt><trkpt lat="43.6843836" lon="11.1750882"><ele>192.0</ele><time>2026-05-03T13:25:28.09Z</time></trkpt><trkpt lat="43.6845949" lon="11.1750595"><ele>192.0</ele><time>2026-05-03T13:25:32.098Z</time></trkpt><trkpt lat="43.6846722" lon="11.1750313"><ele>192.0</ele><time>2026-05-03T13:25:33.09Z</time></trkpt><trkpt lat="43.6847862" lon="11.1749783"><ele>190.2</ele><time>2026-05-03T13:25:35.096Z</time></trkpt><trkpt lat="43.6848615" lon="11.1749248"><ele>188.39999999999998</ele><time>2026-05-03T13:25:36.094Z</time></trkpt><trkpt lat="43.6849225" lon="11.174868"><ele>186.60000000000002</ele><time>2026-05-03T13:25:37.09Z</time></trkpt><trkpt lat="43.685001" lon="11.1747871"><ele>184.8</ele><time>2026-05-03T13:25:39.092Z</time></trkpt><trkpt lat="43.6850919" lon="11.1746665"><ele>183.0</ele><time>2026-05-03T13:25:41.09Z</time></trkpt><trkpt lat="43.6851597" lon="11.1745484"><ele>183.0</ele><time>2026-05-03T13:25:43.091Z</time></trkpt><trkpt lat="43.6852033" lon="11.17448"><ele>183.0</ele><time>2026-05-03T13:25:44.088Z</time></trkpt><trkpt lat="43.6851899" lon="11.1743169"><ele>183.0</ele><time>2026-05-03T13:25:46.09Z</time></trkpt><trkpt lat="43.6852257" lon="11.1741343"><ele>183.0</ele><time>2026-05-03T13:25:48.089Z</time></trkpt><trkpt lat="43.6852405" lon="11.1740417"><ele>183.0</ele><time>2026-05-03T13:25:49.088Z</time></trkpt><trkpt lat="43.6852734" lon="11.173904"><ele>181.0</ele><time>2026-05-03T13:25:51.088Z</time></trkpt><trkpt lat="43.6853374" lon="11.1737678"><ele>179.0</ele><time>2026-05-03T13:25:52.09Z</time></trkpt><trkpt lat="43.6853955" lon="11.1736936"><ele>177.0</ele><time>2026-05-03T13:25:54.089Z</time></trkpt><trkpt lat="43.6854476" lon="11.1736294"><ele>175.0</ele><time>2026-05-03T13:25:55.092Z</time></trkpt><trkpt lat="43.6855389" lon="11.1735131"><ele>173.0</ele><time>2026-05-03T13:25:57.09Z</time></trkpt><trkpt lat="43.6856462" lon="11.1734778"><ele>173.0</ele><time>2026-05-03T13:25:58.097Z</time></trkpt><trkpt lat="43.6856776" lon="11.1733895"><ele>173.0</ele><time>2026-05-03T13:26:00.091Z</time></trkpt><trkpt lat="43.6857694" lon="11.1733136"><ele>173.0</ele><time>2026-05-03T13:26:02.092Z</time></trkpt><trkpt lat="43.6858862" lon="11.1731776"><ele>173.0</ele><time>2026-05-03T13:26:04.095Z</time></trkpt><trkpt lat="43.6859598" lon="11.1731242"><ele>173.0</ele><time>2026-05-03T13:26:05.093Z</time></trkpt><trkpt lat="43.6860701" lon="11.173046"><ele>173.5</ele><time>2026-05-03T13:26:07.09Z</time></trkpt><trkpt lat="43.6861429" lon="11.1729729"><ele>174.0</ele><time>2026-05-03T13:26:09.091Z</time></trkpt><trkpt lat="43.6862277" lon="11.1729752"><ele>174.5</ele><time>2026-05-03T13:26:10.089Z</time></trkpt><trkpt lat="43.6862447" lon="11.1730714"><ele>175.0</ele><time>2026-05-03T13:26:12.089Z</time></trkpt><trkpt lat="43.6862788" lon="11.1731769"><ele>175.5</ele><time>2026-05-03T13:26:15.092Z</time></trkpt><trkpt lat="43.6862659" lon="11.1732998"><ele>176.0</ele><time>2026-05-03T13:26:19.089Z</time></trkpt><trkpt lat="43.6862624" lon="11.1734067"><ele>176.0</ele><time>2026-05-03T13:26:20.089Z</time></trkpt><trkpt lat="43.6862031" lon="11.1734476"><ele>176.0</ele><time>2026-05-03T13:26:21.089Z</time></trkpt><trkpt lat="43.6861591" lon="11.1735839"><ele>176.0</ele><time>2026-05-03T13:26:23.089Z</time></trkpt><trkpt lat="43.6861358" lon="11.1736863"><ele>176.0</ele><time>2026-05-03T13:26:25.09Z</time></trkpt><trkpt lat="43.6861124" lon="11.1737775"><ele>176.0</ele><time>2026-05-03T13:26:27.091Z</time></trkpt><trkpt lat="43.6861391" lon="11.1738902"><ele>176.0</ele><time>2026-05-03T13:26:29.091Z</time></trkpt><trkpt lat="43.6862056" lon="11.1739323"><ele>176.0</ele><time>2026-05-03T13:26:31.089Z</time></trkpt><trkpt lat="43.6862751" lon="11.173926"><ele>176.0</ele><time>2026-05-03T13:26:34.089Z</time></trkpt><trkpt lat="43.6863432" lon="11.1739422"><ele>176.0</ele><time>2026-05-03T13:26:36.094Z</time></trkpt><trkpt lat="43.6864067" lon="11.17397"><ele>176.0</ele><time>2026-05-03T13:26:37.097Z</time></trkpt><trkpt lat="43.6864693" lon="11.1740192"><ele>176.0</ele><time>2026-05-03T13:26:38.093Z</time></trkpt><trkpt lat="43.6865391" lon="11.1740677"><ele>176.0</ele><time>2026-05-03T13:26:39.095Z</time></trkpt><trkpt lat="43.6865981" lon="11.1741036"><ele>176.0</ele><time>2026-05-03T13:26:40.088Z</time></trkpt><trkpt lat="43.6867148" lon="11.1741224"><ele>176.0</ele><time>2026-05-03T13:26:42.087Z</time></trkpt><trkpt lat="43.686777" lon="11.1740756"><ele>176.0</ele><time>2026-05-03T13:26:43.089Z</time></trkpt><trkpt lat="43.6868352" lon="11.1740203"><ele>176.0</ele><time>2026-05-03T13:26:44.089Z</time></trkpt><trkpt lat="43.6868916" lon="11.1739641"><ele>176.0</ele><time>2026-05-03T13:26:45.093Z</time></trkpt><trkpt lat="43.6869411" lon="11.1739091"><ele>176.0</ele><time>2026-05-03T13:26:46.097Z</time></trkpt><trkpt lat="43.6870077" lon="11.1738028"><ele>176.0</ele><time>2026-05-03T13:26:48.091Z</time></trkpt><trkpt lat="43.6870616" lon="11.1737065"><ele>179.16666666666666</ele><time>2026-05-03T13:26:50.094Z</time></trkpt><trkpt lat="43.6871077" lon="11.1736366"><ele>182.33333333333331</ele><time>2026-05-03T13:26:52.089Z</time></trkpt><trkpt lat="43.6871795" lon="11.1735629"><ele>185.5</ele><time>2026-05-03T13:26:55.108Z</time></trkpt><trkpt lat="43.6872254" lon="11.1734842"><ele>188.66666666666666</ele><time>2026-05-03T13:26:57.099Z</time></trkpt><trkpt lat="43.6872627" lon="11.1733827"><ele>191.83333333333334</ele><time>2026-05-03T13:26:59.096Z</time></trkpt><trkpt lat="43.6873091" lon="11.1733094"><ele>195.0</ele><time>2026-05-03T13:27:01.088Z</time></trkpt><trkpt lat="43.6873572" lon="11.1732373"><ele>193.0</ele><time>2026-05-03T13:27:03.089Z</time></trkpt><trkpt lat="43.6874287" lon="11.1731579"><ele>191.0</ele><time>2026-05-03T13:27:05.092Z</time></trkpt><trkpt lat="43.6874889" lon="11.1731136"><ele>189.0</ele><time>2026-05-03T13:27:06.089Z</time></trkpt><trkpt lat="43.6875961" lon="11.1730595"><ele>187.0</ele><time>2026-05-03T13:27:08.094Z</time></trkpt><trkpt lat="43.687673" lon="11.1729916"><ele>185.0</ele><time>2026-05-03T13:27:10.089Z</time></trkpt><trkpt lat="43.687692" lon="11.1728907"><ele>183.0</ele><time>2026-05-03T13:27:12.089Z</time></trkpt><trkpt lat="43.6877184" lon="11.1727661"><ele>183.0</ele><time>2026-05-03T13:27:15.096Z</time></trkpt><trkpt lat="43.6877386" lon="11.1726548"><ele>183.0</ele><time>2026-05-03T13:27:17.092Z</time></trkpt><trkpt lat="43.6877895" lon="11.1725888"><ele>183.0</ele><time>2026-05-03T13:27:19.092Z</time></trkpt><trkpt lat="43.6878515" lon="11.172633"><ele>183.0</ele><time>2026-05-03T13:27:21.089Z</time></trkpt><trkpt lat="43.687927" lon="11.1726522"><ele>183.0</ele><time>2026-05-03T13:27:23.095Z</time></trkpt><trkpt lat="43.6879961" lon="11.172665"><ele>183.0</ele><time>2026-05-03T13:27:26.094Z</time></trkpt><trkpt lat="43.688107" lon="11.1726326"><ele>187.60000000000002</ele><time>2026-05-03T13:28:09.091Z</time></trkpt><trkpt lat="43.6882247" lon="11.1726461"><ele>192.20000000000002</ele><time>2026-05-03T13:28:43.099Z</time></trkpt><trkpt lat="43.688323" lon="11.1726334"><ele>196.8</ele><time>2026-05-03T13:28:45.089Z</time></trkpt><trkpt lat="43.6884032" lon="11.1725984"><ele>201.4</ele><time>2026-05-03T13:28:47.091Z</time></trkpt><trkpt lat="43.6884469" lon="11.1725057"><ele>206.0</ele><time>2026-05-03T13:28:50.092Z</time></trkpt><trkpt lat="43.6885341" lon="11.1724553"><ele>206.16666666666669</ele><time>2026-05-03T13:28:53.096Z</time></trkpt><trkpt lat="43.6886111" lon="11.172417"><ele>206.33333333333334</ele><time>2026-05-03T13:28:55.095Z</time></trkpt><trkpt lat="43.6886828" lon="11.1723649"><ele>206.5</ele><time>2026-05-03T13:28:57.09Z</time></trkpt><trkpt lat="43.6887317" lon="11.1724355"><ele>206.66666666666669</ele><time>2026-05-03T13:29:01.095Z</time></trkpt><trkpt lat="43.6887436" lon="11.1725228"><ele>206.83333333333334</ele><time>2026-05-03T13:29:07.094Z</time></trkpt><trkpt lat="43.6887074" lon="11.1726135"><ele>207.0</ele><time>2026-05-03T13:29:11.089Z</time></trkpt><trkpt lat="43.6886557" lon="11.1727083"><ele>207.0</ele><time>2026-05-03T13:29:13.097Z</time></trkpt><trkpt lat="43.6886376" lon="11.1727974"><ele>207.0</ele><time>2026-05-03T13:29:14.089Z</time></trkpt><trkpt lat="43.6886417" lon="11.1729196"><ele>207.0</ele><time>2026-05-03T13:29:17.094Z</time></trkpt><trkpt lat="43.6886683" lon="11.173002"><ele>207.0</ele><time>2026-05-03T13:29:21.087Z</time></trkpt><trkpt lat="43.6887221" lon="11.1730893"><ele>207.0</ele><time>2026-05-03T13:29:24.093Z</time></trkpt><trkpt lat="43.6887465" lon="11.1731844"><ele>207.0</ele><time>2026-05-03T13:29:26.093Z</time></trkpt><trkpt lat="43.68877" lon="11.173312"><ele>209.0</ele><time>2026-05-03T13:29:28.09Z</time></trkpt><trkpt lat="43.6887901" lon="11.1734258"><ele>211.0</ele><time>2026-05-03T13:29:30.089Z</time></trkpt><trkpt lat="43.6887967" lon="11.1735139"><ele>213.0</ele><time>2026-05-03T13:29:32.093Z</time></trkpt><trkpt lat="43.6888133" lon="11.1736235"><ele>215.0</ele><time>2026-05-03T13:29:35.095Z</time></trkpt><trkpt lat="43.6888163" lon="11.1737737"><ele>217.0</ele><time>2026-05-03T13:29:37.098Z</time></trkpt><trkpt lat="43.688811" lon="11.173899"><ele>219.0</ele><time>2026-05-03T13:29:39.091Z</time></trkpt><trkpt lat="43.6888013" lon="11.1739859"><ele>219.0</ele><time>2026-05-03T13:29:41.089Z</time></trkpt><trkpt lat="43.6887587" lon="11.1740809"><ele>228.0</ele><time>2026-05-03T13:29:43.09Z</time></trkpt><trkpt lat="43.6886652" lon="11.1741695"><ele>228.0</ele><time>2026-05-03T13:29:45.097Z</time></trkpt><trkpt lat="43.6886202" lon="11.1743193"><ele>228.0</ele><time>2026-05-03T13:29:47.092Z</time></trkpt></trkseg></trk></gpx>